[[{"header":{"parameterUnit":"m.s-1","parameterCategory":1,"la1":31.0,"la2":29.5877,"lo1":-88.7671,"lo2":-86.6584,"dx":0.0162,"dy":0.0185,"nx":115,"ny":88,"refTime":"2022-11-02T18:00:00:Z","depth":0,"parameterNumber":2,"parameterNumberName":"U-component_of_WINDS"},"data":[0.0,0.0,0.0,0.0,0.0,0.0,0.0,0.0,0.0,0.0,0.0,0.0,0.0,0.0,0.0,0.0,0.0,0.0,0.0,0.0,0.0,0.0,0.0,0.0,0.0,0.0,0.0,0.0,0.0,0.0,0.0,0.0,0.0,0.0,0.0,0.0,0.0,0.0,0.0,0.0,0.0,0.0,0.0,0.0,0.0,0.0,0.0,0.0,0.0,0.0,0.0,0.0,0.0,0.0,0.0,0.0,0.0,0.0,0.0,0.0,0.0,0.0,0.0,0.0,0.0,0.0,0.0,0.0,0.0,0.0,0.0,0.0,0.0,0.0,0.0,0.0,0.0,0.0,0.0,0.0,0.0,0.0,0.0,0.0,0.0,0.0,0.0,0.0,0.0,0.0,0.0,0.0,0.0,0.0,0.0,0.0,0.0,0.0,0.0,0.0,0.0,0.0,0.0,0.0,0.0,0.0,0.0,0.0,0.0,0.0,0.0,0.0,0.0,0.0,0.0,0.0,0.0,0.0,0.0,0.0,0.0,0.0,0.0,0.0,0.0,0.0,0.0,0.0,0.0,0.0,0.0,0.0,0.0,0.0,0.0,0.0,0.0,0.0,0.0,0.0,0.0,0.0,0.0,0.0,0.0,0.0,0.0,0.0,0.0,0.0,0.0,0.0,0.0,0.0,0.0,0.0,0.0,0.0,0.0,0.0,0.0,0.0,0.0,0.0,0.0,0.0,0.0,0.0,0.0,0.0,0.0,0.0,0.0,0.0,0.0,0.0,0.0,0.0,0.0,0.0,0.0,0.0,0.0,0.0,0.0,0.0,0.0,0.0,0.0,0.0,0.0,0.0,0.0,0.0,0.0,0.0,0.0,0.0,0.0,0.0,0.0,0.0,0.0,0.0,0.0,0.0,0.0,0.0,0.0,0.0,0.0,0.0,0.0,0.0,0.0,0.0,0.0,0.0,0.0,0.0,0.0,0.0,0.0,0.0,0.0,0.0,0.0,0.0,0.0,0.0,0.0,0.0,0.0,0.0,0.0,0.0,0.0,0.0,0.0,0.0,0.0,0.0,0.0,0.0,0.0,0.0,0.0,0.0,0.0,0.0,0.0,0.0,0.0,0.0,0.0,0.0,0.0,0.0,0.0,0.0,0.0,0.0,0.0,0.0,0.0,0.0,0.0,0.0,0.0,0.0,0.0,0.0,0.0,0.0,0.0,0.0,0.0,0.0,0.0,0.0,0.0,0.0,0.0,0.0,0.0,0.0,0.0,0.0,0.0,0.0,0.0,0.0,0.0,0.0,0.0,0.0,0.0,0.0,0.0,0.0,0.0,0.0,0.0,0.0,0.0,0.0,0.0,0.0,0.0,0.0,0.0,0.0,0.0,0.0,0.0,0.0,0.0,0.0,0.0,0.0,0.0,0.0,0.0,0.0,0.0,0.0,0.0,0.0,0.0,0.0,0.0,0.0,0.0,0.0,0.0,0.0,0.0,0.0,0.0,0.0,0.0,0.0,0.0,0.0,0.0,0.0,0.0,0.0,0.0,0.0,0.0,0.0,0.0,0.0,0.0,0.0,0.0,0.0,0.0,0.0,0.0,0.0,0.0,0.0,0.0,0.0,0.0,0.0,0.0,0.0,0.0,0.0,0.0,0.0,0.0,0.0,0.0,0.0,0.0,0.0,0.0,0.0,0.0,0.0,0.0,0.0,0.0,0.0,0.0,0.0,0.0,0.0,0.0,0.0,0.0,0.0,0.0,0.0,0.0,0.0,0.0,0.0,0.0,0.0,0.0,0.0,0.0,0.0,0.0,0.0,0.0,0.0,0.0,0.0,0.0,0.0,0.0,0.0,0.0,0.0,0.0,0.0,0.0,0.0,0.0,0.0,0.0,0.0,0.0,0.0,0.0,0.0,0.0,0.0,0.0,0.0,0.0,0.0,0.0,0.0,0.0,0.0,0.0,0.0,0.0,0.0,0.0,0.0,0.0,0.0,0.0,0.0,0.0,0.0,0.0,0.0,0.0,0.0,0.0,0.0,0.0,0.0,0.0,0.0,0.0,0.0,0.0,0.0,0.0,0.0,0.0,0.0,0.0,0.0,0.0,0.0,0.0,0.0,0.0,0.0,0.0,0.0,0.0,0.0,0.0,0.0,0.0,0.0,0.0,0.0,0.0,0.0,0.0,0.0,0.0,0.0,0.0,0.0,0.0,0.0,0.0,0.0,0.0,0.0,0.0,0.0,0.0,0.0,0.0,0.0,0.0,0.0,0.0,0.0,0.0,0.0,0.0,0.0,0.0,0.0,0.0,0.0,0.0,0.0,0.0,0.0,0.0,0.0,0.0,0.0,0.0,0.0,0.0,0.0,0.0,0.0,0.0,0.0,0.0,0.0,0.0,0.0,0.0,0.0,0.0,0.0,0.0,0.0,0.0,0.0,0.0,0.0,0.0,0.0,0.0,0.0,0.0,0.0,0.0,0.0,0.0,0.0,0.0,0.0,0.0,0.0,0.0,0.0,0.0,0.0,0.0,0.0,0.0,0.0,0.0,0.0,0.0,0.0,0.0,0.0,0.0,0.0,0.0,0.0,0.0,0.0,0.0,0.0,0.0,0.0,0.0,0.0,0.0,0.0,0.0,0.0,0.0,0.0,0.0,0.0,0.0,0.0,0.0,0.0,0.0,0.0,0.0,0.0,0.0,0.0,0.0,0.0,0.0,0.0,0.0,0.0,0.0,0.0,0.0,0.0,0.0,0.0,0.0,0.0,0.0,0.0,0.0,0.0,0.0,0.0,0.0,0.0,0.0,0.0,0.0,0.0,0.0,0.0,0.0,0.0,0.0,0.0,0.0,0.0,0.0,0.0,0.0,0.0,0.0,0.0,0.0,0.0,0.0,0.0,0.0,0.0,0.0,0.0,0.0,0.0,0.0,0.0,0.0,0.0,0.0,0.0,0.0,0.0,0.0,0.0,0.0,0.0,0.0,0.0,0.0,0.0,0.0,0.0,0.0,0.0,0.0,0.0,0.0,0.0,0.0,0.0,0.0,0.0,0.0,0.0,0.0,0.0,0.0,0.0,0.0,0.0,0.0,0.0,0.0,0.0,0.0,0.0,0.0,0.0,0.0,0.0,0.0,0.0,0.0,0.0,0.0,0.0,0.0,0.0,0.0,0.0,0.0,0.0,0.0,0.0,0.0,0.0,0.0,0.0,0.0,0.0,0.0,0.0,0.0,0.0,0.0,0.0,0.0,0.0,0.0,0.0,0.0,0.0,0.0,0.0,0.0,0.0,0.0,0.0,0.0,0.0,0.0,0.0,0.0,0.0,0.0,0.0,0.0,0.0,0.0,0.0,0.0,0.0,0.0,0.0,0.0,0.0,0.0,0.0,0.0,0.0,0.0,0.0,0.0,0.0,0.0,0.0,0.0,0.0,0.0,0.0,0.0,0.0,0.0,0.0,0.0,0.0,0.0,0.0,0.0,0.0,0.0,0.0,0.0,0.0,0.0,0.0,0.0,0.0,0.0,0.0,0.0,0.0,0.0,0.0,0.0,0.0,0.0,0.0,0.0,0.0,0.0,0.0,0.0,0.0,0.0,0.0,0.0,0.0,0.0,0.0,0.0,0.0,0.0,0.0,0.0,0.0,0.0,0.0,0.0,0.0,0.0,0.0,0.0,0.0,0.0,0.0,0.0,0.0,0.0,0.0,0.0,0.0,0.0,0.0,0.0,0.0,0.0,0.0,0.0,0.0,0.0,0.0,0.0,0.0,0.0,0.0,0.0,0.0,0.0,0.0,0.0,0.0,0.0,0.0,0.0,0.0,0.0,0.0,0.0,0.0,0.0,0.0,0.0,0.0,0.0,0.0,0.0,0.0,0.0,0.0,0.0,0.0,0.0,0.0,0.0,0.0,0.0,0.0,0.0,0.0,0.0,0.0,0.0,0.0,0.0,0.0,0.0,0.0,0.0,0.0,0.0,0.0,0.0,0.0,0.0,0.0,0.0,0.0,0.0,0.0,0.0,0.0,0.0,0.0,0.0,0.0,0.0,0.0,0.0,0.0,0.0,0.0,0.0,0.0,0.0,0.0,0.0,0.0,0.0,0.0,0.0,0.0,0.0,0.0,0.0,0.0,0.0,0.0,0.0,0.0,0.0,0.0,0.0,0.0,0.0,0.0,0.0,0.0,0.0,0.0,0.0,0.0,0.0,0.0,0.0,0.0,0.0,0.0,0.0,0.0,0.0,0.0,0.0,0.0,0.0,0.0,1.2495,0.0,0.0,0.0,1.1969,0.0,0.0,0.0,0.0,0.0,0.0,0.0,0.0,0.0,0.0,0.0,0.0,0.0,0.0,0.0,0.0,0.0,0.0,0.0,0.0,0.0,0.0,0.0,0.0,0.0,0.0,0.0,0.0,0.0,0.0,0.0,0.0,0.0,0.0,0.0,0.0,0.0,0.0,0.0,0.0,0.0,0.0,0.0,0.0,0.0,0.0,0.0,0.0,0.0,0.0,0.0,0.0,0.0,0.0,0.0,0.0,0.0,0.0,0.0,0.0,0.0,0.0,0.0,0.0,0.0,0.0,0.0,0.0,0.0,0.0,0.0,0.0,0.0,0.0,0.0,0.0,0.0,0.0,0.0,0.0,0.0,0.0,0.0,0.0,0.0,0.0,0.0,0.0,0.0,0.0,0.0,0.0,0.0,0.0,0.0,0.0,0.0,0.0,0.0,0.0,0.0,0.0,0.0,0.0,0.0,0.0,0.0,0.0,0.0,0.0,1.249,1.1855,1.2801,1.2873,1.1855,0.0,0.0,0.0,0.0,0.0,0.0,0.0,0.0,0.0,0.0,0.0,0.0,0.0,0.0,0.0,0.0,0.0,0.0,0.0,0.0,0.0,0.0,0.0,0.0,0.0,0.0,0.0,0.0,0.0,0.0,0.0,0.0,0.0,0.0,0.0,0.0,0.0,0.0,0.0,0.0,0.0,0.0,0.0,0.0,0.0,0.0,0.0,0.0,0.0,0.0,0.0,0.0,0.0,0.0,0.0,0.0,0.0,0.0,0.0,0.0,0.0,0.0,0.0,0.0,0.0,0.0,0.0,0.0,0.0,0.0,0.0,0.0,0.0,0.0,0.0,0.0,0.0,0.0,0.0,0.0,0.0,0.0,0.0,0.0,0.0,0.0,0.0,0.0,0.0,0.0,0.0,0.0,0.0,0.0,0.0,0.0,0.0,0.0,0.0,0.0,0.0,0.0,0.0,0.0,0.0,0.0,0.0,0.0,0.0,0.0,0.0,0.0,1.3011,1.3107,1.2095,0.0,0.0,0.0,0.0,0.0,0.0,0.0,0.0,0.0,0.0,0.0,0.0,0.0,0.0,0.0,0.0,0.0,0.0,0.0,0.0,0.0,0.0,0.0,0.0,0.0,0.0,0.0,0.0,0.0,0.0,0.0,0.0,0.0,0.0,0.0,0.0,0.0,0.0,0.0,0.0,0.0,0.0,0.0,0.0,0.0,0.0,0.0,0.0,0.0,0.0,0.0,0.0,0.0,0.0,0.0,0.0,0.0,0.0,0.0,0.0,0.0,0.0,0.0,0.0,0.0,0.0,0.0,0.0,0.0,0.0,0.0,0.0,0.0,0.0,0.0,0.0,0.0,0.0,0.0,0.0,0.0,0.0,0.0,0.0,0.0,0.0,0.0,0.0,0.0,0.0,0.0,0.0,0.0,0.0,0.0,0.0,0.0,0.0,0.0,0.0,0.0,0.0,0.0,0.0,0.0,0.0,0.0,0.0,0.0,0.0,1.2155,1.2699,1.2825,0.0,1.2705,0.0,0.0,0.0,0.0,0.0,0.0,0.0,0.0,0.0,0.0,0.0,0.0,0.0,0.0,0.0,0.0,0.0,0.0,0.0,0.0,0.0,0.0,0.0,0.0,0.0,0.0,0.0,0.0,0.0,0.0,0.0,0.0,0.0,0.0,0.0,0.0,0.0,0.0,0.0,0.0,0.0,0.0,0.0,0.0,0.0,0.0,0.0,0.0,0.0,0.0,0.0,0.0,0.0,0.0,0.0,0.0,0.0,0.0,0.0,0.0,0.0,0.0,0.0,0.0,0.0,0.0,0.0,0.0,0.0,0.0,0.0,0.0,0.0,0.0,0.0,0.0,0.0,0.0,0.0,0.0,0.0,0.0,0.0,0.0,0.0,0.0,0.0,0.0,0.0,0.0,0.0,0.0,0.0,0.0,0.0,0.0,0.0,0.0,0.0,0.0,0.0,0.0,0.0,0.0,0.0,0.0,0.0,0.0,0.0,0.0,1.2525,1.2789,1.2783,1.2783,0.0,0.0,0.0,0.0,0.0,0.0,0.0,0.0,0.0,0.0,0.0,0.0,0.0,0.0,0.0,0.0,0.0,0.0,0.0,0.0,0.0,0.0,0.0,0.0,0.0,0.0,0.0,0.0,0.0,0.0,0.0,0.0,0.0,0.0,0.0,0.0,0.0,0.0,0.0,0.0,0.0,0.0,0.0,0.0,0.0,0.0,0.0,0.0,0.0,0.0,0.0,0.0,0.0,0.0,0.0,0.0,0.0,0.0,0.0,0.0,0.0,0.0,0.0,0.0,0.0,0.0,0.0,0.0,0.0,0.0,0.0,0.0,0.0,0.0,0.0,0.0,0.0,0.0,0.0,0.0,0.0,0.0,0.0,0.0,0.0,0.0,0.0,0.0,0.0,0.0,0.0,0.0,0.0,0.0,0.0,0.0,0.0,0.0,0.0,0.0,0.0,0.0,0.0,0.0,0.0,0.0,0.0,0.0,0.0,0.0,1.2645,1.2885,1.3065,1.2885,1.2783,1.2783,0.0,0.0,0.0,0.0,0.0,0.0,0.0,0.0,0.0,0.0,0.0,0.0,0.0,0.0,0.0,0.0,0.0,0.0,0.0,0.0,0.0,0.0,0.0,0.0,0.0,0.0,0.0,0.0,0.0,0.0,0.0,0.0,0.0,0.0,0.0,0.0,0.0,0.0,0.0,0.0,0.0,0.0,0.0,0.0,0.0,0.0,0.0,0.0,0.0,0.0,0.0,0.0,0.0,0.0,0.0,0.0,0.0,0.0,0.0,0.0,0.0,0.0,0.0,0.0,0.0,0.0,0.0,0.0,0.0,0.0,0.0,0.0,0.0,0.0,0.0,0.0,0.0,0.0,0.0,0.0,0.0,0.0,0.0,0.0,0.0,0.0,0.0,0.0,0.0,0.0,0.0,0.0,0.0,0.0,0.0,0.0,0.0,0.0,0.0,0.0,0.0,0.0,0.0,0.0,0.0,0.0,0.0,0.0,1.3609,1.3148,1.3113,1.3729,1.3148,1.2789,0.0,0.0,0.0,0.0,0.0,0.0,0.0,0.0,0.0,0.0,0.0,0.0,0.0,0.0,0.0,0.0,0.0,0.0,0.0,0.0,0.0,0.0,0.0,0.0,0.0,0.0,0.0,0.0,0.0,0.0,0.0,0.0,0.0,0.0,0.0,0.0,0.0,0.0,0.0,0.0,0.0,0.0,0.0,0.0,0.0,0.0,0.0,0.0,0.0,0.0,0.0,0.0,0.0,0.0,0.0,0.0,0.0,0.0,0.0,0.0,0.0,0.0,0.0,0.0,0.0,0.0,0.0,0.0,0.0,0.0,0.0,0.0,0.0,0.0,0.0,0.0,0.0,0.0,0.0,0.0,0.0,0.0,0.0,0.0,0.0,0.0,0.0,0.0,0.0,0.0,0.0,0.0,0.0,0.0,0.0,0.0,0.0,0.0,0.0,0.0,0.0,0.0,0.0,0.0,0.0,0.0,0.0,0.0,0.0,1.3782,1.3981,1.4197,1.44,1.3388,1.2999,0.0,0.0,0.0,0.0,0.0,0.0,0.0,0.0,0.0,0.0,0.0,0.0,0.0,0.0,0.0,0.0,0.0,0.0,0.0,0.0,0.0,0.0,0.0,0.0,0.0,0.0,0.0,0.0,0.0,0.0,0.0,0.0,0.0,0.0,0.0,0.0,0.0,0.0,0.0,0.0,0.0,0.0,0.0,0.0,0.0,0.0,0.0,0.0,0.0,0.0,0.0,0.0,0.0,0.0,0.0,0.0,0.0,0.0,0.0,0.0,0.0,0.0,0.0,0.0,0.0,0.0,0.0,0.0,0.0,0.0,0.0,0.0,0.0,0.0,0.0,0.0,0.0,0.0,0.0,0.0,0.0,0.0,0.0,0.0,0.0,0.0,0.0,0.0,0.0,0.0,0.0,0.0,0.0,0.0,0.0,0.0,0.0,0.0,0.0,0.0,0.0,0.0,0.0,0.0,0.0,0.0,0.0,0.0,0.0,1.4732,1.5194,1.5433,1.5374,1.4346,1.3904,0.0,0.0,0.0,0.0,0.0,0.0,0.0,0.0,0.0,0.0,0.0,0.0,0.0,0.0,0.0,0.0,0.0,0.0,0.0,0.0,0.0,0.0,0.0,0.0,0.0,0.0,0.0,0.0,0.0,0.0,0.0,0.0,0.0,0.0,0.0,0.0,0.0,0.0,0.0,0.0,0.0,0.0,0.0,0.0,0.0,0.0,0.0,0.0,0.0,0.0,0.0,0.0,0.0,0.0,0.0,0.0,0.0,0.0,0.0,0.0,0.0,0.0,0.0,0.0,0.0,0.0,0.0,0.0,0.0,0.0,0.0,0.0,0.0,0.0,0.0,0.0,0.0,0.0,0.0,0.0,0.0,0.0,0.0,0.0,0.0,0.0,0.0,0.0,0.0,0.0,0.0,0.0,0.0,0.0,0.0,0.0,0.0,0.0,0.0,0.0,0.0,0.0,0.0,0.0,0.0,0.0,0.0,0.0,1.4792,1.6592,1.6681,1.6659,1.6681,1.6009,1.5462,0.0,0.0,0.0,0.0,0.0,0.0,0.0,0.0,0.0,0.0,0.0,0.0,0.0,0.0,0.0,0.0,0.0,0.0,0.0,0.0,0.0,0.0,0.0,0.0,0.0,0.0,0.0,0.0,0.0,0.0,0.0,0.0,0.0,0.0,0.0,0.0,0.0,0.0,0.0,0.0,0.0,0.0,0.0,0.0,0.0,0.0,0.0,0.0,0.0,0.0,0.0,0.0,0.0,0.0,0.0,0.0,0.0,0.0,0.0,0.0,0.0,0.0,0.0,0.0,0.0,0.0,0.0,0.0,0.0,0.0,0.0,0.0,0.0,0.0,0.0,0.0,0.0,0.0,0.0,0.0,0.0,0.0,0.0,0.0,0.0,0.0,0.0,0.0,0.0,0.0,0.0,0.0,0.0,0.0,0.0,0.0,0.0,0.0,0.0,0.0,0.0,0.0,0.0,0.0,0.0,0.0,0.0,0.0,0.0,1.7362,1.7384,1.7167,1.6711,1.6129,1.5897,0.0,0.0,0.0,0.0,0.0,0.0,0.0,0.0,0.0,0.0,0.0,0.0,0.0,0.0,0.0,0.0,0.0,0.0,0.0,0.0,0.0,0.0,0.0,0.0,0.0,0.0,0.0,0.0,0.0,0.0,0.0,0.0,0.0,0.0,0.0,0.0,0.0,0.0,0.0,0.0,0.0,0.0,0.0,0.0,0.0,0.0,0.0,0.0,0.0,0.0,0.0,0.0,0.0,0.0,0.0,0.0,0.0,0.0,0.0,0.0,0.0,0.0,0.0,0.0,0.0,0.0,0.0,0.0,0.0,0.0,0.0,0.0,0.0,0.0,0.0,0.0,0.0,0.0,0.0,0.0,0.0,0.0,0.0,0.0,0.0,0.0,0.0,0.0,0.0,0.0,0.0,0.0,0.0,0.0,0.0,0.0,0.0,0.0,0.0,0.0,0.0,0.0,0.0,0.0,0.0,0.0,0.0,0.0,0.0,1.8454,1.8694,1.8617,1.822,1.7834,1.7573,1.7413,0.0,0.0,0.0,0.0,0.0,0.0,0.0,0.0,0.0,0.0,0.0,0.0,0.0,0.0,0.0,0.0,0.0,0.0,0.0,0.0,0.0,0.0,0.0,0.0,0.0,0.0,0.0,0.0,0.0,0.0,0.0,0.0,0.0,0.0,0.0,0.0,0.0,0.0,0.0,0.0,0.0,0.0,0.0,0.0,0.0,0.0,0.0,0.0,0.0,0.0,0.0,0.0,0.0,0.0,0.0,0.0,0.0,0.0,0.0,0.0,0.0,0.0,0.0,0.0,0.0,0.0,0.0,0.0,0.0,0.0,0.0,0.0,0.0,0.0,0.0,0.0,0.0,0.0,0.0,0.0,0.0,0.0,0.0,0.0,0.0,0.0,0.0,0.0,0.0,0.0,0.0,0.0,0.0,0.0,0.0,0.0,0.0,0.0,0.0,0.0,0.0,0.0,0.0,0.0,0.0,0.0,0.0,0.0,1.9818,2.0557,2.0847,2.0658,2.0608,2.007,0.0,0.0,0.0,0.0,0.0,0.0,0.0,0.0,0.0,0.0,0.0,0.0,0.0,0.0,0.0,0.0,0.0,0.0,0.0,0.0,0.0,0.0,0.0,0.0,0.0,0.0,0.0,0.0,0.0,0.0,0.0,0.0,0.0,0.0,0.0,0.0,0.0,0.0,0.0,0.0,0.0,0.0,0.0,0.0,0.0,0.0,0.0,0.0,0.0,0.0,0.0,0.0,0.0,0.0,0.0,0.0,0.0,0.0,0.0,0.0,0.0,0.0,0.0,0.0,0.0,0.0,0.0,0.0,0.0,0.0,0.0,0.0,0.0,0.0,0.0,0.0,0.0,0.0,0.0,0.0,0.0,0.0,0.0,0.0,0.0,0.0,0.0,0.0,0.0,0.0,0.0,0.0,0.0,0.0,0.0,0.0,0.0,0.0,0.0,0.0,0.0,0.0,0.0,0.0,0.0,0.0,0.0,0.0,0.0,2.1246,2.2761,2.2661,2.0787,2.0228,2.0049,0.0,0.0,0.0,0.0,0.0,0.0,0.0,0.0,0.0,0.0,0.0,0.0,0.0,0.0,0.0,0.0,0.0,0.0,0.0,0.0,0.0,0.0,0.0,0.0,0.0,0.0,0.0,0.0,0.0,0.0,0.0,0.0,0.0,0.0,0.0,0.0,0.0,0.0,0.0,0.0,0.0,0.0,0.0,0.0,0.0,0.0,0.0,0.0,0.0,0.0,0.0,0.0,0.0,0.0,0.0,0.0,0.0,0.0,0.0,0.0,0.0,0.0,0.0,0.0,0.0,0.0,0.0,0.0,0.0,0.0,0.0,0.0,0.0,0.0,0.0,0.0,0.0,0.0,0.0,0.0,0.0,0.0,0.0,0.0,0.0,0.0,0.0,0.0,0.0,0.0,0.0,0.0,0.0,0.0,0.0,0.0,0.0,0.0,0.0,0.0,0.0,0.0,0.0,0.0,0.0,0.0,0.0,0.0,2.2204,2.2393,2.3307,2.3191,2.1964,2.1315,2.0866,0.0,0.0,0.0,0.0,0.0,0.0,0.0,0.0,0.0,0.0,0.0,0.0,0.0,0.0,0.0,0.0,0.0,0.0,0.0,0.0,0.0,0.0,0.0,0.0,0.0,0.0,0.0,0.0,0.0,0.0,0.0,0.0,0.0,0.0,0.0,0.0,0.0,0.0,0.0,0.0,0.0,0.0,0.0,0.0,0.0,0.0,0.0,0.0,0.0,0.0,0.0,0.0,0.0,0.0,0.0,0.0,0.0,0.0,0.0,0.0,0.0,0.0,0.0,0.0,0.0,0.0,0.0,0.0,0.0,0.0,0.0,0.0,0.0,0.0,0.0,0.0,0.0,0.0,0.0,0.0,0.0,0.0,0.0,0.0,0.0,0.0,0.0,0.0,0.0,0.0,0.0,0.0,0.0,0.0,0.0,0.0,0.0,0.0,0.0,0.0,0.0,0.0,0.0,0.0,0.0,0.0,0.0,0.0,2.3193,2.3598,2.3387,2.3492,2.3833,2.2975,2.1984,0.0,0.0,0.0,0.0,0.0,0.0,0.0,0.0,0.0,0.0,0.0,0.0,0.0,0.0,0.0,0.0,0.0,0.0,0.0,0.0,0.0,0.0,0.0,0.0,0.0,0.0,0.0,0.0,0.0,0.0,0.0,0.0,0.0,0.0,0.0,0.0,0.0,0.0,0.0,0.0,0.0,0.0,0.0,0.0,0.0,0.0,0.0,0.0,0.0,0.0,0.0,0.0,0.0,0.0,0.0,0.0,0.0,0.0,0.0,0.0,0.0,0.0,0.0,0.0,0.0,0.0,0.0,0.0,0.0,0.0,0.0,0.0,0.0,0.0,0.0,0.0,0.0,0.0,0.0,0.0,0.0,0.0,0.0,0.0,0.0,0.0,0.0,0.0,0.0,0.0,0.0,0.0,0.0,0.0,0.0,0.0,0.0,0.0,0.0,0.0,0.0,0.0,0.0,0.0,0.0,0.0,0.0,0.0,2.4728,2.4914,2.6344,2.6651,2.5723,2.2734,2.1246,0.0,0.0,0.0,0.0,0.0,0.0,0.0,0.0,0.0,0.0,0.0,0.0,0.0,0.0,0.0,0.0,0.0,0.0,0.0,0.0,0.0,0.0,0.0,0.0,0.0,0.0,0.0,0.0,0.0,0.0,0.0,0.0,0.0,0.0,0.0,0.0,0.0,0.0,0.0,0.0,0.0,0.0,0.0,0.0,0.0,0.0,0.0,0.0,2.2224,0.0,0.0,0.0,0.0,0.0,0.0,0.0,0.0,0.0,0.0,0.0,0.0,0.0,0.0,0.0,0.0,0.0,0.0,0.0,0.0,0.0,0.0,0.0,0.0,0.0,0.0,0.0,0.0,0.0,0.0,0.0,0.0,0.0,0.0,0.0,0.0,0.0,0.0,0.0,0.0,0.0,0.0,0.0,0.0,0.0,0.0,0.0,0.0,0.0,0.0,0.0,0.0,0.0,0.0,0.0,0.0,0.0,0.0,0.0,2.6323,2.6643,2.7387,2.7305,2.6218,2.4063,2.2782,0.0,0.0,0.0,0.0,0.0,0.0,0.0,0.0,0.0,0.0,0.0,0.0,0.0,0.0,0.0,0.0,0.0,0.0,0.0,0.0,0.0,0.0,0.0,0.0,0.0,0.0,0.0,0.0,0.0,0.0,0.0,0.0,0.0,0.0,0.0,0.0,0.0,0.0,0.0,0.0,0.0,0.0,0.0,0.0,0.0,0.0,0.0,0.0,0.0,0.0,0.0,0.0,0.0,0.0,0.0,0.0,0.0,0.0,0.0,0.0,0.0,0.0,0.0,0.0,0.0,0.0,0.0,0.0,0.0,0.0,0.0,0.0,0.0,0.0,0.0,0.0,0.0,0.0,0.0,0.0,0.0,0.0,0.0,0.0,0.0,0.0,0.0,0.0,0.0,0.0,0.0,0.0,0.0,0.0,0.0,0.0,0.0,0.0,0.0,0.0,0.0,0.0,0.0,0.0,0.0,0.0,0.0,2.6626,2.7658,2.8193,2.7775,2.7219,2.6482,2.576,2.4872,2.3727,0.0,0.0,0.0,0.0,0.0,0.0,0.0,0.0,0.0,0.0,0.0,0.0,0.0,0.0,0.0,0.0,0.0,0.0,0.0,0.0,0.0,0.0,0.0,0.0,0.0,0.0,0.0,0.0,0.0,0.0,0.0,0.0,0.0,0.0,0.0,0.0,0.0,0.0,1.9968,2.0587,0.0,0.0,0.0,0.0,0.0,0.0,0.0,0.0,2.343,0.0,0.0,0.0,0.0,0.0,0.0,0.0,0.0,0.0,0.0,0.0,0.0,0.0,0.0,0.0,0.0,0.0,0.0,0.0,0.0,0.0,0.0,0.0,0.0,0.0,0.0,0.0,0.0,0.0,0.0,0.0,0.0,0.0,0.0,0.0,0.0,0.0,0.0,0.0,0.0,0.0,0.0,0.0,0.0,0.0,0.0,0.0,0.0,0.0,0.0,0.0,0.0,0.0,0.0,0.0,0.0,2.5894,2.7099,2.8098,2.8838,2.8774,2.8349,2.7532,2.6474,2.5337,2.4209,0.0,0.0,0.0,0.0,0.0,0.0,0.0,0.0,0.0,0.0,0.0,0.0,0.0,0.0,0.0,0.0,0.0,0.0,0.0,0.0,0.0,0.0,0.0,0.0,0.0,0.0,0.0,0.0,0.0,0.0,0.0,0.0,0.0,0.0,0.0,0.0,0.0,0.0,0.0,2.1944,2.2842,0.0,0.0,0.0,0.0,0.0,0.0,0.0,0.0,2.4455,0.0,0.0,0.0,0.0,0.0,0.0,0.0,0.0,0.0,0.0,0.0,0.0,0.0,0.0,0.0,0.0,0.0,0.0,0.0,0.0,0.0,0.0,0.0,0.0,0.0,0.0,0.0,0.0,0.0,0.0,0.0,0.0,0.0,0.0,0.0,0.0,0.0,0.0,0.0,0.0,0.0,0.0,0.0,0.0,0.0,0.0,0.0,0.0,0.0,0.0,0.0,0.0,0.0,0.0,0.0,2.6392,2.8486,2.9576,2.9567,2.9948,2.9397,2.784,2.7369,2.6063,0.0,0.0,0.0,0.0,0.0,0.0,0.0,0.0,0.0,0.0,0.0,0.0,0.0,0.0,0.0,0.0,0.0,0.0,0.0,0.0,0.0,0.0,0.0,0.0,0.0,0.0,0.0,0.0,0.0,0.0,0.0,0.0,0.0,0.0,0.0,0.0,0.0,0.0,0.0,0.0,2.2962,2.364,2.4933,0.0,0.0,0.0,0.0,0.0,0.0,2.5752,2.5232,0.0,0.0,0.0,0.0,0.0,0.0,0.0,0.0,0.0,0.0,0.0,0.0,0.0,0.0,0.0,0.0,0.0,0.0,0.0,0.0,0.0,0.0,0.0,0.0,0.0,0.0,0.0,0.0,0.0,0.0,0.0,0.0,0.0,0.0,0.0,0.0,0.0,0.0,0.0,0.0,0.0,0.0,0.0,0.0,0.0,0.0,0.0,0.0,0.0,0.0,0.0,0.0,0.0,0.0,0.0,2.6979,2.96,3.0751,3.0369,3.0751,3.0108,2.8313,2.8077,2.6733,0.0,0.0,0.0,0.0,0.0,0.0,0.0,0.0,0.0,0.0,0.0,0.0,0.0,0.0,0.0,0.0,0.0,0.0,0.0,0.0,0.0,0.0,0.0,0.0,0.0,0.0,0.0,0.0,0.0,0.0,0.0,0.0,0.0,0.0,0.0,0.0,0.0,0.0,0.0,0.0,0.0,2.4298,2.5603,2.6243,0.0,0.0,0.0,0.0,2.6806,2.6243,0.0,0.0,0.0,0.0,0.0,0.0,0.0,0.0,0.0,0.0,0.0,0.0,0.0,0.0,0.0,0.0,0.0,0.0,0.0,0.0,0.0,0.0,0.0,0.0,0.0,0.0,0.0,0.0,0.0,0.0,0.0,0.0,0.0,0.0,0.0,0.0,0.0,0.0,0.0,0.0,0.0,0.0,0.0,0.0,0.0,0.0,0.0,0.0,0.0,0.0,0.0,0.0,0.0,0.0,0.0,0.0,2.7637,2.9345,3.0504,3.1021,3.0504,3.0098,2.9818,2.8134,2.7062,0.0,0.0,0.0,0.0,0.0,0.0,0.0,0.0,0.0,0.0,0.0,0.0,0.0,0.0,0.0,0.0,0.0,0.0,0.0,0.0,0.0,0.0,0.0,0.0,0.0,0.0,0.0,0.0,0.0,0.0,0.0,0.0,0.0,0.0,0.0,0.0,0.0,0.0,0.0,0.0,0.0,2.4963,2.6315,2.6542,2.6794,0.0,0.0,2.7495,2.7495,2.6926,0.0,0.0,0.0,0.0,0.0,0.0,0.0,0.0,0.0,0.0,0.0,0.0,0.0,0.0,0.0,0.0,0.0,0.0,0.0,0.0,0.0,0.0,0.0,0.0,0.0,0.0,0.0,0.0,0.0,0.0,0.0,0.0,0.0,0.0,0.0,0.0,0.0,0.0,0.0,0.0,0.0,0.0,0.0,0.0,0.0,0.0,0.0,0.0,0.0,0.0,0.0,0.0,0.0,0.0,0.0,2.6808,2.8475,3.0378,3.1505,3.1819,3.1505,3.0783,2.9606,2.8456,2.725,0.0,0.0,0.0,0.0,0.0,0.0,0.0,0.0,0.0,0.0,0.0,0.0,0.0,0.0,0.0,0.0,0.0,0.0,0.0,0.0,0.0,0.0,0.0,0.0,0.0,0.0,0.0,0.0,0.0,0.0,0.0,0.0,0.0,0.0,0.0,0.0,0.0,0.0,0.0,0.0,0.0,0.0,2.6973,2.747,0.0,0.0,0.0,2.8051,2.7645,0.0,0.0,0.0,0.0,0.0,0.0,0.0,0.0,0.0,0.0,0.0,0.0,0.0,0.0,0.0,0.0,0.0,0.0,0.0,0.0,0.0,0.0,0.0,0.0,0.0,0.0,0.0,0.0,0.0,0.0,0.0,0.0,0.0,0.0,0.0,0.0,0.0,0.0,0.0,0.0,0.0,0.0,0.0,0.0,0.0,0.0,0.0,0.0,0.0,0.0,0.0,0.0,0.0,0.0,0.0,0.0,0.0,2.8976,3.1007,3.2124,3.2293,3.2124,3.1359,3.0018,2.9259,0.0,0.0,0.0,0.0,0.0,0.0,0.0,0.0,0.0,0.0,0.0,0.0,0.0,0.0,0.0,0.0,0.0,0.0,0.0,0.0,0.0,0.0,0.0,0.0,0.0,0.0,0.0,1.3454,0.0,0.0,0.0,0.0,0.0,0.0,0.0,0.0,0.0,0.0,0.0,0.0,0.0,0.0,2.6273,2.7435,2.8021,2.8231,0.0,0.0,2.8487,2.8141,2.7944,2.7854,0.0,0.0,0.0,0.0,0.0,0.0,0.0,0.0,0.0,0.0,0.0,0.0,0.0,0.0,0.0,0.0,0.0,0.0,0.0,0.0,0.0,0.0,0.0,0.0,0.0,0.0,0.0,0.0,0.0,0.0,0.0,0.0,0.0,0.0,0.0,0.0,0.0,0.0,0.0,0.0,0.0,0.0,0.0,0.0,0.0,0.0,0.0,0.0,0.0,0.0,0.0,0.0,0.0,0.0,2.7435,2.8976,3.049,3.1616,3.2226,3.1596,3.1529,3.2029,3.0898,3.0105,0.0,0.0,0.0,0.0,0.0,0.0,0.0,0.0,0.0,0.0,0.0,0.0,0.0,0.0,0.0,0.0,0.0,0.0,0.0,0.0,0.0,0.0,0.0,0.0,0.0,0.0,0.0,0.0,0.0,0.0,0.0,0.0,0.0,0.0,0.0,0.0,0.0,0.0,0.0,0.0,0.0,2.6794,2.7495,2.7645,2.7884,0.0,2.8577,2.8786,2.9368,2.8919,2.8547,2.8547,0.0,0.0,0.0,0.0,0.0,0.0,0.0,0.0,0.0,0.0,0.0,0.0,0.0,0.0,0.0,0.0,0.0,0.0,0.0,0.0,0.0,0.0,0.0,0.0,0.0,0.0,0.0,0.0,0.0,0.0,0.0,0.0,0.0,0.0,0.0,0.0,0.0,0.0,0.0,0.0,0.0,0.0,0.0,0.0,0.0,0.0,0.0,0.0,0.0,0.0,0.0,0.0,0.0,2.8137,2.9668,3.0693,3.1572,3.2226,3.1582,3.1133,3.1085,3.0588,3.0071,0.0,0.0,0.0,0.0,0.0,0.0,0.0,0.0,0.0,0.0,0.0,0.0,0.0,0.0,0.0,0.0,0.0,0.0,0.0,0.0,0.0,0.0,0.0,0.0,0.0,0.0,0.0,0.0,1.7617,1.8873,1.9681,0.0,0.0,0.0,0.0,0.0,0.0,0.0,0.0,0.0,0.0,2.7452,2.8111,2.8889,0.0,0.0,2.9535,2.9714,2.9608,2.9398,2.9028,2.8509,2.7737,0.0,0.0,0.0,0.0,0.0,0.0,0.0,0.0,0.0,0.0,0.0,0.0,0.0,0.0,0.0,0.0,0.0,0.0,0.0,0.0,0.0,0.0,0.0,0.0,0.0,0.0,0.0,0.0,0.0,0.0,0.0,0.0,0.0,0.0,0.0,0.0,0.0,0.0,0.0,0.0,0.0,0.0,0.0,0.0,0.0,0.0,0.0,0.0,0.0,0.0,0.0,0.0,2.8568,3.0098,3.0818,3.1437,3.1955,3.1471,3.0988,3.0613,3.0759,3.057,0.0,0.0,0.0,0.0,0.0,0.0,0.0,0.0,0.0,0.0,0.0,0.0,0.0,0.0,0.0,0.0,0.0,0.0,0.0,0.0,0.0,0.0,0.0,0.0,0.0,0.0,0.0,0.0,1.9053,2.0537,2.1854,0.0,0.0,0.0,0.0,0.0,0.0,0.0,0.0,0.0,0.0,2.8141,2.8816,2.9834,3.0446,3.0193,3.0702,3.0915,3.0435,3.0427,3.0166,2.929,0.0,0.0,0.0,0.0,0.0,0.0,0.0,0.0,0.0,0.0,0.0,0.0,0.0,0.0,0.0,0.0,0.0,0.0,0.0,0.0,0.0,0.0,0.0,0.0,0.0,0.0,0.0,1.5619,0.0,0.0,1.6693,0.0,0.0,0.0,0.0,0.0,0.0,0.0,0.0,0.0,0.0,0.0,0.0,0.0,0.0,0.0,0.0,0.0,0.0,0.0,0.0,0.0,0.0,2.8577,3.0108,3.0818,3.119,3.1224,3.119,3.1181,3.1161,3.1857,3.1891,3.1137,0.0,0.0,0.0,0.0,0.0,0.0,0.0,0.0,0.0,0.0,0.0,0.0,0.0,0.0,0.0,0.0,0.0,0.0,0.0,0.0,0.0,0.0,0.0,0.0,0.0,0.0,1.7929,1.9531,2.1236,0.0,0.0,0.0,0.0,0.0,0.0,0.0,0.0,0.0,2.8368,2.8564,2.8816,2.9518,3.0103,3.0791,3.1391,3.2033,3.2391,3.2114,3.225,3.2138,0.0,0.0,0.0,0.0,0.0,0.0,0.0,0.0,0.0,0.0,0.0,0.0,0.0,0.0,0.0,0.0,0.0,0.0,0.0,0.0,0.0,0.0,0.0,0.0,0.0,0.0,0.0,1.8124,1.8402,0.0,0.0,0.0,0.0,0.0,0.0,0.0,0.0,0.0,0.0,0.0,2.527,2.5752,0.0,0.0,0.0,0.0,0.0,0.0,0.0,0.0,0.0,0.0,0.0,0.0,2.9591,3.0098,3.0809,3.119,3.119,3.119,3.119,3.119,3.1437,3.1437,3.12,0.0,0.0,0.0,0.0,0.0,0.0,0.0,0.0,0.0,0.0,0.0,0.0,0.0,0.0,0.0,0.0,0.0,0.0,0.0,0.0,0.0,0.0,0.0,0.0,0.0,2.1046,0.0,0.0,0.0,0.0,0.0,0.0,0.0,0.0,0.0,0.0,2.7739,2.859,2.8607,2.9325,3.0103,3.0777,3.1405,3.2228,0.0,0.0,0.0,0.0,0.0,0.0,0.0,0.0,0.0,0.0,0.0,0.0,0.0,2.8521,2.809,2.5752,2.5335,2.5561,2.6314,0.0,0.0,0.0,0.0,0.0,0.0,0.0,0.0,0.0,0.0,0.0,0.0,0.0,0.0,2.0697,2.082,2.1019,0.0,0.0,0.0,0.0,0.0,0.0,0.0,0.0,2.6717,2.7427,2.719,2.7672,2.7875,2.7875,2.7613,2.7013,0.0,0.0,0.0,0.0,0.0,0.0,0.0,0.0,3.0243,3.0514,3.12,3.1572,3.1606,3.1843,3.1968,3.1968,3.1968,3.1968,3.1968,3.1708,3.0778,0.0,0.0,0.0,0.0,0.0,0.0,0.0,0.0,0.0,0.0,0.0,0.0,0.0,0.0,0.0,0.0,0.0,0.0,0.0,0.0,0.0,0.0,0.0,2.3161,0.0,0.0,0.0,0.0,0.0,0.0,0.0,0.0,0.0,2.7692,2.877,2.9698,2.9924,3.0672,3.1435,3.2123,0.0,0.0,0.0,0.0,0.0,0.0,0.0,3.4168,3.3929,3.3647,3.3058,3.1983,3.1779,3.1458,3.0528,0.0,0.0,2.7475,2.6892,2.7025,2.7989,2.8165,2.8341,2.8875,2.9402,2.981,0.0,0.0,0.0,0.0,1.9963,0.0,0.0,0.0,2.2636,2.291,0.0,2.3903,0.0,0.0,0.0,0.0,2.5845,2.7918,0.0,0.0,3.0006,3.0784,3.0065,3.0065,3.0132,3.0098,2.9407,2.9044,2.901,2.8272,2.7891,0.0,0.0,0.0,0.0,0.0,3.0538,3.1234,3.1955,3.2327,3.2361,3.3017,3.3379,3.3345,3.3423,3.3413,3.3423,3.2791,3.2395,3.2259,2.9505,0.0,0.0,0.0,0.0,0.0,0.0,0.0,0.0,0.0,0.0,0.0,0.0,0.0,0.0,0.0,0.0,0.0,0.0,0.0,0.0,2.4245,0.0,0.0,0.0,0.0,0.0,0.0,0.0,0.0,0.0,2.9698,2.9728,2.9728,3.0386,3.2183,0.0,0.0,0.0,0.0,3.531,3.4787,3.5775,3.6251,3.5381,3.6934,3.7979,3.7102,0.0,0.0,3.4845,3.3746,3.2876,3.1711,3.1553,3.116,3.0156,2.9434,2.9233,2.9829,2.998,3.0131,3.0613,3.1215,3.1687,2.3819,0.0,0.0,0.0,0.0,2.3203,2.36,2.4133,2.4513,2.4604,2.4547,2.5333,0.0,0.0,0.0,0.0,0.0,0.0,2.8874,2.873,2.9871,3.0311,3.0123,3.0639,3.0886,3.0886,3.0659,3.0591,3.0557,3.0345,2.9963,2.9456,0.0,0.0,0.0,0.0,3.1775,3.2022,3.2713,3.3085,3.3085,3.3277,3.3389,3.3389,3.3897,3.4201,3.4212,3.4495,3.4167,3.3119,3.1502,0.0,0.0,0.0,0.0,0.0,0.0,0.0,0.0,0.0,0.0,0.0,0.0,0.0,0.0,0.0,0.0,0.0,0.0,0.0,2.6361,2.6598,2.6584,0.0,0.0,0.0,0.0,0.0,0.0,0.0,0.0,0.0,3.2332,3.1958,3.1704,0.0,0.0,3.3634,3.4771,3.5669,3.6626,3.7823,3.8332,0.0,3.8827,3.8422,3.7994,3.7555,3.6783,3.5927,3.5174,3.4625,3.4161,3.3815,3.3445,3.3194,3.3244,3.2169,3.1667,3.2466,3.2717,3.2893,3.3398,3.3649,3.3922,2.5914,2.5147,2.4627,2.4554,2.4848,2.5102,2.5426,2.5868,2.6605,2.6771,2.6564,2.769,2.7773,2.7151,2.8238,0.0,0.0,0.0,2.9856,2.9914,3.0354,3.0673,3.0987,3.1427,3.1775,3.207,3.207,3.207,3.207,3.207,3.1867,3.1417,0.0,3.1326,3.207,3.252,3.2757,3.2757,3.3467,3.3829,3.3863,3.4123,3.4123,3.3863,3.4269,3.4652,3.4901,3.5081,3.5036,3.4742,3.3244,3.1631,0.0,0.0,0.0,0.0,0.0,0.0,0.0,0.0,0.0,0.0,0.0,2.1973,2.2075,0.0,0.0,0.0,2.6904,2.8179,2.8635,2.8265,0.0,0.0,0.0,0.0,0.0,0.0,0.0,3.0011,3.1898,3.3544,3.4203,3.4382,3.4396,3.4247,3.4951,3.5818,3.6896,0.0,3.8362,3.9272,3.9649,3.9771,3.9719,3.9353,3.8993,3.892,3.83,3.7585,3.713,3.6858,3.6562,3.6098,3.5755,3.5629,3.5956,3.5177,3.4424,3.4527,3.4527,3.4778,3.5506,3.5705,3.5832,2.7764,2.7632,2.6422,2.5872,2.5824,2.6435,2.6674,2.6831,2.8494,2.8855,2.8402,3.023,3.0345,2.9247,2.9939,0.0,3.0311,3.1021,3.1369,3.1403,3.1369,3.1742,3.2395,3.2395,3.2757,3.3379,3.3389,3.3389,3.3379,3.3389,3.3457,3.348,3.2858,3.2858,3.3379,3.3446,3.3525,3.3592,3.4303,3.4709,3.4776,3.5442,3.5453,3.472,3.4686,3.5013,3.5645,3.5047,3.5362,3.6716,3.481,3.3322,3.2564,0.0,0.0,0.0,0.0,0.0,0.0,0.0,0.0,0.0,0.0,0.0,0.0,0.0,0.0,2.7538,2.8786,0.0,3.0517,2.9579,0.0,0.0,0.0,3.0313,3.154,3.2303,3.2976,3.3574,0.0,0.0,3.5669,3.6836,3.7913,3.8631,3.8589,3.8721,3.9391,4.0038,4.0367,3.993,4.0397,4.0448,3.9964,4.0213,4.0519,4.0416,4.0977,4.048,3.962,3.9411,3.9084,3.8035,3.7965,3.7939,3.7965,3.7789,3.7513,3.6058,3.5759,3.6033,3.6935,3.7185,3.7336,2.9129,2.9069,2.88,2.8051,2.7136,2.7315,2.7375,2.74,2.7831,2.7923,2.7875,2.9241,3.0143,3.0726,3.1437,3.1785,3.1809,3.2544,3.2882,3.2871,3.2871,3.2983,3.3152,3.3152,3.3254,3.3389,3.3389,3.3389,3.3389,3.3389,3.3683,3.4235,3.4641,3.4326,3.3446,3.3964,3.4506,3.507,3.587,3.6513,3.7077,3.7268,3.7009,3.6276,3.6254,3.6355,3.6524,3.6344,3.6682,3.755,3.6581,3.5622,3.4833,3.2723,0.0,0.0,0.0,0.0,0.0,0.0,0.0,0.0,0.0,2.6357,2.6737,0.0,2.9141,0.0,3.0816,3.1791,3.2057,3.1763,0.0,0.0,3.1585,3.2138,3.2946,3.4083,3.4845,3.5011,3.6464,3.7541,3.7674,3.8871,4.0146,4.1242,4.0127,3.9391,4.0098,4.1194,4.2062,4.2363,4.324,4.4026,4.3419,4.236,4.1083,4.0147,3.9416,3.8748,3.8481,3.8432,3.8334,3.8064,3.799,3.799,3.804,3.799,3.809,3.8015,3.7739,3.7487,3.7764,3.7814,3.799,2.9608,2.9608,2.9608,2.9159,2.8483,2.847,2.8483,2.8535,2.9087,2.9317,2.9403,3.0644,3.1577,3.2195,3.2588,3.2791,3.2824,3.322,3.3389,3.3389,3.3389,3.3751,3.4359,3.4393,3.4731,3.5374,3.5408,3.5419,3.5419,3.5408,3.5611,3.6028,3.6422,3.6219,3.5442,3.5825,3.6219,3.6625,3.7077,3.7483,3.7877,3.791,3.7719,3.728,3.728,3.7291,3.728,3.6987,3.6998,3.7381,3.6671,3.605,3.56,3.3829,3.2442,0.0,0.0,0.0,0.0,0.0,0.0,0.0,0.0,0.0,0.0,0.0,3.1427,3.2063,3.2628,3.3115,3.3455,3.2898,3.2691,3.323,3.3619,3.4203,3.513,3.6417,3.7238,3.7255,3.8691,3.9727,3.9738,4.0625,4.1673,4.2661,4.2102,4.1724,4.2102,4.2791,4.3289,4.3405,4.3999,4.4006,4.3066,4.1515,4.0221,3.955,3.9041,3.8743,3.8768,3.8768,3.8743,3.8743,3.8743,3.8743,3.8743,3.8768,3.8894,3.9095,3.8994,3.8768,3.8768,3.8768,3.8868,2.9877,2.9967,2.9967,3.0013,3.0101,3.0087,2.9921,2.9659,3.0779,3.1305,3.1462,3.2552,3.3047,3.3156,3.3443,3.3543,3.3587,3.382,3.3964,3.3987,3.3998,3.4664,3.587,3.5904,3.6625,3.7877,3.791,3.791,3.791,3.791,3.791,3.791,3.799,3.8046,3.8046,3.8125,3.8125,3.8058,3.8125,3.8181,3.8193,3.8193,3.8113,3.8046,3.8058,3.8058,3.8012,3.7427,3.7134,3.7156,3.64,3.5949,3.5971,3.4562,3.3457,0.0,3.1562,0.0,0.0,0.0,0.0,0.0,0.0,0.0,0.0,3.2079,3.3305,3.4566,3.4298,3.4283,3.4799,3.3808,3.3828,3.5519,3.5908,3.6447,3.7554,3.8823,3.966,3.966,4.0775,4.1523,4.1643,4.2211,4.287,4.3489,4.3967,4.4237,4.4476,4.4526,4.4415,4.3827,4.3733,4.3221,4.1026,3.9809,3.9372,3.9196,3.9372,3.9697,3.9622,3.9647,3.9672,3.9672,3.9622,3.9647,3.9697,3.9672,3.9672,3.9647,3.9622,3.9597,3.9622,3.9597,3.9697,3.1465,3.1944,3.1958,3.2258,3.2736,3.2766,3.1554,2.9621,2.9873,3.0221,3.0691,3.0942,3.1317,3.1904,3.3611,3.4352,3.4475,3.6248,3.7031,3.7065,3.7077,3.72,3.7471,3.7471,3.7618,3.7877,3.791,3.791,3.791,3.791,3.791,3.7922,3.8497,3.8768,3.8802,0.0,0.0,0.0,3.9377,3.9673,3.966,3.9694,3.9389,3.8814,3.8768,0.0,3.8802,3.8679,3.8848,3.9402,3.8193,0.0,0.0,0.0,0.0,0.0,0.0,0.0,0.0,0.0,0.0,0.0,3.4655,3.4578,3.4599,3.4824,3.5091,3.5376,3.5728,3.5994,3.6127,3.6375,3.661,3.7015,3.8033,3.8763,3.9062,4.0217,4.1044,4.1044,4.1733,4.2391,4.288,4.3539,4.4167,4.4766,4.5035,4.5334,4.5822,4.5882,4.5857,4.573,4.5046,4.3978,4.1639,4.1057,4.0461,3.9905,3.9597,3.9697,3.9697,3.9697,3.9697,3.9697,3.9697,3.9697,3.9697,3.9697,3.9697,3.9697,3.9697,3.9697,3.9697,3.9697,3.9697,3.2691,3.2991,3.2991,3.3185,0.0,3.3514,3.2751,3.1538,3.1893,3.2407,3.2997,3.301,3.3404,3.4078,3.5144,3.5852,3.6269,3.7408,3.791,3.791,3.791,3.8113,3.8464,3.8464,3.8633,3.8971,3.8983,3.8983,3.8983,3.8971,3.8971,3.8971,3.9389,3.9525,3.9559,4.0269,4.0269,3.9559,3.9931,4.0113,4.0113,4.0472,4.046,4.0121,4.0426,0.0,0.0,0.0,0.0,0.0,0.0,0.0,0.0,3.8079,3.7483,3.7821,3.7166,3.6896,3.7234,3.6961,3.7215,3.828,3.8688,3.8103,3.6273,3.6795,3.736,3.7672,3.7638,3.7982,3.9048,3.8719,3.8661,3.932,3.9978,4.0397,4.0487,4.1283,4.1871,4.2002,4.275,4.3479,4.3758,4.4356,4.5035,4.5663,4.5792,4.6052,4.66,4.651,4.604,4.5049,4.3495,4.2155,4.0995,4.0668,4.0516,3.9852,3.9697,3.9697,3.9697,3.9697,3.9697,3.9697,3.9697,3.9697,3.9697,3.9697,3.9772,4.0023,4.0099,4.0199,4.0349,4.0074,3.9798,3.3574,3.3664,3.3679,3.3739,3.3844,3.3844,3.3844,3.386,3.418,0.0,0.0,3.5212,3.5573,3.6148,3.6529,3.7067,3.7718,3.813,3.8294,3.8294,3.8294,3.8599,3.9186,3.922,3.9525,4.0079,4.0235,4.0269,4.0316,4.0417,4.0485,4.0485,4.0485,4.0506,4.0553,4.1204,4.1305,4.0709,4.0675,4.0675,4.0709,4.1407,4.1813,4.1813,4.2401,4.2367,4.1597,4.1597,4.1238,4.0553,4.0358,4.0358,4.0438,3.9795,3.9445,3.9546,3.9005,3.8937,3.9534,3.909,3.9526,4.1279,4.2185,4.1258,3.7859,3.8753,3.978,4.0423,3.9703,4.0,4.1847,4.0659,4.0187,4.1283,4.1493,4.1553,4.1613,4.2271,4.275,4.286,4.3748,4.4536,4.4685,4.5155,4.5723,4.63,4.648,4.6659,4.71,4.6839,4.5851,4.3953,4.2325,4.0542,3.9826,3.9774,3.9697,3.9723,3.9697,3.9697,3.9697,3.9697,3.9697,3.9697,3.9773,3.9848,3.9848,3.9998,4.0149,4.0576,4.0625,4.0775,4.1102,4.06,4.0199,3.3859,3.4368,3.4368,3.4697,3.522,3.522,3.5204,3.513,3.4102,3.3713,3.3804,3.3819,3.3834,3.4074,3.5954,3.6837,3.7048,3.8918,3.9795,3.9795,3.9795,3.9863,3.9943,3.9943,4.0011,4.0146,4.073,4.1068,4.1102,4.169,4.1995,4.1961,4.1995,4.1995,4.2063,4.2713,4.3051,4.2949,4.2949,4.2916,4.2949,4.3721,4.4127,4.4141,4.4195,4.391,4.3105,4.3118,4.2746,4.2029,4.1407,4.1339,4.1927,4.1339,4.117,4.1758,4.1745,4.1758,4.186,4.1747,4.1821,4.2185,4.345,4.3477,4.1714,4.1688,4.2105,4.2708,4.1946,4.1761,4.2521,4.1766,4.1231,4.1463,4.1961,4.2261,4.2351,4.3319,4.3988,4.4018,4.4676,4.5373,4.5822,4.6061,4.639,4.695,4.707,4.7189,4.7249,4.7249,4.6145,4.4135,4.3242,4.2059,4.0236,3.9697,3.9697,3.9697,3.9697,3.9722,3.9772,3.9772,3.9772,3.9747,4.0124,4.0375,4.0425,4.0775,4.1001,4.1177,4.1202,4.1252,4.1403,4.1227,4.1102,3.4771,3.5056,3.5056,3.522,3.5489,3.5489,3.5489,3.5459,3.4845,3.4592,3.4592,3.4592,3.4813,3.5278,3.6707,3.7578,3.8008,3.943,4.0113,4.0134,4.0506,4.0696,4.073,4.1115,4.1284,4.1331,4.1623,4.1779,4.1847,4.213,4.2286,4.232,4.2692,4.3098,4.3552,4.4282,4.4843,4.5215,4.4451,4.4045,4.4093,4.4804,4.5196,4.5196,4.5582,4.565,4.5263,4.5263,4.5094,4.477,4.4418,4.4384,4.4702,4.4418,4.4398,4.4702,4.4736,4.4736,4.4756,4.4736,4.4736,4.477,4.5379,4.5514,4.479,4.4318,4.4171,4.4438,4.3654,4.3399,4.3938,4.3239,4.2781,4.2969,4.324,4.3569,4.3948,4.4407,4.4805,4.4895,4.5424,4.5963,4.6271,4.66,4.6899,4.7279,4.7309,4.7309,4.7266,4.666,4.5644,4.3811,4.2377,4.1069,3.9904,3.9697,3.9697,3.9697,3.9697,3.9823,4.0049,4.0149,4.0249,4.0499,4.0775,4.0901,4.0951,4.11,4.1403,4.1731,4.1781,4.1856,4.2108,4.2233,4.2133,3.5489,3.5489,3.5489,3.5489,3.5503,3.5669,3.5729,3.5729,3.5878,3.5938,3.5908,3.5623,3.589,3.6646,3.741,3.8139,3.8869,3.9666,4.0034,4.01,4.0622,4.0889,4.0963,4.1667,4.1997,4.2072,4.2375,4.2557,4.2557,4.274,4.2909,4.3132,4.3795,4.4485,4.5122,4.5805,4.6466,4.6955,4.609,4.5514,4.5379,4.6075,4.6433,4.6466,4.6989,4.7206,4.7056,4.7056,4.7003,4.6819,4.6786,4.6786,4.6786,4.6786,4.6786,4.6786,4.6786,4.6786,4.6786,4.6786,4.6786,4.6786,4.6955,4.7056,4.7012,4.6779,4.6388,4.6029,4.5244,4.5041,4.5625,4.4849,4.4418,4.481,4.4648,4.4676,4.5185,4.5424,4.5514,4.5603,4.6112,4.651,4.6629,4.698,4.7279,4.7279,4.7309,4.7309,4.7179,4.6003,4.4558,4.3456,4.1568,4.0211,3.9826,3.9697,3.9697,3.9697,3.9823,4.0074,4.0374,4.0549,4.08,4.1152,4.1403,4.1478,4.1503,4.1654,4.1907,4.2286,4.2361,4.2487,4.2785,4.2914,4.2864,3.5457,3.5489,3.55,3.5489,3.5609,3.6164,3.6404,3.6447,3.6956,3.7208,3.7028,3.6028,3.5911,3.6529,3.7307,3.8013,3.8684,3.9481,3.9844,3.9841,3.9895,3.9927,4.0137,4.0838,4.1111,4.1399,4.2635,4.3288,4.3335,4.4012,4.4702,4.5399,4.6109,4.6481,4.6665,4.7327,4.7718,4.7819,4.8326,4.8274,4.7684,4.8342,4.868,4.8714,4.8748,4.8477,4.7819,4.777,4.7481,4.6853,4.6853,4.6819,4.6819,4.6819,4.6834,4.6819,4.6819,4.6786,4.6819,4.6786,4.6853,4.6819,4.7481,4.7853,4.7921,4.8956,4.9079,4.7931,4.687,4.6996,4.8045,4.6662,4.5815,4.6225,4.5687,4.5244,4.5424,4.5822,4.6211,4.6211,4.6749,4.7168,4.716,4.7249,4.7309,4.7309,4.7309,4.7222,4.6931,4.5252,4.3764,4.3313,4.2179,4.0945,4.0006,3.9697,3.9772,3.9772,4.0124,4.0449,4.07,4.1001,4.1302,4.1605,4.1806,4.2085,4.221,4.2487,4.276,4.2763,4.2838,4.2939,4.3014,4.3014,4.2939,3.4652,3.5224,3.5587,3.6089,3.6653,3.6926,3.7045,3.7075,3.7285,3.7387,3.7327,3.6819,3.6776,3.7066,3.7836,3.8364,3.8643,3.9408,3.9795,3.992,4.0776,4.1226,4.1348,4.2541,4.3145,4.316,4.3819,4.4113,4.4248,4.4871,4.565,4.6346,4.7075,4.7447,4.7515,4.8206,4.8545,4.8563,4.8849,4.8849,4.8631,4.8834,4.9018,4.9018,4.9018,4.8883,4.8597,4.8529,4.8409,4.8105,4.8105,4.8105,4.8105,4.8105,4.8105,4.8105,4.8105,4.8105,4.8105,4.8105,4.8308,4.8714,4.9018,4.9341,4.9814,5.0423,5.0457,4.9936,4.9497,4.9161,4.8559,4.769,4.7086,4.6641,4.6124,4.6022,4.6471,4.6689,4.689,4.6899,4.7108,4.7309,4.7309,4.7309,4.7309,4.7309,4.7287,4.704,4.6277,4.4604,4.3337,4.2398,4.1294,4.0364,3.9825,3.9998,4.0124,4.0249,4.06,4.1001,4.143,4.1605,4.1907,4.2208,4.2462,4.2612,4.2663,4.2788,4.3014,4.3014,4.3014,4.3014,4.3014,4.3014,4.3014,3.4546,3.5291,3.6019,3.6734,3.7417,3.7614,3.7674,3.7704,3.7883,3.7926,3.7956,3.7956,3.7926,3.8,3.8382,3.865,3.887,3.943,3.9705,3.9801,4.0927,4.1418,4.1559,4.2843,4.3646,4.3872,4.4259,4.4759,4.5215,4.594,4.6583,4.7158,4.7819,4.8191,4.8259,4.8781,4.9018,4.8984,4.9018,4.9018,4.8984,4.9018,4.9018,4.9018,4.9018,4.9018,4.9018,4.9018,4.9018,4.9018,4.9018,4.9018,4.9018,4.9018,4.9086,4.9323,4.9492,4.9627,4.9578,4.9612,4.983,5.0304,5.0405,5.0608,5.11,5.1404,5.1505,5.1455,5.1428,5.0619,4.9303,4.8739,4.8077,4.7126,4.6773,4.68,4.7198,4.7309,4.7279,4.7309,4.7279,4.7309,4.7309,4.7309,4.7309,4.7309,4.6975,4.677,4.5756,4.4349,4.2689,4.2133,4.0819,3.9826,3.9722,4.0098,4.0424,4.0675,4.1001,4.1681,4.216,4.2235,4.2411,4.2663,4.2914,4.2989,4.2914,4.2964,4.3014,4.3014,4.3039,4.3115,4.3263,4.3212,4.3341,3.5842,3.5978,3.6909,3.7327,3.743,3.811,3.8362,3.8392,3.899,3.9272,3.9212,3.9242,3.9302,3.9182,3.8707,3.8762,3.9301,3.9427,3.948,3.9468,3.9677,3.96,3.9565,4.0464,4.1338,4.2524,4.3858,4.5223,4.6621,4.7394,4.7819,4.7921,4.8529,4.8917,4.8917,4.8951,4.9018,4.9018,4.9018,4.9018,4.9052,4.9052,4.9086,4.912,4.9018,4.9018,4.9052,4.9018,4.9052,4.9052,4.912,4.9086,4.9052,4.9052,4.939,4.9999,5.066,5.1066,5.0998,5.0998,5.1066,5.1133,5.1167,5.1201,5.1438,5.1945,5.2266,5.2266,5.2063,5.1552,5.0654,4.9595,4.8952,4.844,4.7716,4.7314,4.7279,4.7309,4.7309,4.7309,4.7309,4.7309,4.7309,4.7309,4.7309,4.7084,4.6322,4.5824,4.6077,4.3882,4.2568,4.2352,4.1246,3.9722,3.9747,4.0275,4.0524,4.0902,4.1555,4.216,4.2336,4.2562,4.2813,4.2964,4.2989,4.3014,4.3014,4.3014,4.3039,4.3065,4.314,4.324,4.3689,4.374,4.384,3.4152,3.5292,3.6956,3.7631,3.7762,3.8644,3.9032,3.9062,3.9272,3.9421,3.9421,3.9421,3.9421,3.9391,3.9152,3.9152,3.9451,3.984,3.981,3.9631,4.0836,4.1306,4.1027,4.2191,4.3287,4.4074,4.4736,4.5901,4.7387,4.7785,4.8157,4.8563,4.8883,4.9018,4.9018,4.9018,4.9018,4.9018,4.9018,4.9221,4.9661,4.9695,4.9898,5.0322,4.9476,4.9221,4.9695,4.9695,4.9932,5.0389,5.0423,5.0389,5.0389,5.0389,5.0491,5.0811,5.1066,5.1201,5.1201,5.1201,5.1438,5.1844,5.1928,5.2148,5.2604,5.2909,5.3078,5.3028,5.2994,5.2513,5.1394,4.9981,4.8683,4.7948,4.7538,4.7309,4.7309,4.7309,4.7309,4.7309,4.7309,4.7309,4.7309,4.7309,4.7309,4.7266,4.6887,4.6166,4.4955,4.3527,4.2447,4.1348,4.0645,4.0198,4.0224,4.0675,4.1127,4.1658,4.2185,4.2562,4.2788,4.2788,4.2989,4.2989,4.3014,4.3065,4.3065,4.314,4.3165,4.3463,4.3514,4.3714,4.4188,4.4317,4.4389,3.3856,3.5292,3.6691,3.751,3.7881,3.8564,3.9101,3.9355,3.9421,3.9421,3.9421,3.9421,3.9421,3.9421,3.9421,3.9421,3.9451,3.9888,3.993,3.9865,4.1267,4.1832,4.1817,4.2678,4.3605,4.4462,4.534,4.6435,4.7693,4.8103,4.8529,4.8984,4.9018,4.912,4.9289,4.9357,4.9458,4.9661,4.9679,4.9999,5.0405,5.0439,5.066,5.0964,5.022,4.9932,5.0439,5.0439,5.0676,5.1133,5.1201,5.1201,5.1201,5.1438,5.1539,5.1573,5.181,5.1945,5.1945,5.1945,5.2148,5.2638,5.2706,5.2942,5.3433,5.3501,5.3501,5.3467,5.311,5.2557,5.1377,4.9821,4.8532,4.784,4.7495,4.7309,4.7309,4.7309,4.7309,4.7309,4.7309,4.7309,4.7309,4.7309,4.7309,4.7309,4.6997,4.5846,4.4512,4.3242,4.2447,4.0719,4.0514,4.0578,4.0777,4.1254,4.1555,4.2034,4.2462,4.2838,4.3014,4.3014,4.3014,4.3014,4.3039,4.3115,4.3165,4.324,4.3514,4.394,4.4116,4.4267,4.4589,4.4865,4.5016,3.5156,3.5914,3.6164,3.673,3.7472,3.7729,3.8379,3.9083,3.9265,3.9228,3.9192,3.9385,3.9511,3.9481,3.9601,3.9511,3.9601,3.969,3.9948,4.0325,4.068,4.1078,4.1535,4.1769,4.2289,4.3039,4.5092,4.6614,4.7507,4.8256,4.8754,4.8913,4.9032,4.9387,5.002,5.0071,5.0439,5.0863,5.0964,5.11,5.1201,5.1201,5.1269,5.1336,5.1269,5.1269,5.1269,5.1235,5.1269,5.1336,5.137,5.1235,5.1505,5.1945,5.2334,5.2435,5.301,5.3382,5.3399,5.3298,5.3264,5.3365,5.345,5.3399,5.3467,5.3501,5.3501,5.3365,5.261,5.1631,5.0703,4.9516,4.8718,4.8656,4.7785,4.7331,4.7309,4.7309,4.7309,4.7309,4.7309,4.7309,4.7309,4.7309,4.7309,4.7127,4.6528,4.5621,4.484,4.3313,4.1985,4.1376,4.1003,4.0853,4.1304,4.1756,4.2009,4.2286,4.2663,4.3014,4.3014,4.3014,4.3014,4.3014,4.3014,4.309,4.3463,4.3589,4.3991,4.4367,4.4543,4.4844,4.5167,4.5522,4.5698,3.3784,3.4137,3.4877,3.5339,3.5742,3.6397,3.6896,3.7291,3.7927,3.8323,3.8522,3.9565,4.0098,4.0217,4.0546,4.0756,4.0786,4.0756,4.0666,4.0696,4.1754,4.2192,4.2182,4.2521,4.3191,4.4165,4.5489,4.6331,4.6739,4.7454,4.7751,4.792,4.8942,4.9576,4.9876,5.0505,5.0998,5.1167,5.1201,5.1438,5.1894,5.1961,5.2216,5.2723,5.2773,5.2757,5.2773,5.2249,5.2216,5.2706,5.279,5.2807,5.2841,5.301,5.3145,5.3145,5.3348,5.3501,5.3501,5.3501,5.3501,5.3501,5.3501,5.3501,5.3501,5.3501,5.3501,5.3382,5.254,5.1722,5.1229,4.9832,4.8615,4.784,4.7495,4.7309,4.7309,4.7309,4.7309,4.7309,4.7309,4.7309,4.7309,4.7309,4.7309,4.7287,4.6844,4.6144,4.4396,4.3412,4.2223,4.1209,4.1044,4.1229,4.1708,4.216,4.2487,4.2562,4.2813,4.3014,4.3014,4.3014,4.3014,4.3039,4.3039,4.3263,4.3664,4.4066,4.4468,4.4869,4.5171,4.5522,4.5924,4.61,4.6125,3.3115,3.3176,3.3805,3.4345,3.4712,3.54,3.5874,3.6358,3.7633,3.8189,3.8514,3.9998,4.0756,4.0846,4.1224,4.1403,4.1433,4.1643,4.1673,4.1564,4.2342,4.2851,4.281,4.3369,4.3967,4.473,4.5803,4.636,4.6429,4.7134,4.7554,4.7814,4.8976,4.9844,5.0161,5.1062,5.1708,5.1995,5.208,5.2283,5.2621,5.2739,5.301,5.3416,5.3501,5.3501,5.3433,5.301,5.2976,5.3416,5.3501,5.3501,5.3501,5.3467,5.3501,5.3501,5.3501,5.3501,5.3501,5.3501,5.3501,5.3501,5.3501,5.3501,5.3501,5.3501,5.3382,5.2852,5.2312,5.1579,5.0671,4.9663,4.8397,4.7409,4.7331,4.7309,4.7309,4.7309,4.7309,4.7309,4.7309,4.7309,4.7309,4.7309,4.7309,4.7287,4.6887,4.601,4.4078,4.3293,4.212,4.1336,4.1366,4.1656,4.2112,4.2512,4.2914,4.2939,4.2964,4.3014,4.3014,4.3014,4.3014,4.314,4.3137,4.3664,4.4066,4.4493,4.4895,4.5321,4.5723,4.5949,4.62,4.6225,4.625,3.3115,3.3115,3.3111,3.3704,3.4496,3.4667,3.5147,3.6158,3.7746,3.8384,3.8849,4.0139,4.1177,4.1322,4.1494,4.172,4.1792,4.2451,4.299,4.312,4.3169,4.314,4.3579,4.4117,4.4408,4.47,4.5824,4.6495,4.643,4.7295,4.8001,4.7902,4.8895,4.996,5.0466,5.1629,5.232,5.291,5.3146,5.3197,5.3382,5.3433,5.345,5.3501,5.3501,5.3501,5.3467,5.3399,5.3399,5.3501,5.3501,5.3501,5.3501,5.3501,5.3501,5.3501,5.3501,5.3501,5.3501,5.3501,5.3501,5.3501,5.3501,5.3501,5.3501,5.3314,5.2904,5.217,5.1704,5.0822,4.9396,4.8697,4.8168,4.7495,4.7309,4.7309,4.7309,4.7309,4.7309,4.7309,4.7309,4.7309,4.7309,4.7309,4.7309,4.7157,4.644,4.5372,4.4081,4.3177,4.2081,4.1719,4.1712,4.2009,4.2439,4.2637,4.3014,4.3014,4.3014,4.3014,4.3014,4.3014,4.3014,4.3112,4.3438,4.3966,4.4443,4.4819,4.5321,4.5849,4.6125,4.6276,4.6296,4.6296,4.6296,3.3115,3.3115,3.3115,3.3261,3.3568,3.3946,3.4254,3.471,3.6321,3.716,3.7416,3.8783,4.0449,4.1514,4.2082,4.2969,4.3906,4.4347,4.4556,4.4706,4.4666,4.4606,4.4766,4.4945,4.5035,4.5147,4.5604,4.5656,4.5737,4.6559,4.6875,4.6823,4.8372,4.9138,4.9457,5.0424,5.1365,5.219,5.233,5.2715,5.3365,5.3433,5.3501,5.3501,5.3501,5.3501,5.3501,5.3501,5.3501,5.3501,5.3501,5.3501,5.3501,5.3501,5.3501,5.3501,5.3501,5.3501,5.3501,5.3501,5.3501,5.3501,5.3399,5.3501,5.3484,5.2765,5.2259,5.1649,5.0652,4.9496,4.8769,4.8126,4.7624,4.7396,4.7309,4.7309,4.7309,4.7309,4.7309,4.7309,4.7309,4.7309,4.7309,4.7309,4.7309,4.7222,4.6815,4.6005,4.4478,4.3778,4.3008,4.2257,4.211,4.2386,4.2663,4.2864,4.2989,4.3014,4.3014,4.3014,4.3014,4.3014,4.3014,4.3065,4.3589,4.4141,4.4593,4.4995,4.5648,4.6276,4.6301,4.6296,4.6296,4.6296,4.6296,3.3115,3.3115,3.3115,3.3241,3.3467,3.3746,3.4148,3.485,3.6319,3.7196,3.7754,3.9239,4.0861,4.2308,4.2789,4.3804,4.5161,4.5274,4.5424,4.5783,4.5992,4.5813,4.5484,4.5514,4.5723,4.5783,4.5992,4.6193,4.6253,4.654,4.6689,4.7048,4.813,4.8748,4.8942,4.9852,5.0627,5.1173,5.1317,5.1776,5.2748,5.2835,5.3144,5.3348,5.3501,5.3501,5.3501,5.3501,5.3501,5.3501,5.3501,5.3501,5.3501,5.3501,5.3501,5.3501,5.3501,5.3501,5.3501,5.3501,5.3501,5.3382,5.3161,5.3127,5.3179,5.2522,5.1831,5.1136,5.0087,4.9155,4.8231,4.7624,4.7352,4.7309,4.7309,4.7309,4.7309,4.7309,4.7309,4.7309,4.7309,4.7309,4.7309,4.7309,4.7309,4.7239,4.6985,4.5867,4.4645,4.4382,4.3844,4.2828,4.2411,4.2688,4.2788,4.2939,4.3014,4.3014,4.3014,4.3014,4.3014,4.3039,4.3165,4.3316,4.379,4.4292,4.4819,4.5321,4.5874,4.6245,4.6271,4.6296,4.6296,4.6296,4.6296,3.3115,3.3115,3.3115,3.3442,3.3947,3.4073,3.4753,3.5865,3.7281,3.8211,3.8816,4.0349,4.1351,4.3107,4.2681,4.3741,4.501,4.4894,4.5509,4.604,4.662,4.6621,4.5873,4.6202,4.639,4.648,4.7018,4.716,4.71,4.7219,4.7279,4.7392,4.8168,4.8532,4.8574,4.9436,5.0029,5.0204,5.0223,5.076,5.1649,5.1957,5.233,5.2661,5.2783,5.299,5.3076,5.311,5.3007,5.311,5.3348,5.3501,5.3501,5.3501,5.3501,5.3501,5.3501,5.3501,5.3501,5.3501,5.3501,5.3365,5.2662,5.2348,5.2852,5.2187,5.1192,5.0301,5.0145,4.8943,4.7828,4.7309,4.7309,4.7309,4.7309,4.7309,4.7309,4.7309,4.7309,4.7309,4.7309,4.7309,4.7309,4.7309,4.7317,4.7559,4.7102,4.6042,4.5028,4.4509,4.373,4.2725,4.2663,4.2939,4.2989,4.3014,4.3014,4.3014,4.3014,4.3014,4.3014,4.309,4.3341,4.3614,4.4041,4.4593,4.5221,4.5723,4.612,4.6245,4.6271,4.6296,4.6296,4.6296,4.6296,3.3115,3.3115,3.3115,3.3646,3.4502,3.5004,3.5782,3.6883,3.7678,3.8151,3.8303,3.8698,3.9876,4.144,4.1656,4.2273,4.3883,4.4095,4.4482,4.5687,4.6812,4.7146,4.686,4.701,4.707,4.71,4.7219,4.7309,4.7309,4.7309,4.7309,4.7396,4.7538,4.7615,4.7764,4.803,4.8397,4.8983,4.9135,4.9694,5.0684,5.1359,5.1525,5.1336,5.1225,5.1576,5.1921,5.1484,5.1094,5.1428,5.2469,5.3246,5.3263,5.3365,5.3382,5.3399,5.3484,5.3501,5.345,5.3366,5.3484,5.3348,5.282,5.2887,5.2152,5.1303,5.0249,4.9256,4.8439,4.7988,4.7409,4.7309,4.7309,4.7309,4.7309,4.7309,4.7309,4.7309,4.7309,4.7309,4.7309,4.7309,4.7309,4.7369,4.7483,4.7762,4.7265,4.6258,4.5434,4.4667,4.3885,4.2998,4.2788,4.3014,4.3014,4.3014,4.3014,4.3014,4.3014,4.3014,4.3014,4.3115,4.3341,4.374,4.4188,4.4844,4.5497,4.5899,4.6271,4.6271,4.6296,4.6296,4.6296,4.6296,4.6296,3.347,3.3492,3.3746,3.4324,3.5104,3.5682,3.6558,3.7538,3.819,3.8567,3.8768,3.8793,3.9697,4.1091,4.1267,4.2084,4.3401,4.4163,4.4743,4.5637,4.666,4.7287,4.7309,4.7309,4.7309,4.7287,4.7309,4.7309,4.7309,4.7309,4.7309,4.7309,4.7309,4.7374,4.7309,4.7309,4.7593,4.7967,4.8105,4.8625,4.9615,5.0094,5.0633,5.0416,5.0397,5.0703,5.1061,5.0741,5.0455,5.0665,5.1428,5.2044,5.217,5.2487,5.2748,5.2767,5.3314,5.3144,5.2939,5.2499,5.2382,5.2664,5.1643,5.1302,5.0968,5.0351,4.9327,4.8571,4.8141,4.7882,4.7396,4.7309,4.7309,4.7309,4.7309,4.7309,4.7309,4.7309,4.7309,4.7309,4.7309,4.7309,4.7339,4.7519,4.7303,4.7426,4.8848,4.7896,4.5523,4.4808,4.4412,4.3724,4.3192,4.3014,4.3014,4.3014,4.3014,4.3014,4.3014,4.3014,4.3014,4.314,4.3316,4.384,4.4439,4.5066,4.5698,4.6045,4.6296,4.6296,4.6296,4.6296,4.6296,4.6296,4.6296,3.4022,3.4073,3.4502,3.5031,3.5682,3.6281,3.7135,3.814,3.8768,3.922,3.9597,3.9697,4.0134,4.1043,4.1167,4.1934,4.2882,4.3975,4.4326,4.4535,4.5711,4.6188,4.6366,4.6616,4.6844,4.7019,4.7244,4.7287,4.7309,4.7309,4.7309,4.7309,4.7309,4.7309,4.7309,4.7309,4.7374,4.7452,4.7473,4.7743,4.8532,4.8882,4.9476,5.0223,4.9734,4.9852,4.9989,4.9852,4.9773,4.9931,4.9931,4.9931,5.0204,5.1024,5.1685,5.1704,5.2381,5.2213,5.1538,5.1069,5.0904,5.1303,4.9655,4.8974,4.9713,4.9494,4.8693,4.8204,4.7925,4.8009,4.7439,4.7309,4.7309,4.7309,4.7309,4.7309,4.7309,4.7309,4.7309,4.7309,4.7339,4.7339,4.7638,4.7856,4.7412,4.7374,4.8873,4.9073,4.6611,4.4943,4.4541,4.3883,4.324,4.3014,4.3014,4.3014,4.3014,4.3014,4.3014,4.3014,4.3014,4.309,4.3313,4.4116,4.474,4.5267,4.5744,4.612,4.6296,4.6296,4.6296,4.6296,4.6296,4.6296,4.6296,3.4577,3.4577,3.4678,3.5303,3.6256,3.6833,3.7688,3.8743,3.9245,3.9597,3.9672,3.9723,3.9852,4.0083,4.0032,4.0211,4.0919,4.2035,4.2544,4.2762,4.3811,4.4442,4.4674,4.5576,4.5824,4.6054,4.6682,4.7287,4.7309,4.7309,4.7309,4.7309,4.7309,4.7309,4.7309,4.7309,4.7309,4.7309,4.7309,4.7495,4.7764,4.8356,4.9034,4.9832,4.8872,4.8543,4.8738,4.8303,4.7807,4.7807,4.7807,4.7892,4.8314,4.9623,5.0371,5.0625,5.0908,5.0793,4.9959,4.9678,4.9342,4.9139,4.8681,4.8454,4.8553,4.8535,4.7998,4.7679,4.7476,4.7495,4.7352,4.7309,4.7309,4.7309,4.7309,4.7309,4.7309,4.7309,4.7369,4.7429,4.7429,4.7519,4.7908,4.829,4.8295,4.8248,4.904,4.8707,4.6611,4.5289,4.4619,4.3879,4.3073,4.3014,4.3014,4.3014,4.3014,4.3014,4.3014,4.3014,4.3014,4.3014,4.3388,4.4188,4.474,4.5141,4.5618,4.6145,4.6296,4.6296,4.6296,4.6296,4.6296,4.6296,4.6296,3.5107,3.5132,3.5454,3.5879,3.6482,3.7286,3.7889,3.8492,3.932,3.9697,3.9697,3.9697,3.9697,3.9697,3.9697,3.9697,4.0032,4.102,4.1568,4.1862,4.2834,4.3476,4.3575,4.472,4.5275,4.5756,4.6638,4.7287,4.7309,4.7309,4.7309,4.7309,4.7309,4.7309,4.7309,4.7309,4.7309,4.7309,4.7309,4.7309,4.7309,4.7892,4.8356,4.8303,4.8019,4.7666,4.7764,4.7658,4.7331,4.7352,4.7331,4.7309,4.7503,4.783,4.8555,4.9021,4.9476,4.9267,4.8276,4.7864,4.7675,4.8002,4.7485,4.7305,4.7379,4.7385,4.7052,4.6963,4.7219,4.7309,4.7309,4.7309,4.7309,4.7309,4.7309,4.7309,4.7309,4.7309,4.7459,4.7668,4.7878,4.8057,4.8289,4.8671,4.9054,4.9356,4.951,4.8247,4.6576,4.574,4.4914,4.3768,4.3014,4.3014,4.3014,4.3014,4.3014,4.3014,4.3014,4.3014,4.3014,4.3014,4.3564,4.4364,4.479,4.5016,4.5719,4.6296,4.6296,4.6296,4.6296,4.6296,4.6296,4.6296,4.6296,3.5658,3.5707,3.6205,3.648,3.6708,3.7563,3.809,3.8366,3.927,3.9697,3.9697,3.9697,3.9697,3.9697,3.9697,3.9723,3.98,4.0819,4.1044,4.1269,4.1985,4.2617,4.305,4.3905,4.4419,4.4396,4.6077,4.704,4.7287,4.7309,4.7309,4.7309,4.7309,4.7309,4.7309,4.7309,4.7309,4.7309,4.7309,4.7309,4.7309,4.7309,4.7309,4.7309,4.7309,4.7331,4.7387,4.7374,4.7309,4.7309,4.7309,4.7249,4.707,4.66,4.6592,4.7168,4.8028,4.761,4.673,4.6004,4.6016,4.6357,4.5385,4.5758,4.6275,4.6273,4.5915,4.63,4.6869,4.7309,4.7309,4.7309,4.7309,4.7309,4.7309,4.7309,4.7309,4.7399,4.7638,4.7908,4.8267,4.8686,4.9015,4.9232,4.969,4.9734,4.9892,4.8481,4.6966,4.6187,4.5209,4.3795,4.3014,4.3014,4.3014,4.3014,4.3014,4.3014,4.3014,4.3014,4.3014,4.3014,4.3689,4.4313,4.4564,4.489,4.5668,4.6271,4.6296,4.6296,4.6296,4.6296,4.6296,4.6296,4.6296,3.6281,3.6281,3.638,3.6658,3.716,3.7739,3.8316,3.8843,3.9396,3.9697,3.9697,3.9697,3.9697,3.9697,3.9697,3.9697,3.98,3.9929,4.016,4.0262,4.044,4.0592,4.0516,4.1468,4.2425,4.293,4.4651,4.6166,4.6931,4.7179,4.7309,4.7309,4.7309,4.7309,4.7309,4.7309,4.7309,4.7309,4.7309,4.7309,4.7309,4.7309,4.7309,4.7309,4.7309,4.7309,4.7309,4.7309,4.7309,4.7309,4.7279,4.701,4.654,4.639,4.5633,4.5259,4.5242,4.5464,4.4841,4.4639,4.4508,4.478,4.4578,4.4877,4.5231,4.5853,4.6031,4.6271,4.689,4.7249,4.7279,4.7309,4.7309,4.7309,4.7309,4.7309,4.7309,4.7608,4.7848,4.8386,4.8858,4.9434,4.989,5.0076,5.0276,5.0265,4.994,4.8486,4.7094,4.6082,4.5155,4.3657,4.3014,4.3014,4.3014,4.3014,4.3014,4.3014,4.3014,4.3014,4.3014,4.309,4.3564,4.4116,4.4338,4.4865,4.5698,4.615,4.625,4.6296,4.6296,4.6296,4.6296,4.6296,4.6296,3.6405,3.6405,3.6405,3.6708,3.7236,3.7789,3.8341,3.8944,3.9472,3.9697,3.9697,3.9697,3.9697,3.9697,3.9697,3.9697,3.9697,3.9697,3.9697,3.9697,3.9697,3.9697,4.0083,4.0945,4.1593,4.1985,4.3385,4.4927,4.5981,4.6909,4.7309,4.7309,4.7309,4.7309,4.7309,4.7309,4.7309,4.7309,4.7309,4.7309,4.7309,4.7309,4.7309,4.7309,4.7309,4.7309,4.7309,4.7309,4.7309,4.7249,4.701,4.6629,4.6151,4.5642,4.4825,4.4496,4.4187,4.4058,4.3778,4.3758,4.3758,4.3848,4.4147,4.4137,4.4407,4.5185,4.5971,4.63,4.654,4.689,4.7249,4.7309,4.7309,4.7309,4.7309,4.7369,4.7459,4.7818,4.8177,4.8798,4.9396,4.9972,5.0388,5.0428,5.0424,5.0337,4.9698,4.8311,4.6656,4.5102,4.4209,4.327,4.3014,4.3014,4.3014,4.3014,4.3014,4.3014,4.3014,4.3014,4.3014,4.3187,4.3564,4.3966,4.4288,4.4916,4.5723,4.61,4.6245,4.6296,4.6296,4.6296,4.6296,4.6296,4.6296,3.6405,3.6405,3.6405,3.6783,3.7412,3.7839,3.8417,3.9145,3.9521,3.9697,3.9697,3.9697,3.9697,3.9697,3.9697,3.9697,3.9697,3.9697,3.9697,3.9697,3.9697,3.9697,3.9929,4.0693,4.1045,4.1169,4.2352,4.3432,4.4419,4.5553,4.6388,4.7244,4.7309,4.7309,4.7309,4.7309,4.7309,4.7309,4.7309,4.7309,4.7309,4.7309,4.7309,4.7309,4.7309,4.7309,4.7279,4.707,4.7018,4.6899,4.6381,4.5963,4.5553,4.4925,4.4326,4.3997,4.3668,4.3469,4.3409,4.3459,4.3668,4.3938,4.4177,4.4326,4.4616,4.5155,4.5693,4.63,4.66,4.6899,4.7138,4.7309,4.7309,4.7309,4.7309,4.7399,4.7578,4.8027,4.8626,4.9344,4.9912,5.0338,5.0641,5.0597,5.0549,5.043,4.9484,4.8038,4.6214,4.4235,4.3685,4.2989,4.3014,4.3014,4.3014,4.3014,4.3014,4.3014,4.3014,4.3014,4.3014,4.309,4.3341,4.374,4.4138,4.4564,4.5146,4.5748,4.6296,4.6296,4.6296,4.6296,4.6296,4.6245,4.625,3.6405,3.6405,3.6383,3.696,3.7914,3.7965,3.8642,3.9546,3.9672,3.9697,3.9697,3.9697,3.9697,3.9697,3.9697,3.9697,3.9697,3.9697,3.9697,3.9697,3.9697,3.9697,3.9852,3.9929,4.0006,4.016,4.1169,4.1764,4.2255,4.3551,4.5207,4.6931,4.6866,4.7157,4.7309,4.7309,4.7309,4.7309,4.7309,4.7309,4.7309,4.7309,4.7309,4.7309,4.7309,4.7309,4.7279,4.6749,4.639,4.636,4.5723,4.5214,4.4805,4.4356,4.3938,4.3609,4.3579,4.3469,4.3469,4.3409,4.3618,4.4207,4.4566,4.4715,4.5065,4.5702,4.6181,4.633,4.6719,4.7018,4.7219,4.7309,4.7309,4.7369,4.7459,4.7728,4.7967,4.8386,4.9015,4.983,5.0368,5.0727,5.0502,5.0371,5.0047,4.9849,4.8114,4.663,4.5075,4.3406,4.3323,4.3014,4.3014,4.3014,4.3014,4.3014,4.3014,4.3014,4.3014,4.3014,4.3014,4.3115,4.319,4.3492,4.389,4.4217,4.4593,4.5246,4.5769,4.6145,4.6195,4.5894,4.5844,4.5819,4.5924,3.3897,3.3994,3.5161,3.6579,3.804,3.8391,3.8994,3.9622,3.9697,3.9697,3.9697,3.9697,3.9697,3.9697,3.9697,3.9697,3.9697,3.9697,3.9697,3.9697,3.9697,3.9697,3.9697,3.9697,3.9749,3.9801,4.0313,4.097,4.1739,4.2108,4.3194,4.4656,4.5666,4.666,4.6975,4.7266,4.7309,4.7309,4.7309,4.7309,4.7309,4.7309,4.7309,4.7309,4.7309,4.707,4.6719,4.645,4.6091,4.5633,4.5035,4.4566,4.4237,4.3938,4.3609,4.3429,4.3589,4.3848,4.3818,4.3579,4.3439,4.3579,4.3967,4.4476,4.5274,4.5284,4.5912,4.633,4.6779,4.6929,4.7279,4.7309,4.7339,4.7429,4.7638,4.7967,4.8386,4.8835,4.9381,5.0219,5.0637,5.0996,5.0532,5.0042,4.9655,4.9112,4.7094,4.5289,4.3907,4.3014,4.3014,4.3014,4.3014,4.3014,4.3014,4.3014,4.3014,4.3014,4.3014,4.3014,4.3014,4.3014,4.314,4.3391,4.3564,4.3865,4.4267,4.4819,4.5167,4.5417,4.5422,4.5196,4.5192,4.5342,4.5417,3.2532,3.3049,3.4249,3.5778,3.7419,3.8492,3.9195,3.9622,3.9697,3.9697,3.9697,3.9697,3.9697,3.9697,3.9697,3.9697,3.9697,3.9697,3.9697,3.9697,3.9697,3.9697,3.9697,3.9697,3.9697,3.9697,3.9774,4.0287,4.0869,4.0995,4.1887,4.293,4.3858,4.4978,4.6506,4.7157,4.7287,4.7309,4.7309,4.7309,4.7309,4.7309,4.71,4.704,4.695,4.6621,4.6091,4.5702,4.5373,4.4945,4.4466,4.4057,4.3818,4.3638,4.3349,4.3499,4.3878,4.4296,4.4237,4.4386,4.4057,4.4237,4.4715,4.5134,4.5274,4.5334,4.6322,4.695,4.689,4.68,4.7309,4.7309,4.7309,4.7399,4.7878,4.8289,4.8835,4.9344,4.992,5.0578,5.0877,5.1069,5.0281,4.9528,4.8088,4.735,4.5661,4.4291,4.363,4.3014,4.3014,4.3014,4.3014,4.3014,4.3014,4.3014,4.3014,4.3014,4.3014,4.3014,4.3014,4.3014,4.3014,4.3165,4.3313,4.3514,4.374,4.4016,4.4342,4.464,4.4669,4.4694,4.479,4.4941,4.484,3.293,3.4259,3.3902,3.465,3.6055,3.8038,3.9067,3.9466,3.9671,3.9697,3.9697,3.9697,3.9697,3.9697,3.9697,3.9697,3.9697,3.9697,3.9697,3.9697,3.9697,3.9697,3.9697,3.9697,3.9697,3.9697,3.9723,3.98,3.9904,4.0083,4.0743,4.1392,4.2228,4.3409,4.5366,4.6682,4.7244,4.7309,4.7309,4.7189,4.716,4.71,4.6711,4.642,4.6322,4.5992,4.5424,4.4954,4.4625,4.4267,4.3818,4.3549,4.3439,4.3519,4.3459,4.3469,4.4117,4.4416,4.4446,4.5553,4.5613,4.5155,4.5424,4.6121,4.633,4.66,4.689,4.7219,4.7189,4.7189,4.7309,4.7309,4.7309,4.7608,4.8169,4.8738,4.9314,4.9912,5.0488,5.0817,5.0996,5.1011,5.0119,4.894,4.6888,4.5422,4.3962,4.3212,4.307,4.3014,4.3014,4.3014,4.3014,4.3014,4.3014,4.3014,4.3014,4.3014,4.3014,4.3014,4.3014,4.3014,4.3014,4.3014,4.309,4.3263,4.3162,4.3115,4.3539,4.4016,4.4292,4.4392,4.4489,4.4439,4.4238,2.9911,3.049,3.1875,3.2748,3.3498,3.5592,3.7175,3.8271,3.9181,3.9697,3.9697,3.9697,3.9697,3.9697,3.9697,3.9697,3.9697,3.9697,3.9697,3.9697,3.9697,3.9697,3.9697,3.9697,3.9697,3.9697,3.9697,3.9697,3.9749,3.9697,3.9826,4.0389,4.1216,4.3002,4.4817,4.6032,4.6322,4.7016,4.6929,4.66,4.657,4.6262,4.5903,4.5642,4.5633,4.5304,4.4685,4.4296,4.4087,4.3788,4.3399,4.3399,4.3489,4.3638,4.3967,4.4207,4.4865,4.5852,4.6151,4.6741,4.6381,4.5963,4.5813,4.6352,4.63,4.645,4.6809,4.7189,4.7309,4.7309,4.7309,4.7309,4.7459,4.8049,4.8618,4.9254,4.9853,5.0488,5.1026,5.1056,5.1206,4.9873,4.8816,4.8264,4.6553,4.4752,4.3434,4.3156,4.3014,4.3014,4.3014,4.3014,4.3014,4.3014,4.3014,4.3014,4.3014,4.3014,4.3014,4.3014,4.3014,4.3014,4.3014,4.3014,4.3014,4.3014,4.3014,4.3039,4.3112,4.3413,4.3689,4.379,4.374,4.3614,4.3438,2.8653,2.936,3.0527,3.1436,3.2247,3.4351,3.6135,3.761,3.9025,3.9697,3.9697,3.9697,3.9697,3.9697,3.9697,3.9697,3.9697,3.9697,3.9697,3.9697,3.9697,3.9697,3.9697,3.9697,3.9697,3.9697,3.9697,3.9697,3.9697,3.9697,3.9623,3.9728,4.0284,4.1404,4.3091,4.4197,4.5401,4.5939,4.5852,4.5963,4.5873,4.5603,4.5244,4.5035,4.4885,4.4646,4.4147,4.3908,4.3788,4.3489,4.3489,4.3609,4.3818,4.4177,4.4566,4.4984,4.5583,4.654,4.704,4.7189,4.677,4.6292,4.5992,4.6202,4.654,4.6749,4.6929,4.7189,4.7309,4.7489,4.7578,4.7578,4.7967,4.8588,4.9164,4.98,5.0159,5.0757,5.1116,5.1176,5.0893,4.9333,4.7735,4.7069,4.624,4.4589,4.3014,4.3014,4.3014,4.3014,4.3014,4.3014,4.3014,4.3014,4.3014,4.3014,4.3014,4.3014,4.3014,4.3014,4.3014,4.3014,4.3014,4.3014,4.3014,4.3014,4.3014,4.3039,4.3087,4.3087,4.3137,4.3165,4.3014,4.3014,4.3014,2.932,3.0689,2.9983,3.0577,3.2274,3.4185,3.5972,3.7503,3.9025,3.9697,3.9697,3.9697,3.9697,3.9697,3.9697,3.9697,3.9697,3.9697,3.9697,3.9697,3.9697,3.9697,3.9697,3.9697,3.9697,3.9697,3.9697,3.9697,3.9697,3.9697,3.9446,3.917,3.9424,4.0169,4.1271,4.2611,4.3959,4.4467,4.4435,4.4552,4.4494,4.4742,4.4297,4.407,4.4065,4.3947,4.3668,4.3549,4.3549,4.3609,4.3908,4.4177,4.4526,4.4945,4.5185,4.5574,4.6112,4.6711,4.716,4.7309,4.7279,4.695,4.707,4.7249,4.7168,4.713,4.7189,4.7309,4.7459,4.7818,4.8079,4.8349,4.8596,4.9164,4.974,5.0129,5.0368,5.0757,5.1086,5.1135,5.0917,4.9679,4.7709,4.6682,4.574,4.4264,4.3014,4.3014,4.3014,4.3014,4.3014,4.3014,4.3014,4.3014,4.3014,4.3014,4.3014,4.3014,4.3014,4.3014,4.3014,4.3014,4.3014,4.3014,4.3014,4.3014,4.3014,4.3014,4.3014,4.3014,4.3014,4.3014,4.3014,4.3014,4.3014,2.8777,2.947,2.9541,3.0058,3.099,3.2896,3.457,3.6162,3.8504,3.9697,3.9697,3.9697,3.962,3.9697,3.9697,3.9697,3.9697,3.9697,3.9697,3.9697,3.9697,3.9697,3.9697,3.9697,3.9697,3.9697,3.9697,3.9697,3.9697,3.9697,3.9672,3.9496,3.9321,3.955,4.0046,4.1068,4.2082,4.2785,4.2663,4.2829,4.2962,4.3131,4.2835,4.2893,4.3586,4.3538,4.3519,4.3818,4.3967,4.4117,4.4207,4.4446,4.5065,4.5244,4.5484,4.6651,4.698,4.713,4.7279,4.7309,4.7309,4.7309,4.7309,4.7309,4.7309,4.7339,4.7339,4.7489,4.7728,4.8117,4.8588,4.8917,4.9284,4.983,5.0278,5.0458,5.0667,5.0907,5.1206,5.1035,5.0846,4.9406,4.7478,4.6109,4.5102,4.374,4.3014,4.3014,4.3014,4.3014,4.3014,4.3014,4.3014,4.3014,4.3014,4.3014,4.3014,4.3014,4.3014,4.3014,4.3014,4.3014,4.3014,4.3014,4.3014,4.3014,4.3014,4.3014,4.3014,4.3014,4.3014,4.3014,4.3014,4.3014,4.3014,2.8789,2.9219,2.9648,3.0059,3.0727,3.2349,3.3649,3.482,3.6969,3.8216,3.8816,3.8765,3.9155,3.9671,3.9697,3.9697,3.9697,3.9697,3.9697,3.9697,3.9697,3.9697,3.9697,3.9697,3.9697,3.9697,3.9697,3.9697,3.9697,3.9672,3.9647,3.9321,3.9396,3.922,3.9221,3.9461,4.0101,4.0799,4.1175,4.1288,4.1524,4.1905,4.2152,4.2132,4.3119,4.3656,4.3688,4.4204,4.4564,4.4775,4.4835,4.5254,4.5783,4.5963,4.6232,4.7189,4.7249,4.7249,4.7309,4.7309,4.7309,4.7339,4.7369,4.7489,4.7519,4.7519,4.7608,4.7758,4.8087,4.8498,4.8977,4.9434,5.0002,5.0548,5.0667,5.0787,5.0966,5.1146,5.1135,5.0988,5.0095,4.8738,4.7274,4.5846,4.4616,4.3547,4.3014,4.3014,4.3014,4.3014,4.3014,4.3014,4.3014,4.3014,4.3014,4.3014,4.3014,4.3014,4.3014,4.3014,4.3014,4.3014,4.3014,4.3014,4.3014,4.3014,4.3014,4.3014,4.3014,4.3014,4.3014,4.3014,4.3014,4.3014,4.3014,2.918,2.9696,3.0078,3.0488,3.1043,3.2273,3.2851,3.3077,3.4376,3.5863,3.7106,3.7503,3.8295,3.9103,3.9491,3.9697,3.9697,3.9697,3.9697,3.9697,3.9697,3.9697,3.9697,3.9697,3.9697,3.9697,3.9697,3.9697,3.9697,3.9672,3.9471,3.8969,3.907,3.9019,3.8818,3.8768,3.9319,3.9795,4.0504,4.0988,4.1333,4.2099,4.2903,4.2453,4.3396,4.4469,4.4223,4.4513,4.5135,4.5364,4.5624,4.5896,4.6339,4.677,4.713,4.7228,4.7309,4.7309,4.7369,4.7459,4.7489,4.7489,4.7459,4.793,4.8109,4.7848,4.7878,4.8327,4.8745,4.9164,4.9613,5.0039,5.0548,5.0847,5.0966,5.1026,5.1086,5.1105,5.0917,5.0508,4.9284,4.7934,4.6552,4.5128,4.4098,4.324,4.3014,4.3014,4.3014,4.3014,4.3014,4.3014,4.3014,4.3014,4.3014,4.3014,4.3014,4.3014,4.3014,4.3014,4.3014,4.3014,4.3014,4.3014,4.3014,4.3014,4.3014,4.3014,4.3014,4.3014,4.3014,4.3014,4.3014,4.3014,4.3014,2.9375,3.0078,3.0527,3.0801,3.0908,3.1267,3.1441,3.1441,3.1738,3.3466,3.5672,3.6865,3.7639,3.819,3.9155,3.9517,3.9697,3.9697,3.9697,3.9697,3.9697,3.9697,3.9697,3.9697,3.9697,3.9697,3.9697,3.9697,3.9697,3.9672,3.9647,3.9522,3.9446,3.9245,3.9145,3.912,3.9296,3.9448,3.9853,4.0164,4.0076,4.023,4.0561,4.0922,4.1862,4.2675,4.2663,4.2963,4.3789,4.4434,4.4661,4.5331,4.6245,4.6929,4.7249,4.7309,4.7399,4.7429,4.7608,4.7848,4.8027,4.8259,4.8409,4.8768,4.8798,4.8349,4.8356,4.8955,4.9404,4.98,5.0173,5.0591,5.082,5.0969,5.1082,5.1112,5.1058,5.0793,5.0579,4.9553,4.8414,4.7094,4.574,4.4643,4.363,4.3129,4.3042,4.3014,4.3014,4.3014,4.3014,4.3014,4.3014,4.3014,4.3014,4.3014,4.3014,4.3014,4.3014,4.3014,4.3014,4.3014,4.3014,4.3014,4.3014,4.3014,4.3014,4.3014,4.3014,4.3014,4.3014,4.3014,4.3014,4.3014,4.3014,2.959,3.0234,3.0703,3.0928,3.0928,3.0928,3.0928,3.0928,3.0928,3.1888,3.3614,3.4986,3.6217,3.7213,3.84,3.9386,3.9593,3.9697,3.9697,3.9697,3.9772,3.9697,3.9697,3.9747,3.9697,3.9697,3.9697,3.9697,3.9697,3.9697,3.9697,3.9697,3.9697,3.9697,3.9697,3.9697,3.9697,3.9672,3.9697,3.9522,3.9348,3.9943,4.0285,4.0641,4.1332,4.1913,4.2173,4.2554,4.3222,4.4095,4.4561,4.5647,4.6507,4.7108,4.7459,4.7668,4.7818,4.7878,4.8103,4.835,4.8671,4.8895,4.9007,4.9239,4.9643,4.9262,4.9262,4.974,4.98,5.0136,5.0275,5.0597,5.0145,5.0042,5.0071,5.0095,4.9703,4.9259,4.8911,4.8289,4.7171,4.6135,4.4914,4.4126,4.3268,4.3098,4.3014,4.3014,4.3014,4.3014,4.3014,4.3014,4.3014,4.3014,4.3014,4.3014,4.3014,4.3014,4.3014,4.3014,4.3014,4.3014,4.3014,4.3014,4.3014,4.3014,4.3014,4.3014,4.3014,4.3014,4.3014,4.3014,4.3014,4.3014,4.3014,2.9872,3.0341,3.0723,3.0928,3.0947,3.0957,3.0996,3.0996,3.1055,3.1269,3.188,3.2806,3.474,3.6564,3.7747,3.8778,3.9583,4.0096,4.0049,4.0023,4.0023,4.0174,4.0099,3.9923,3.9848,3.9747,3.9697,3.9697,3.9697,3.9697,3.9697,3.9697,3.9697,3.9697,3.9697,3.9697,3.9697,3.9697,3.9697,3.9697,4.016,4.0718,4.063,4.1167,4.1928,4.2631,4.2494,4.2549,4.29,4.3697,4.4312,4.5465,4.6195,4.6641,4.6929,4.7177,4.7196,4.774,4.8459,4.8718,4.9065,4.9336,4.9411,4.9657,5.0097,5.0001,4.9971,4.9931,4.9961,4.9993,5.0152,4.9771,4.9259,4.9186,4.9186,4.9014,4.8439,4.7912,4.7427,4.6991,4.6083,4.5075,4.4264,4.3492,4.324,4.307,4.3014,4.3014,4.3014,4.3014,4.3014,4.3014,4.3014,4.3014,4.3014,4.3014,4.3014,4.3014,4.3014,4.3014,4.3014,4.3014,4.3014,4.3014,4.3014,4.3014,4.3014,4.3014,4.3014,4.3014,4.3014,4.3014,4.3014,4.3014,4.3014,3.0067,3.0791,3.0859,3.0928,3.0986,3.125,3.1387,3.1465,3.1788,3.2022,3.2113,3.2425,3.4035,3.6957,3.8216,3.9292,4.0195,4.0668,4.0926,4.1001,4.0775,4.0876,4.08,4.0424,4.0099,3.9973,3.9873,3.9747,3.9998,3.9898,3.9747,3.9823,3.9772,3.9772,3.9747,3.9772,3.9873,3.9898,3.9898,3.9898,3.9823,4.0056,3.993,4.0109,4.0185,4.0338,4.0312,4.0363,4.1044,4.2119,4.3539,4.4749,4.5452,4.5831,4.6025,4.631,4.6347,4.6928,4.7596,4.818,4.851,4.9385,4.9527,5.0028,5.0011,4.9509,4.9383,4.9165,4.917,4.9146,4.901,4.811,4.7554,4.8314,4.8614,4.801,4.7427,4.694,4.6474,4.5899,4.5155,4.4318,4.3547,4.3101,4.3101,4.3014,4.3014,4.3014,4.3014,4.3014,4.3014,4.3014,4.3014,4.3014,4.3014,4.3014,4.3014,4.3014,4.3014,4.3014,4.3014,4.3014,4.3014,4.3014,4.3014,4.3014,4.3014,4.3014,4.3014,4.3014,4.3014,4.3014,4.3014,4.3014,4.3014]},{"header":{"parameterUnit":"m.s-1","parameterCategory":1,"la1":31.0,"la2":29.5877,"lo1":-88.7671,"lo2":-86.6584,"dx":0.0162,"dy":0.0185,"nx":115,"ny":88,"refTime":"2022-11-02T18:00:00:Z","depth":0,"parameterNumber":3,"parameterNumberName":"V-component_of_WINDS"},"data":[0.0,0.0,0.0,0.0,0.0,0.0,0.0,0.0,0.0,0.0,0.0,0.0,0.0,0.0,0.0,0.0,0.0,0.0,0.0,0.0,0.0,0.0,0.0,0.0,0.0,0.0,0.0,0.0,0.0,0.0,0.0,0.0,0.0,0.0,0.0,0.0,0.0,0.0,0.0,0.0,0.0,0.0,0.0,0.0,0.0,0.0,0.0,0.0,0.0,0.0,0.0,0.0,0.0,0.0,0.0,0.0,0.0,0.0,0.0,0.0,0.0,0.0,0.0,0.0,0.0,0.0,0.0,0.0,0.0,0.0,0.0,0.0,0.0,0.0,0.0,0.0,0.0,0.0,0.0,0.0,0.0,0.0,0.0,0.0,0.0,0.0,0.0,0.0,0.0,0.0,0.0,0.0,0.0,0.0,0.0,0.0,0.0,0.0,0.0,0.0,0.0,0.0,0.0,0.0,0.0,0.0,0.0,0.0,0.0,0.0,0.0,0.0,0.0,0.0,0.0,0.0,0.0,0.0,0.0,0.0,0.0,0.0,0.0,0.0,0.0,0.0,0.0,0.0,0.0,0.0,0.0,0.0,0.0,0.0,0.0,0.0,0.0,0.0,0.0,0.0,0.0,0.0,0.0,0.0,0.0,0.0,0.0,0.0,0.0,0.0,0.0,0.0,0.0,0.0,0.0,0.0,0.0,0.0,0.0,0.0,0.0,0.0,0.0,0.0,0.0,0.0,0.0,0.0,0.0,0.0,0.0,0.0,0.0,0.0,0.0,0.0,0.0,0.0,0.0,0.0,0.0,0.0,0.0,0.0,0.0,0.0,0.0,0.0,0.0,0.0,0.0,0.0,0.0,0.0,0.0,0.0,0.0,0.0,0.0,0.0,0.0,0.0,0.0,0.0,0.0,0.0,0.0,0.0,0.0,0.0,0.0,0.0,0.0,0.0,0.0,0.0,0.0,0.0,0.0,0.0,0.0,0.0,0.0,0.0,0.0,0.0,0.0,0.0,0.0,0.0,0.0,0.0,0.0,0.0,0.0,0.0,0.0,0.0,0.0,0.0,0.0,0.0,0.0,0.0,0.0,0.0,0.0,0.0,0.0,0.0,0.0,0.0,0.0,0.0,0.0,0.0,0.0,0.0,0.0,0.0,0.0,0.0,0.0,0.0,0.0,0.0,0.0,0.0,0.0,0.0,0.0,0.0,0.0,0.0,0.0,0.0,0.0,0.0,0.0,0.0,0.0,0.0,0.0,0.0,0.0,0.0,0.0,0.0,0.0,0.0,0.0,0.0,0.0,0.0,0.0,0.0,0.0,0.0,0.0,0.0,0.0,0.0,0.0,0.0,0.0,0.0,0.0,0.0,0.0,0.0,0.0,0.0,0.0,0.0,0.0,0.0,0.0,0.0,0.0,0.0,0.0,0.0,0.0,0.0,0.0,0.0,0.0,0.0,0.0,0.0,0.0,0.0,0.0,0.0,0.0,0.0,0.0,0.0,0.0,0.0,0.0,0.0,0.0,0.0,0.0,0.0,0.0,0.0,0.0,0.0,0.0,0.0,0.0,0.0,0.0,0.0,0.0,0.0,0.0,0.0,0.0,0.0,0.0,0.0,0.0,0.0,0.0,0.0,0.0,0.0,0.0,0.0,0.0,0.0,0.0,0.0,0.0,0.0,0.0,0.0,0.0,0.0,0.0,0.0,0.0,0.0,0.0,0.0,0.0,0.0,0.0,0.0,0.0,0.0,0.0,0.0,0.0,0.0,0.0,0.0,0.0,0.0,0.0,0.0,0.0,0.0,0.0,0.0,0.0,0.0,0.0,0.0,0.0,0.0,0.0,0.0,0.0,0.0,0.0,0.0,0.0,0.0,0.0,0.0,0.0,0.0,0.0,0.0,0.0,0.0,0.0,0.0,0.0,0.0,0.0,0.0,0.0,0.0,0.0,0.0,0.0,0.0,0.0,0.0,0.0,0.0,0.0,0.0,0.0,0.0,0.0,0.0,0.0,0.0,0.0,0.0,0.0,0.0,0.0,0.0,0.0,0.0,0.0,0.0,0.0,0.0,0.0,0.0,0.0,0.0,0.0,0.0,0.0,0.0,0.0,0.0,0.0,0.0,0.0,0.0,0.0,0.0,0.0,0.0,0.0,0.0,0.0,0.0,0.0,0.0,0.0,0.0,0.0,0.0,0.0,0.0,0.0,0.0,0.0,0.0,0.0,0.0,0.0,0.0,0.0,0.0,0.0,0.0,0.0,0.0,0.0,0.0,0.0,0.0,0.0,0.0,0.0,0.0,0.0,0.0,0.0,0.0,0.0,0.0,0.0,0.0,0.0,0.0,0.0,0.0,0.0,0.0,0.0,0.0,0.0,0.0,0.0,0.0,0.0,0.0,0.0,0.0,0.0,0.0,0.0,0.0,0.0,0.0,0.0,0.0,0.0,0.0,0.0,0.0,0.0,0.0,0.0,0.0,0.0,0.0,0.0,0.0,0.0,0.0,0.0,0.0,0.0,0.0,0.0,0.0,0.0,0.0,0.0,0.0,0.0,0.0,0.0,0.0,0.0,0.0,0.0,0.0,0.0,0.0,0.0,0.0,0.0,0.0,0.0,0.0,0.0,0.0,0.0,0.0,0.0,0.0,0.0,0.0,0.0,0.0,0.0,0.0,0.0,0.0,0.0,0.0,0.0,0.0,0.0,0.0,0.0,0.0,0.0,0.0,0.0,0.0,0.0,0.0,0.0,0.0,0.0,0.0,0.0,0.0,0.0,0.0,0.0,0.0,0.0,0.0,0.0,0.0,0.0,0.0,0.0,0.0,0.0,0.0,0.0,0.0,0.0,0.0,0.0,0.0,0.0,0.0,0.0,0.0,0.0,0.0,0.0,0.0,0.0,0.0,0.0,0.0,0.0,0.0,0.0,0.0,0.0,0.0,0.0,0.0,0.0,0.0,0.0,0.0,0.0,0.0,0.0,0.0,0.0,0.0,0.0,0.0,0.0,0.0,0.0,0.0,0.0,0.0,0.0,0.0,0.0,0.0,0.0,0.0,0.0,0.0,0.0,0.0,0.0,0.0,0.0,0.0,0.0,0.0,0.0,0.0,0.0,0.0,0.0,0.0,0.0,0.0,0.0,0.0,0.0,0.0,0.0,0.0,0.0,0.0,0.0,0.0,0.0,0.0,0.0,0.0,0.0,0.0,0.0,0.0,0.0,0.0,0.0,0.0,0.0,0.0,0.0,0.0,0.0,0.0,0.0,0.0,0.0,0.0,0.0,0.0,0.0,0.0,0.0,0.0,0.0,0.0,0.0,0.0,0.0,0.0,0.0,0.0,0.0,0.0,0.0,0.0,0.0,0.0,0.0,0.0,0.0,0.0,0.0,0.0,0.0,0.0,0.0,0.0,0.0,0.0,0.0,0.0,0.0,0.0,0.0,0.0,0.0,0.0,0.0,0.0,0.0,0.0,0.0,0.0,0.0,0.0,0.0,0.0,0.0,0.0,0.0,0.0,0.0,0.0,0.0,0.0,0.0,0.0,0.0,0.0,0.0,0.0,0.0,0.0,0.0,0.0,0.0,0.0,0.0,0.0,0.0,0.0,0.0,0.0,0.0,0.0,0.0,0.0,0.0,0.0,0.0,0.0,0.0,0.0,0.0,0.0,0.0,0.0,0.0,0.0,0.0,0.0,0.0,0.0,0.0,0.0,0.0,0.0,0.0,0.0,0.0,0.0,0.0,0.0,0.0,0.0,0.0,0.0,0.0,0.0,0.0,0.0,0.0,0.0,0.0,0.0,0.0,0.0,0.0,0.0,0.0,0.0,0.0,0.0,0.0,0.0,0.0,0.0,0.0,0.0,0.0,0.0,0.0,0.0,0.0,0.0,0.0,0.0,0.0,0.0,0.0,0.0,0.0,0.0,0.0,0.0,0.0,0.0,0.0,0.0,0.0,0.0,0.0,0.0,0.0,0.0,0.0,0.0,0.0,0.0,0.0,0.0,0.0,0.0,0.0,0.0,0.0,0.0,0.0,0.0,0.0,0.0,0.0,0.0,0.0,0.0,0.0,0.0,0.0,0.0,0.0,0.0,0.0,0.0,0.0,0.0,0.0,0.0,0.0,0.0,0.0,0.0,0.0,0.0,0.0,0.0,0.0,0.0,0.0,0.0,0.0,0.0,0.0,0.0,0.0,0.0,0.0,0.0,0.0,0.0,0.0,0.0,0.0,0.0,0.0,0.0,0.0,0.0,0.0,0.0,0.0,0.0,1.045,0.0,0.0,0.0,1.0044,0.0,0.0,0.0,0.0,0.0,0.0,0.0,0.0,0.0,0.0,0.0,0.0,0.0,0.0,0.0,0.0,0.0,0.0,0.0,0.0,0.0,0.0,0.0,0.0,0.0,0.0,0.0,0.0,0.0,0.0,0.0,0.0,0.0,0.0,0.0,0.0,0.0,0.0,0.0,0.0,0.0,0.0,0.0,0.0,0.0,0.0,0.0,0.0,0.0,0.0,0.0,0.0,0.0,0.0,0.0,0.0,0.0,0.0,0.0,0.0,0.0,0.0,0.0,0.0,0.0,0.0,0.0,0.0,0.0,0.0,0.0,0.0,0.0,0.0,0.0,0.0,0.0,0.0,0.0,0.0,0.0,0.0,0.0,0.0,0.0,0.0,0.0,0.0,0.0,0.0,0.0,0.0,0.0,0.0,0.0,0.0,0.0,0.0,0.0,0.0,0.0,0.0,0.0,0.0,0.0,0.0,0.0,0.0,0.0,0.0,1.0457,0.9937,1.0754,1.079,0.9937,0.0,0.0,0.0,0.0,0.0,0.0,0.0,0.0,0.0,0.0,0.0,0.0,0.0,0.0,0.0,0.0,0.0,0.0,0.0,0.0,0.0,0.0,0.0,0.0,0.0,0.0,0.0,0.0,0.0,0.0,0.0,0.0,0.0,0.0,0.0,0.0,0.0,0.0,0.0,0.0,0.0,0.0,0.0,0.0,0.0,0.0,0.0,0.0,0.0,0.0,0.0,0.0,0.0,0.0,0.0,0.0,0.0,0.0,0.0,0.0,0.0,0.0,0.0,0.0,0.0,0.0,0.0,0.0,0.0,0.0,0.0,0.0,0.0,0.0,0.0,0.0,0.0,0.0,0.0,0.0,0.0,0.0,0.0,0.0,0.0,0.0,0.0,0.0,0.0,0.0,0.0,0.0,0.0,0.0,0.0,0.0,0.0,0.0,0.0,0.0,0.0,0.0,0.0,0.0,0.0,0.0,0.0,0.0,0.0,0.0,0.0,0.0,1.0929,1.0998,1.0137,0.0,0.0,0.0,0.0,0.0,0.0,0.0,0.0,0.0,0.0,0.0,0.0,0.0,0.0,0.0,0.0,0.0,0.0,0.0,0.0,0.0,0.0,0.0,0.0,0.0,0.0,0.0,0.0,0.0,0.0,0.0,0.0,0.0,0.0,0.0,0.0,0.0,0.0,0.0,0.0,0.0,0.0,0.0,0.0,0.0,0.0,0.0,0.0,0.0,0.0,0.0,0.0,0.0,0.0,0.0,0.0,0.0,0.0,0.0,0.0,0.0,0.0,0.0,0.0,0.0,0.0,0.0,0.0,0.0,0.0,0.0,0.0,0.0,0.0,0.0,0.0,0.0,0.0,0.0,0.0,0.0,0.0,0.0,0.0,0.0,0.0,0.0,0.0,0.0,0.0,0.0,0.0,0.0,0.0,0.0,0.0,0.0,0.0,0.0,0.0,0.0,0.0,0.0,0.0,0.0,0.0,0.0,0.0,0.0,0.0,1.0188,1.0632,1.0726,0.0,1.0625,0.0,0.0,0.0,0.0,0.0,0.0,0.0,0.0,0.0,0.0,0.0,0.0,0.0,0.0,0.0,0.0,0.0,0.0,0.0,0.0,0.0,0.0,0.0,0.0,0.0,0.0,0.0,0.0,0.0,0.0,0.0,0.0,0.0,0.0,0.0,0.0,0.0,0.0,0.0,0.0,0.0,0.0,0.0,0.0,0.0,0.0,0.0,0.0,0.0,0.0,0.0,0.0,0.0,0.0,0.0,0.0,0.0,0.0,0.0,0.0,0.0,0.0,0.0,0.0,0.0,0.0,0.0,0.0,0.0,0.0,0.0,0.0,0.0,0.0,0.0,0.0,0.0,0.0,0.0,0.0,0.0,0.0,0.0,0.0,0.0,0.0,0.0,0.0,0.0,0.0,0.0,0.0,0.0,0.0,0.0,0.0,0.0,0.0,0.0,0.0,0.0,0.0,0.0,0.0,0.0,0.0,0.0,0.0,0.0,0.0,1.0475,1.0708,1.0715,1.0715,0.0,0.0,0.0,0.0,0.0,0.0,0.0,0.0,0.0,0.0,0.0,0.0,0.0,0.0,0.0,0.0,0.0,0.0,0.0,0.0,0.0,0.0,0.0,0.0,0.0,0.0,0.0,0.0,0.0,0.0,0.0,0.0,0.0,0.0,0.0,0.0,0.0,0.0,0.0,0.0,0.0,0.0,0.0,0.0,0.0,0.0,0.0,0.0,0.0,0.0,0.0,0.0,0.0,0.0,0.0,0.0,0.0,0.0,0.0,0.0,0.0,0.0,0.0,0.0,0.0,0.0,0.0,0.0,0.0,0.0,0.0,0.0,0.0,0.0,0.0,0.0,0.0,0.0,0.0,0.0,0.0,0.0,0.0,0.0,0.0,0.0,0.0,0.0,0.0,0.0,0.0,0.0,0.0,0.0,0.0,0.0,0.0,0.0,0.0,0.0,0.0,0.0,0.0,0.0,0.0,0.0,0.0,0.0,0.0,0.0,1.0575,1.0776,1.0926,1.0776,1.0715,1.0715,0.0,0.0,0.0,0.0,0.0,0.0,0.0,0.0,0.0,0.0,0.0,0.0,0.0,0.0,0.0,0.0,0.0,0.0,0.0,0.0,0.0,0.0,0.0,0.0,0.0,0.0,0.0,0.0,0.0,0.0,0.0,0.0,0.0,0.0,0.0,0.0,0.0,0.0,0.0,0.0,0.0,0.0,0.0,0.0,0.0,0.0,0.0,0.0,0.0,0.0,0.0,0.0,0.0,0.0,0.0,0.0,0.0,0.0,0.0,0.0,0.0,0.0,0.0,0.0,0.0,0.0,0.0,0.0,0.0,0.0,0.0,0.0,0.0,0.0,0.0,0.0,0.0,0.0,0.0,0.0,0.0,0.0,0.0,0.0,0.0,0.0,0.0,0.0,0.0,0.0,0.0,0.0,0.0,0.0,0.0,0.0,0.0,0.0,0.0,0.0,0.0,0.0,0.0,0.0,0.0,0.0,0.0,0.0,1.1432,1.1008,1.0991,1.1532,1.1008,1.0708,0.0,0.0,0.0,0.0,0.0,0.0,0.0,0.0,0.0,0.0,0.0,0.0,0.0,0.0,0.0,0.0,0.0,0.0,0.0,0.0,0.0,0.0,0.0,0.0,0.0,0.0,0.0,0.0,0.0,0.0,0.0,0.0,0.0,0.0,0.0,0.0,0.0,0.0,0.0,0.0,0.0,0.0,0.0,0.0,0.0,0.0,0.0,0.0,0.0,0.0,0.0,0.0,0.0,0.0,0.0,0.0,0.0,0.0,0.0,0.0,0.0,0.0,0.0,0.0,0.0,0.0,0.0,0.0,0.0,0.0,0.0,0.0,0.0,0.0,0.0,0.0,0.0,0.0,0.0,0.0,0.0,0.0,0.0,0.0,0.0,0.0,0.0,0.0,0.0,0.0,0.0,0.0,0.0,0.0,0.0,0.0,0.0,0.0,0.0,0.0,0.0,0.0,0.0,0.0,0.0,0.0,0.0,0.0,0.0,1.159,1.1718,1.1886,1.2069,1.1209,1.0883,0.0,0.0,0.0,0.0,0.0,0.0,0.0,0.0,0.0,0.0,0.0,0.0,0.0,0.0,0.0,0.0,0.0,0.0,0.0,0.0,0.0,0.0,0.0,0.0,0.0,0.0,0.0,0.0,0.0,0.0,0.0,0.0,0.0,0.0,0.0,0.0,0.0,0.0,0.0,0.0,0.0,0.0,0.0,0.0,0.0,0.0,0.0,0.0,0.0,0.0,0.0,0.0,0.0,0.0,0.0,0.0,0.0,0.0,0.0,0.0,0.0,0.0,0.0,0.0,0.0,0.0,0.0,0.0,0.0,0.0,0.0,0.0,0.0,0.0,0.0,0.0,0.0,0.0,0.0,0.0,0.0,0.0,0.0,0.0,0.0,0.0,0.0,0.0,0.0,0.0,0.0,0.0,0.0,0.0,0.0,0.0,0.0,0.0,0.0,0.0,0.0,0.0,0.0,0.0,0.0,0.0,0.0,0.0,0.0,1.2403,1.2764,1.2965,1.2914,1.2011,1.1628,0.0,0.0,0.0,0.0,0.0,0.0,0.0,0.0,0.0,0.0,0.0,0.0,0.0,0.0,0.0,0.0,0.0,0.0,0.0,0.0,0.0,0.0,0.0,0.0,0.0,0.0,0.0,0.0,0.0,0.0,0.0,0.0,0.0,0.0,0.0,0.0,0.0,0.0,0.0,0.0,0.0,0.0,0.0,0.0,0.0,0.0,0.0,0.0,0.0,0.0,0.0,0.0,0.0,0.0,0.0,0.0,0.0,0.0,0.0,0.0,0.0,0.0,0.0,0.0,0.0,0.0,0.0,0.0,0.0,0.0,0.0,0.0,0.0,0.0,0.0,0.0,0.0,0.0,0.0,0.0,0.0,0.0,0.0,0.0,0.0,0.0,0.0,0.0,0.0,0.0,0.0,0.0,0.0,0.0,0.0,0.0,0.0,0.0,0.0,0.0,0.0,0.0,0.0,0.0,0.0,0.0,0.0,0.0,1.2453,1.4015,1.4091,1.4056,1.4091,1.3433,1.2931,0.0,0.0,0.0,0.0,0.0,0.0,0.0,0.0,0.0,0.0,0.0,0.0,0.0,0.0,0.0,0.0,0.0,0.0,0.0,0.0,0.0,0.0,0.0,0.0,0.0,0.0,0.0,0.0,0.0,0.0,0.0,0.0,0.0,0.0,0.0,0.0,0.0,0.0,0.0,0.0,0.0,0.0,0.0,0.0,0.0,0.0,0.0,0.0,0.0,0.0,0.0,0.0,0.0,0.0,0.0,0.0,0.0,0.0,0.0,0.0,0.0,0.0,0.0,0.0,0.0,0.0,0.0,0.0,0.0,0.0,0.0,0.0,0.0,0.0,0.0,0.0,0.0,0.0,0.0,0.0,0.0,0.0,0.0,0.0,0.0,0.0,0.0,0.0,0.0,0.0,0.0,0.0,0.0,0.0,0.0,0.0,0.0,0.0,0.0,0.0,0.0,0.0,0.0,0.0,0.0,0.0,0.0,0.0,0.0,1.4617,1.4651,1.4484,1.4116,1.3534,1.3324,0.0,0.0,0.0,0.0,0.0,0.0,0.0,0.0,0.0,0.0,0.0,0.0,0.0,0.0,0.0,0.0,0.0,0.0,0.0,0.0,0.0,0.0,0.0,0.0,0.0,0.0,0.0,0.0,0.0,0.0,0.0,0.0,0.0,0.0,0.0,0.0,0.0,0.0,0.0,0.0,0.0,0.0,0.0,0.0,0.0,0.0,0.0,0.0,0.0,0.0,0.0,0.0,0.0,0.0,0.0,0.0,0.0,0.0,0.0,0.0,0.0,0.0,0.0,0.0,0.0,0.0,0.0,0.0,0.0,0.0,0.0,0.0,0.0,0.0,0.0,0.0,0.0,0.0,0.0,0.0,0.0,0.0,0.0,0.0,0.0,0.0,0.0,0.0,0.0,0.0,0.0,0.0,0.0,0.0,0.0,0.0,0.0,0.0,0.0,0.0,0.0,0.0,0.0,0.0,0.0,0.0,0.0,0.0,0.0,1.5502,1.5703,1.5673,1.5356,1.4965,1.4729,1.4676,0.0,0.0,0.0,0.0,0.0,0.0,0.0,0.0,0.0,0.0,0.0,0.0,0.0,0.0,0.0,0.0,0.0,0.0,0.0,0.0,0.0,0.0,0.0,0.0,0.0,0.0,0.0,0.0,0.0,0.0,0.0,0.0,0.0,0.0,0.0,0.0,0.0,0.0,0.0,0.0,0.0,0.0,0.0,0.0,0.0,0.0,0.0,0.0,0.0,0.0,0.0,0.0,0.0,0.0,0.0,0.0,0.0,0.0,0.0,0.0,0.0,0.0,0.0,0.0,0.0,0.0,0.0,0.0,0.0,0.0,0.0,0.0,0.0,0.0,0.0,0.0,0.0,0.0,0.0,0.0,0.0,0.0,0.0,0.0,0.0,0.0,0.0,0.0,0.0,0.0,0.0,0.0,0.0,0.0,0.0,0.0,0.0,0.0,0.0,0.0,0.0,0.0,0.0,0.0,0.0,0.0,0.0,0.0,1.6611,1.725,1.7512,1.7373,1.7311,1.6859,0.0,0.0,0.0,0.0,0.0,0.0,0.0,0.0,0.0,0.0,0.0,0.0,0.0,0.0,0.0,0.0,0.0,0.0,0.0,0.0,0.0,0.0,0.0,0.0,0.0,0.0,0.0,0.0,0.0,0.0,0.0,0.0,0.0,0.0,0.0,0.0,0.0,0.0,0.0,0.0,0.0,0.0,0.0,0.0,0.0,0.0,0.0,0.0,0.0,0.0,0.0,0.0,0.0,0.0,0.0,0.0,0.0,0.0,0.0,0.0,0.0,0.0,0.0,0.0,0.0,0.0,0.0,0.0,0.0,0.0,0.0,0.0,0.0,0.0,0.0,0.0,0.0,0.0,0.0,0.0,0.0,0.0,0.0,0.0,0.0,0.0,0.0,0.0,0.0,0.0,0.0,0.0,0.0,0.0,0.0,0.0,0.0,0.0,0.0,0.0,0.0,0.0,0.0,0.0,0.0,0.0,0.0,0.0,0.0,1.7827,1.912,1.9057,1.7462,1.6974,1.6823,0.0,0.0,0.0,0.0,0.0,0.0,0.0,0.0,0.0,0.0,0.0,0.0,0.0,0.0,0.0,0.0,0.0,0.0,0.0,0.0,0.0,0.0,0.0,0.0,0.0,0.0,0.0,0.0,0.0,0.0,0.0,0.0,0.0,0.0,0.0,0.0,0.0,0.0,0.0,0.0,0.0,0.0,0.0,0.0,0.0,0.0,0.0,0.0,0.0,0.0,0.0,0.0,0.0,0.0,0.0,0.0,0.0,0.0,0.0,0.0,0.0,0.0,0.0,0.0,0.0,0.0,0.0,0.0,0.0,0.0,0.0,0.0,0.0,0.0,0.0,0.0,0.0,0.0,0.0,0.0,0.0,0.0,0.0,0.0,0.0,0.0,0.0,0.0,0.0,0.0,0.0,0.0,0.0,0.0,0.0,0.0,0.0,0.0,0.0,0.0,0.0,0.0,0.0,0.0,0.0,0.0,0.0,0.0,1.8385,1.8093,1.932,1.9459,1.843,1.7866,1.7489,0.0,0.0,0.0,0.0,0.0,0.0,0.0,0.0,0.0,0.0,0.0,0.0,0.0,0.0,0.0,0.0,0.0,0.0,0.0,0.0,0.0,0.0,0.0,0.0,0.0,0.0,0.0,0.0,0.0,0.0,0.0,0.0,0.0,0.0,0.0,0.0,0.0,0.0,0.0,0.0,0.0,0.0,0.0,0.0,0.0,0.0,0.0,0.0,0.0,0.0,0.0,0.0,0.0,0.0,0.0,0.0,0.0,0.0,0.0,0.0,0.0,0.0,0.0,0.0,0.0,0.0,0.0,0.0,0.0,0.0,0.0,0.0,0.0,0.0,0.0,0.0,0.0,0.0,0.0,0.0,0.0,0.0,0.0,0.0,0.0,0.0,0.0,0.0,0.0,0.0,0.0,0.0,0.0,0.0,0.0,0.0,0.0,0.0,0.0,0.0,0.0,0.0,0.0,0.0,0.0,0.0,0.0,0.0,1.8532,1.7884,1.8665,1.928,1.9603,1.9108,1.8406,0.0,0.0,0.0,0.0,0.0,0.0,0.0,0.0,0.0,0.0,0.0,0.0,0.0,0.0,0.0,0.0,0.0,0.0,0.0,0.0,0.0,0.0,0.0,0.0,0.0,0.0,0.0,0.0,0.0,0.0,0.0,0.0,0.0,0.0,0.0,0.0,0.0,0.0,0.0,0.0,0.0,0.0,0.0,0.0,0.0,0.0,0.0,0.0,0.0,0.0,0.0,0.0,0.0,0.0,0.0,0.0,0.0,0.0,0.0,0.0,0.0,0.0,0.0,0.0,0.0,0.0,0.0,0.0,0.0,0.0,0.0,0.0,0.0,0.0,0.0,0.0,0.0,0.0,0.0,0.0,0.0,0.0,0.0,0.0,0.0,0.0,0.0,0.0,0.0,0.0,0.0,0.0,0.0,0.0,0.0,0.0,0.0,0.0,0.0,0.0,0.0,0.0,0.0,0.0,0.0,0.0,0.0,0.0,1.7801,1.7607,1.8965,1.9341,1.8625,1.8043,1.7827,0.0,0.0,0.0,0.0,0.0,0.0,0.0,0.0,0.0,0.0,0.0,0.0,0.0,0.0,0.0,0.0,0.0,0.0,0.0,0.0,0.0,0.0,0.0,0.0,0.0,0.0,0.0,0.0,0.0,0.0,0.0,0.0,0.0,0.0,0.0,0.0,0.0,0.0,0.0,0.0,0.0,0.0,0.0,0.0,0.0,0.0,0.0,0.0,1.8607,0.0,0.0,0.0,0.0,0.0,0.0,0.0,0.0,0.0,0.0,0.0,0.0,0.0,0.0,0.0,0.0,0.0,0.0,0.0,0.0,0.0,0.0,0.0,0.0,0.0,0.0,0.0,0.0,0.0,0.0,0.0,0.0,0.0,0.0,0.0,0.0,0.0,0.0,0.0,0.0,0.0,0.0,0.0,0.0,0.0,0.0,0.0,0.0,0.0,0.0,0.0,0.0,0.0,0.0,0.0,0.0,0.0,0.0,0.0,1.8113,1.7781,1.891,1.9164,1.8401,1.7785,1.76,0.0,0.0,0.0,0.0,0.0,0.0,0.0,0.0,0.0,0.0,0.0,0.0,0.0,0.0,0.0,0.0,0.0,0.0,0.0,0.0,0.0,0.0,0.0,0.0,0.0,0.0,0.0,0.0,0.0,0.0,0.0,0.0,0.0,0.0,0.0,0.0,0.0,0.0,0.0,0.0,0.0,0.0,0.0,0.0,0.0,0.0,0.0,0.0,0.0,0.0,0.0,0.0,0.0,0.0,0.0,0.0,0.0,0.0,0.0,0.0,0.0,0.0,0.0,0.0,0.0,0.0,0.0,0.0,0.0,0.0,0.0,0.0,0.0,0.0,0.0,0.0,0.0,0.0,0.0,0.0,0.0,0.0,0.0,0.0,0.0,0.0,0.0,0.0,0.0,0.0,0.0,0.0,0.0,0.0,0.0,0.0,0.0,0.0,0.0,0.0,0.0,0.0,0.0,0.0,0.0,0.0,0.0,1.7665,1.8371,1.7832,1.8406,1.8533,1.8158,1.7622,1.7395,1.7517,0.0,0.0,0.0,0.0,0.0,0.0,0.0,0.0,0.0,0.0,0.0,0.0,0.0,0.0,0.0,0.0,0.0,0.0,0.0,0.0,0.0,0.0,0.0,0.0,0.0,0.0,0.0,0.0,0.0,0.0,0.0,0.0,0.0,0.0,0.0,0.0,0.0,0.0,1.6737,1.7275,0.0,0.0,0.0,0.0,0.0,0.0,0.0,0.0,1.966,0.0,0.0,0.0,0.0,0.0,0.0,0.0,0.0,0.0,0.0,0.0,0.0,0.0,0.0,0.0,0.0,0.0,0.0,0.0,0.0,0.0,0.0,0.0,0.0,0.0,0.0,0.0,0.0,0.0,0.0,0.0,0.0,0.0,0.0,0.0,0.0,0.0,0.0,0.0,0.0,0.0,0.0,0.0,0.0,0.0,0.0,0.0,0.0,0.0,0.0,0.0,0.0,0.0,0.0,0.0,0.0,1.6279,1.6484,1.6717,1.6924,1.7034,1.6908,1.6522,1.6603,1.6711,1.6775,0.0,0.0,0.0,0.0,0.0,0.0,0.0,0.0,0.0,0.0,0.0,0.0,0.0,0.0,0.0,0.0,0.0,0.0,0.0,0.0,0.0,0.0,0.0,0.0,0.0,0.0,0.0,0.0,0.0,0.0,0.0,0.0,0.0,0.0,0.0,0.0,0.0,0.0,0.0,1.8393,1.9146,0.0,0.0,0.0,0.0,0.0,0.0,0.0,0.0,2.0566,0.0,0.0,0.0,0.0,0.0,0.0,0.0,0.0,0.0,0.0,0.0,0.0,0.0,0.0,0.0,0.0,0.0,0.0,0.0,0.0,0.0,0.0,0.0,0.0,0.0,0.0,0.0,0.0,0.0,0.0,0.0,0.0,0.0,0.0,0.0,0.0,0.0,0.0,0.0,0.0,0.0,0.0,0.0,0.0,0.0,0.0,0.0,0.0,0.0,0.0,0.0,0.0,0.0,0.0,0.0,1.5917,1.6675,1.7054,1.707,1.7269,1.6973,1.6154,1.6792,1.6885,0.0,0.0,0.0,0.0,0.0,0.0,0.0,0.0,0.0,0.0,0.0,0.0,0.0,0.0,0.0,0.0,0.0,0.0,0.0,0.0,0.0,0.0,0.0,0.0,0.0,0.0,0.0,0.0,0.0,0.0,0.0,0.0,0.0,0.0,0.0,0.0,0.0,0.0,0.0,0.0,1.9246,1.9836,2.0968,0.0,0.0,0.0,0.0,0.0,0.0,2.1633,2.1219,0.0,0.0,0.0,0.0,0.0,0.0,0.0,0.0,0.0,0.0,0.0,0.0,0.0,0.0,0.0,0.0,0.0,0.0,0.0,0.0,0.0,0.0,0.0,0.0,0.0,0.0,0.0,0.0,0.0,0.0,0.0,0.0,0.0,0.0,0.0,0.0,0.0,0.0,0.0,0.0,0.0,0.0,0.0,0.0,0.0,0.0,0.0,0.0,0.0,0.0,0.0,0.0,0.0,0.0,0.0,1.5615,1.709,1.7754,1.7556,1.7754,1.7383,1.6429,1.7206,1.7216,0.0,0.0,0.0,0.0,0.0,0.0,0.0,0.0,0.0,0.0,0.0,0.0,0.0,0.0,0.0,0.0,0.0,0.0,0.0,0.0,0.0,0.0,0.0,0.0,0.0,0.0,0.0,0.0,0.0,0.0,0.0,0.0,0.0,0.0,0.0,0.0,0.0,0.0,0.0,0.0,0.0,2.0388,2.1507,2.202,0.0,0.0,0.0,0.0,2.2443,2.202,0.0,0.0,0.0,0.0,0.0,0.0,0.0,0.0,0.0,0.0,0.0,0.0,0.0,0.0,0.0,0.0,0.0,0.0,0.0,0.0,0.0,0.0,0.0,0.0,0.0,0.0,0.0,0.0,0.0,0.0,0.0,0.0,0.0,0.0,0.0,0.0,0.0,0.0,0.0,0.0,0.0,0.0,0.0,0.0,0.0,0.0,0.0,0.0,0.0,0.0,0.0,0.0,0.0,0.0,0.0,0.0,1.6037,1.6985,1.7634,1.791,1.7634,1.7399,1.7259,1.7262,1.7137,0.0,0.0,0.0,0.0,0.0,0.0,0.0,0.0,0.0,0.0,0.0,0.0,0.0,0.0,0.0,0.0,0.0,0.0,0.0,0.0,0.0,0.0,0.0,0.0,0.0,0.0,0.0,0.0,0.0,0.0,0.0,0.0,0.0,0.0,0.0,0.0,0.0,0.0,0.0,0.0,0.0,2.0993,2.2056,2.2272,2.2458,0.0,0.0,2.302,2.302,2.2543,0.0,0.0,0.0,0.0,0.0,0.0,0.0,0.0,0.0,0.0,0.0,0.0,0.0,0.0,0.0,0.0,0.0,0.0,0.0,0.0,0.0,0.0,0.0,0.0,0.0,0.0,0.0,0.0,0.0,0.0,0.0,0.0,0.0,0.0,0.0,0.0,0.0,0.0,0.0,0.0,0.0,0.0,0.0,0.0,0.0,0.0,0.0,0.0,0.0,0.0,0.0,0.0,0.0,0.0,0.0,1.583,1.6461,1.7539,1.8166,1.8325,1.8166,1.8087,1.8076,1.8436,1.8208,0.0,0.0,0.0,0.0,0.0,0.0,0.0,0.0,0.0,0.0,0.0,0.0,0.0,0.0,0.0,0.0,0.0,0.0,0.0,0.0,0.0,0.0,0.0,0.0,0.0,0.0,0.0,0.0,0.0,0.0,0.0,0.0,0.0,0.0,0.0,0.0,0.0,0.0,0.0,0.0,0.0,0.0,2.2608,2.305,0.0,0.0,0.0,2.3512,2.3145,0.0,0.0,0.0,0.0,0.0,0.0,0.0,0.0,0.0,0.0,0.0,0.0,0.0,0.0,0.0,0.0,0.0,0.0,0.0,0.0,0.0,0.0,0.0,0.0,0.0,0.0,0.0,0.0,0.0,0.0,0.0,0.0,0.0,0.0,0.0,0.0,0.0,0.0,0.0,0.0,0.0,0.0,0.0,0.0,0.0,0.0,0.0,0.0,0.0,0.0,0.0,0.0,0.0,0.0,0.0,0.0,0.0,1.6687,1.7857,1.85,1.8598,1.85,1.8495,1.8598,1.9206,0.0,0.0,0.0,0.0,0.0,0.0,0.0,0.0,0.0,0.0,0.0,0.0,0.0,0.0,0.0,0.0,0.0,0.0,0.0,0.0,0.0,0.0,0.0,0.0,0.0,0.0,0.0,1.1252,0.0,0.0,0.0,0.0,0.0,0.0,0.0,0.0,0.0,0.0,0.0,0.0,0.0,0.0,2.2046,2.297,2.3487,2.3662,0.0,0.0,2.3904,2.3587,2.3396,2.3321,0.0,0.0,0.0,0.0,0.0,0.0,0.0,0.0,0.0,0.0,0.0,0.0,0.0,0.0,0.0,0.0,0.0,0.0,0.0,0.0,0.0,0.0,0.0,0.0,0.0,0.0,0.0,0.0,0.0,0.0,0.0,0.0,0.0,0.0,0.0,0.0,0.0,0.0,0.0,0.0,0.0,0.0,0.0,0.0,0.0,0.0,0.0,0.0,0.0,0.0,0.0,0.0,0.0,0.0,1.584,1.6687,1.7581,1.8208,1.8559,1.8242,1.8203,1.8586,1.8957,1.8607,0.0,0.0,0.0,0.0,0.0,0.0,0.0,0.0,0.0,0.0,0.0,0.0,0.0,0.0,0.0,0.0,0.0,0.0,0.0,0.0,0.0,0.0,0.0,0.0,0.0,0.0,0.0,0.0,0.0,0.0,0.0,0.0,0.0,0.0,0.0,0.0,0.0,0.0,0.0,0.0,0.0,2.2458,2.302,2.3145,2.3346,0.0,2.3979,2.4155,2.4616,2.4239,2.3954,2.3954,0.0,0.0,0.0,0.0,0.0,0.0,0.0,0.0,0.0,0.0,0.0,0.0,0.0,0.0,0.0,0.0,0.0,0.0,0.0,0.0,0.0,0.0,0.0,0.0,0.0,0.0,0.0,0.0,0.0,0.0,0.0,0.0,0.0,0.0,0.0,0.0,0.0,0.0,0.0,0.0,0.0,0.0,0.0,0.0,0.0,0.0,0.0,0.0,0.0,0.0,0.0,0.0,0.0,1.6265,1.7129,1.7698,1.8205,1.8559,1.8188,1.8339,1.9026,1.916,1.8882,0.0,0.0,0.0,0.0,0.0,0.0,0.0,0.0,0.0,0.0,0.0,0.0,0.0,0.0,0.0,0.0,0.0,0.0,0.0,0.0,0.0,0.0,0.0,0.0,0.0,0.0,0.0,0.0,1.4799,1.5854,1.6532,0.0,0.0,0.0,0.0,0.0,0.0,0.0,0.0,0.0,0.0,2.301,2.3562,2.4214,0.0,0.0,2.4782,2.4933,2.4816,2.4641,2.4656,2.5195,2.5584,0.0,0.0,0.0,0.0,0.0,0.0,0.0,0.0,0.0,0.0,0.0,0.0,0.0,0.0,0.0,0.0,0.0,0.0,0.0,0.0,0.0,0.0,0.0,0.0,0.0,0.0,0.0,0.0,0.0,0.0,0.0,0.0,0.0,0.0,0.0,0.0,0.0,0.0,0.0,0.0,0.0,0.0,0.0,0.0,0.0,0.0,0.0,0.0,0.0,0.0,0.0,0.0,1.6535,1.7399,1.7793,1.8127,1.8403,1.8147,1.8276,1.8898,1.9034,1.8894,0.0,0.0,0.0,0.0,0.0,0.0,0.0,0.0,0.0,0.0,0.0,0.0,0.0,0.0,0.0,0.0,0.0,0.0,0.0,0.0,0.0,0.0,0.0,0.0,0.0,0.0,0.0,0.0,1.6005,1.7213,1.8318,0.0,0.0,0.0,0.0,0.0,0.0,0.0,0.0,0.0,0.0,2.3587,2.418,2.5034,2.5519,2.5335,2.5762,2.6114,2.6196,2.5844,2.585,2.6722,0.0,0.0,0.0,0.0,0.0,0.0,0.0,0.0,0.0,0.0,0.0,0.0,0.0,0.0,0.0,0.0,0.0,0.0,0.0,0.0,0.0,0.0,0.0,0.0,0.0,0.0,0.0,0.904,0.0,0.0,0.9602,0.0,0.0,0.0,0.0,0.0,0.0,0.0,0.0,0.0,0.0,0.0,0.0,0.0,0.0,0.0,0.0,0.0,0.0,0.0,0.0,0.0,0.0,1.6519,1.7383,1.7793,1.8008,1.8027,1.8008,1.8025,1.8059,1.8416,1.8435,1.8022,0.0,0.0,0.0,0.0,0.0,0.0,0.0,0.0,0.0,0.0,0.0,0.0,0.0,0.0,0.0,0.0,0.0,0.0,0.0,0.0,0.0,0.0,0.0,0.0,0.0,0.0,1.5095,1.6407,1.7839,0.0,0.0,0.0,0.0,0.0,0.0,0.0,0.0,0.0,2.3803,2.3995,2.418,2.4741,2.5259,2.5837,2.6399,2.6909,2.7756,2.9075,2.8158,2.757,0.0,0.0,0.0,0.0,0.0,0.0,0.0,0.0,0.0,0.0,0.0,0.0,0.0,0.0,0.0,0.0,0.0,0.0,0.0,0.0,0.0,0.0,0.0,0.0,0.0,0.0,0.0,1.1968,1.2325,0.0,0.0,0.0,0.0,0.0,0.0,0.0,0.0,0.0,0.0,0.0,1.459,1.4849,0.0,0.0,0.0,0.0,0.0,0.0,0.0,0.0,0.0,0.0,0.0,0.0,1.7106,1.7399,1.781,1.8008,1.8008,1.8008,1.8008,1.8008,1.8127,1.8127,1.7991,0.0,0.0,0.0,0.0,0.0,0.0,0.0,0.0,0.0,0.0,0.0,0.0,0.0,0.0,0.0,0.0,0.0,0.0,0.0,0.0,0.0,0.0,0.0,0.0,0.0,1.764,0.0,0.0,0.0,0.0,0.0,0.0,0.0,0.0,0.0,0.0,2.3276,2.3963,2.4004,2.4607,2.5259,2.5854,2.6381,2.7042,0.0,0.0,0.0,0.0,0.0,0.0,0.0,0.0,0.0,0.0,0.0,0.0,0.0,3.2451,3.1266,3.0352,3.0193,3.0462,3.136,0.0,0.0,0.0,0.0,0.0,0.0,0.0,0.0,0.0,0.0,0.0,0.0,0.0,0.0,1.4092,1.4259,1.3536,0.0,0.0,0.0,0.0,0.0,0.0,0.0,0.0,1.5444,1.5855,1.5718,1.5977,1.6094,1.6094,1.5922,1.5556,0.0,0.0,0.0,0.0,0.0,0.0,0.0,0.0,1.7461,1.7617,1.7991,1.8205,1.8225,1.8361,1.8457,1.8457,1.8457,1.8457,1.8457,1.8283,1.8017,0.0,0.0,0.0,0.0,0.0,0.0,0.0,0.0,0.0,0.0,0.0,0.0,0.0,0.0,0.0,0.0,0.0,0.0,0.0,0.0,0.0,0.0,0.0,1.9434,0.0,0.0,0.0,0.0,0.0,0.0,0.0,0.0,0.0,2.3211,2.4114,2.4892,2.5109,2.5737,2.6407,2.6984,0.0,0.0,0.0,0.0,0.0,0.0,0.0,3.0529,3.0853,3.1103,3.1784,3.3301,3.4191,3.5014,3.5982,0.0,0.0,3.2527,3.2048,3.2242,3.332,3.3529,3.3738,3.4412,3.504,3.5565,0.0,0.0,0.0,0.0,1.6621,0.0,0.0,0.0,1.6427,1.5838,0.0,1.4522,0.0,0.0,0.0,0.0,1.4922,1.6098,0.0,0.0,1.7324,1.7773,1.738,1.738,1.7419,1.7399,1.6957,1.6726,1.6707,1.6344,1.6144,0.0,0.0,0.0,0.0,0.0,1.7653,1.801,1.8403,1.8617,1.8637,1.9062,1.9296,1.9276,1.9297,1.9315,1.9297,1.8908,1.8656,1.8578,1.7099,0.0,0.0,0.0,0.0,0.0,0.0,0.0,0.0,0.0,0.0,0.0,0.0,0.0,0.0,0.0,0.0,0.0,0.0,0.0,0.0,1.9655,0.0,0.0,0.0,0.0,0.0,0.0,0.0,0.0,0.0,2.4892,2.4917,2.4917,2.5469,2.7035,0.0,0.0,0.0,0.0,2.9628,2.9157,2.9986,3.0995,3.1927,3.2177,3.2581,3.3517,0.0,0.0,3.4317,3.529,3.6313,3.7335,3.752,3.7135,3.5938,3.5116,3.4877,3.5549,3.5729,3.5908,3.6523,3.7242,3.7764,1.9987,0.0,0.0,0.0,0.0,1.8394,1.8584,1.8791,1.8746,1.8562,1.8247,1.7554,0.0,0.0,0.0,0.0,0.0,0.0,1.6629,1.6566,1.7246,1.75,1.7435,1.7712,1.7832,1.7832,1.7679,1.764,1.762,1.7519,1.7321,1.7028,0.0,0.0,0.0,0.0,1.8322,1.8442,1.8887,1.9102,1.9102,1.9237,1.9277,1.9277,1.957,1.9746,1.9727,1.9941,1.9727,1.9121,1.8788,0.0,0.0,0.0,0.0,0.0,0.0,0.0,0.0,0.0,0.0,0.0,0.0,0.0,0.0,0.0,0.0,0.0,0.0,0.0,1.9865,2.1466,2.2282,0.0,0.0,0.0,0.0,0.0,0.0,0.0,0.0,0.0,2.71,2.6816,2.6633,0.0,0.0,2.8222,2.9176,2.993,3.0733,3.1738,3.2164,0.0,3.3272,3.3621,3.3986,3.4413,3.5911,3.7203,3.7596,3.8837,3.9865,4.021,3.9858,3.9559,3.9619,3.838,3.7781,3.8691,3.899,3.92,3.9846,4.0146,4.0427,2.1744,2.1078,2.0665,2.0263,1.9965,2.0147,2.043,2.0691,2.0254,1.9968,1.9724,1.8743,1.7693,1.6699,1.6634,0.0,0.0,0.0,1.7194,1.7249,1.7503,1.7732,1.7891,1.8144,1.8322,1.8516,1.8516,1.8516,1.8516,1.8516,1.8398,1.8162,0.0,1.8086,1.8516,1.8752,1.8888,1.8888,1.9298,1.9531,1.9551,1.9726,1.9726,1.9551,1.9785,1.9981,2.0175,2.0254,2.0253,2.0059,1.968,1.9029,0.0,0.0,0.0,0.0,0.0,0.0,0.0,0.0,0.0,0.0,0.0,1.4926,1.449,0.0,0.0,0.0,1.919,1.9892,2.0996,2.2509,0.0,0.0,0.0,0.0,0.0,0.0,0.0,2.5126,2.6766,2.8147,2.8699,2.885,2.8894,2.8768,2.9327,3.0055,3.0959,0.0,3.219,3.2989,3.3269,3.3669,3.4451,3.5162,3.5966,3.7015,3.8762,4.0261,4.0787,4.1661,4.2386,4.2782,4.2611,4.2462,4.2851,4.1923,4.1025,4.1194,4.1194,4.1493,4.2361,4.2551,4.275,2.3246,2.316,2.2171,2.1733,2.1669,2.2157,2.2357,2.2291,2.1253,2.0558,2.0049,1.8775,1.7675,1.6843,1.7285,0.0,1.75,1.791,1.8088,1.8108,1.8088,1.8303,1.8656,1.8656,1.8888,1.9296,1.9277,1.9277,1.9296,1.9277,1.9316,1.9354,1.8947,1.8947,1.9296,1.9335,1.9355,1.9394,1.9805,2.0039,2.0078,2.0488,2.0469,2.002,2.0001,2.0215,2.0605,2.0234,2.0391,2.1171,2.0098,1.9238,1.8754,0.0,0.0,0.0,0.0,0.0,0.0,0.0,0.0,0.0,0.0,0.0,0.0,0.0,0.0,2.0964,2.2288,0.0,2.1793,2.324,0.0,0.0,0.0,2.5435,2.6524,2.7135,2.767,2.8172,0.0,0.0,2.993,3.0909,3.1813,3.2416,3.2344,3.2491,3.309,3.3596,3.3872,3.3542,3.3897,3.4622,3.5709,3.6889,3.8451,4.046,4.1608,4.2471,4.338,4.3675,4.4177,4.4929,4.5244,4.5214,4.5244,4.5035,4.4756,4.302,4.271,4.299,4.4018,4.4267,4.4446,2.4415,2.4365,2.4139,2.3512,2.2719,2.2869,2.292,2.289,2.2613,2.2436,2.2247,2.0689,1.9134,1.7718,1.8127,1.8305,1.8342,1.8789,1.8984,1.9002,1.9002,1.9043,1.9141,1.9141,1.9199,1.9277,1.9277,1.9277,1.9277,1.9277,1.9471,1.9766,2.0,1.9843,1.9335,1.9609,1.9922,2.0273,2.0684,2.1054,2.1406,2.1544,2.1367,2.0918,2.0878,2.0937,2.1034,2.0957,2.1152,2.168,2.1093,2.0566,2.0136,1.8869,0.0,0.0,0.0,0.0,0.0,0.0,0.0,0.0,0.0,1.7925,1.6626,0.0,1.8453,0.0,2.2777,2.4532,2.4184,2.5578,0.0,0.0,2.6532,2.6967,2.7645,2.8599,2.9271,2.9377,3.0563,3.1466,3.1612,3.2616,3.3649,3.453,3.3671,3.309,3.3646,3.4527,3.5255,3.5625,3.6403,3.7107,3.7577,3.9286,4.1173,4.2678,4.3776,4.4575,4.4857,4.4899,4.4983,4.5263,4.5274,4.5274,4.5334,4.5274,4.5394,4.5304,4.4975,4.4676,4.5005,4.5065,4.5274,2.4816,2.4816,2.4816,2.444,2.3847,2.3863,2.3847,2.3785,2.2982,2.2623,2.2511,2.0791,1.9493,1.8611,1.8791,1.8908,1.8927,1.918,1.9277,1.9277,1.9277,1.9511,1.9862,1.9882,2.0077,2.0449,2.0468,2.0449,2.0449,2.0468,2.0586,2.0801,2.1055,2.0938,2.0488,2.0684,2.0938,2.1172,2.1406,2.1641,2.1896,2.1915,2.1777,2.1523,2.1523,2.1503,2.1523,2.1327,2.1307,2.1582,2.1172,2.084,2.0605,1.9531,1.873,0.0,0.0,0.0,0.0,0.0,0.0,0.0,0.0,0.0,0.0,0.0,1.9141,1.9672,2.3139,2.5181,2.4727,2.6285,2.7462,2.7914,2.8241,2.8699,2.9478,3.0557,3.1281,3.126,3.2466,3.3298,3.3345,3.4051,3.4929,3.5757,3.5328,3.505,3.5328,3.5906,3.6647,3.7773,3.8458,3.9277,4.0248,4.2339,4.3942,4.4703,4.556,4.6172,4.6202,4.6202,4.6172,4.6172,4.6172,4.6172,4.6172,4.6202,4.6352,4.654,4.6471,4.6202,4.6202,4.6202,4.6322,2.5042,2.5118,2.5118,2.5184,2.5202,2.5218,2.5051,2.4694,2.3089,2.2304,2.2081,2.0514,1.9783,1.9677,1.965,1.9635,1.9637,1.9625,1.9609,1.9647,1.9629,2.0038,2.0762,2.0781,2.1172,2.1896,2.1915,2.1915,2.1915,2.1915,2.1915,2.1915,2.1934,2.1993,2.1993,2.2012,2.2012,2.1973,2.2012,2.2072,2.2051,2.2051,2.2032,2.1993,2.1973,2.1973,2.1974,2.1581,2.1385,2.1425,2.1016,2.0781,2.082,1.998,1.9316,0.0,1.8223,0.0,0.0,0.0,0.0,0.0,0.0,0.0,0.0,2.1032,2.071,2.059,2.3682,2.5513,2.5139,2.6772,2.8417,2.9804,3.0131,3.0583,3.1512,3.2612,3.3316,3.3316,3.4176,3.4803,3.4904,3.538,3.5932,3.6532,3.6934,3.716,3.7361,3.7362,3.7976,3.9592,3.9986,4.0881,4.3138,4.4996,4.6048,4.6352,4.6817,4.7309,4.7219,4.7249,4.7279,4.7279,4.7219,4.7249,4.7309,4.7279,4.7279,4.7249,4.7219,4.7189,4.7219,4.7189,4.7309,2.6432,2.6834,2.6816,2.7067,2.7469,2.7494,2.6448,2.48,2.4435,2.3878,2.3206,2.287,2.2287,2.1647,2.1542,2.1466,2.149,2.1431,2.1407,2.1426,2.1406,2.1505,2.1661,2.1661,2.1719,2.1896,2.1915,2.1915,2.1915,2.1915,2.1915,2.1894,2.2227,2.2383,2.2402,0.0,0.0,0.0,2.2734,2.2847,2.2869,2.2888,2.2713,2.2381,2.2383,0.0,2.2402,2.2303,2.2401,2.2691,2.2051,0.0,0.0,0.0,0.0,0.0,0.0,0.0,0.0,0.0,0.0,0.0,2.0286,2.0495,2.0764,2.0692,2.1609,2.3974,2.525,2.6878,2.919,3.0119,3.0753,3.106,3.1913,3.2562,3.2813,3.3746,3.4402,3.4402,3.4979,3.5531,3.5981,3.6533,3.7061,3.7563,3.7789,3.804,3.8492,3.8542,3.8692,3.9144,4.0515,4.2238,4.4652,4.5399,4.6087,4.6826,4.7189,4.7309,4.7309,4.7309,4.7309,4.7309,4.7309,4.7309,4.7309,4.7309,4.7309,4.7309,4.7309,4.7309,4.7309,4.7309,4.7309,2.7462,2.7713,2.7713,2.7846,0.0,2.8122,2.7451,2.6405,2.5913,2.5205,2.4361,2.4343,2.38,2.2824,2.2768,2.2457,2.1928,2.1925,2.1915,2.1915,2.1915,2.2032,2.2207,2.2207,2.2305,2.25,2.2479,2.2479,2.2479,2.25,2.25,2.25,2.2713,2.2791,2.281,2.322,2.322,2.281,2.3025,2.3101,2.3101,2.3337,2.3359,2.3164,2.334,0.0,0.0,0.0,0.0,0.0,0.0,0.0,0.0,2.2013,2.1641,2.1836,2.1485,2.1329,2.1524,2.199,2.2251,2.2212,2.2365,2.2361,2.2147,2.316,2.4233,2.532,2.6878,2.8459,2.9962,3.1389,3.2441,3.2993,3.3545,3.3897,3.3972,3.4603,3.5056,3.5205,3.5832,3.6483,3.6758,3.7261,3.7789,3.8316,3.8467,3.8642,3.9145,3.907,3.9322,4.092,4.307,4.4812,4.6032,4.6322,4.6506,4.7179,4.7309,4.7309,4.7309,4.7309,4.7309,4.7309,4.7309,4.7309,4.7309,4.7309,4.7399,4.7698,4.7788,4.7908,4.8139,4.7758,4.7429,2.8172,2.8247,2.8229,2.8279,2.8398,2.8398,2.8398,2.8318,2.731,0.0,0.0,2.5701,2.5199,2.4296,2.4006,2.3387,2.2551,2.2237,2.2109,2.2109,2.2109,2.2285,2.2596,2.2615,2.2791,2.3081,2.3201,2.322,2.3218,2.3276,2.3315,2.3315,2.3315,2.3357,2.3354,2.3789,2.3848,2.3474,2.3454,2.3454,2.3474,2.3906,2.4141,2.4141,2.4449,2.443,2.4046,2.4046,2.3809,2.3354,2.3301,2.3301,2.3318,2.2947,2.2773,2.2832,2.2519,2.248,2.2854,2.3604,2.4015,2.3893,2.4355,2.4394,2.3888,2.5529,2.6455,2.597,2.8288,2.9869,3.0125,3.2089,3.3721,3.4603,3.4778,3.4828,3.4879,3.5431,3.5832,3.5884,3.6709,3.7411,3.7537,3.7889,3.8366,3.8894,3.9044,3.9195,3.9521,3.9346,4.0078,4.277,4.4651,4.6484,4.7201,4.7244,4.7309,4.7287,4.7309,4.7309,4.7309,4.7309,4.7309,4.7309,4.7347,4.7489,4.7489,4.7668,4.7848,4.8356,4.8468,4.8648,4.9037,4.8438,4.7908,2.838,2.8806,2.8806,2.9082,2.9553,2.9553,2.9572,2.9478,2.8394,2.7822,2.7711,2.7693,2.7613,2.7378,2.5942,2.5229,2.4989,2.3587,2.2947,2.2947,2.2947,2.2986,2.3003,2.3003,2.3042,2.312,2.3516,2.3711,2.373,2.404,2.4215,2.4196,2.4215,2.4215,2.4254,2.4691,2.4887,2.4828,2.4828,2.4809,2.4828,2.521,2.5445,2.5421,2.5484,2.5352,2.4949,2.4926,2.4711,2.4235,2.3906,2.3867,2.4176,2.3867,2.3769,2.4079,2.4102,2.4079,2.4137,2.4255,2.4359,2.4355,2.5054,2.5165,2.4388,2.4587,2.5487,2.711,2.8761,3.0376,3.2042,3.3521,3.4482,3.4753,3.5132,3.5382,3.5458,3.6309,3.691,3.6935,3.7487,3.8115,3.8492,3.8693,3.8969,3.9396,3.9496,3.9597,3.9647,3.9647,4.0691,4.2807,4.3764,4.4955,4.6748,4.7309,4.7309,4.7309,4.7309,4.7339,4.7399,4.7399,4.7399,4.7369,4.7818,4.8117,4.8177,4.8648,4.8917,4.9127,4.9157,4.9217,4.9396,4.9187,4.9037,2.9176,2.9383,2.9383,2.9553,2.9779,2.9779,2.9779,2.9754,2.9271,2.9026,2.9026,2.9026,2.8698,2.7999,2.67,2.5737,2.5097,2.3721,2.3101,2.3142,2.3357,2.3496,2.3516,2.3708,2.3806,2.3803,2.4001,2.4121,2.416,2.4293,2.4414,2.4434,2.4648,2.4883,2.5113,2.5566,2.5923,2.6138,2.5664,2.543,2.5425,2.5835,2.6094,2.6094,2.6284,2.6323,2.6133,2.6133,2.6035,2.5815,2.5644,2.5625,2.5776,2.5644,2.5601,2.5776,2.5796,2.5796,2.584,2.5796,2.5796,2.5815,2.6167,2.6245,2.5859,2.6432,2.7201,2.8174,2.9445,3.0707,3.2033,3.3291,3.4566,3.5936,3.6282,3.6558,3.6836,3.7262,3.7637,3.7713,3.8115,3.8567,3.8869,3.9145,3.9396,3.9672,3.9697,3.9697,3.9749,4.0338,4.1369,4.3194,4.4656,4.5913,4.7084,4.7309,4.7309,4.7309,4.7309,4.7459,4.7728,4.7848,4.7967,4.8319,4.8648,4.8798,4.8858,4.909,4.9396,4.9733,4.9793,4.9883,5.0182,5.0331,5.0212,2.9779,2.9779,2.9779,2.9779,2.9824,2.993,2.998,2.998,3.0105,3.0156,3.0131,2.9924,2.9356,2.8599,2.7525,2.6643,2.5849,2.4756,2.4233,2.4274,2.462,2.4781,2.4735,2.4851,2.4831,2.4782,2.465,2.457,2.457,2.4645,2.4742,2.4902,2.5317,2.5684,2.5986,2.6445,2.6861,2.7109,2.6576,2.6245,2.6167,2.6602,2.6842,2.6861,2.7129,2.722,2.7168,2.7168,2.7103,2.7031,2.7012,2.7012,2.7012,2.7012,2.7012,2.7012,2.7012,2.7012,2.7012,2.7012,2.7012,2.7012,2.7109,2.7168,2.7245,2.8177,2.8741,2.8727,2.9663,3.074,3.1614,3.3036,3.4703,3.6652,3.7216,3.7487,3.7914,3.8115,3.8191,3.8266,3.8693,3.907,3.917,3.9421,3.9672,3.9672,3.9697,3.9697,3.9852,4.0969,4.2423,4.3551,4.5463,4.677,4.7201,4.7309,4.7309,4.7309,4.7459,4.7758,4.8169,4.8379,4.8678,4.9097,4.9396,4.9486,4.9516,4.9696,4.9942,5.0338,5.0428,5.0578,5.099,5.1086,5.1026,2.9818,2.9779,2.9887,2.9779,2.988,3.0312,3.0512,3.0583,3.1009,3.1256,3.1105,3.0231,3.0066,3.0179,2.9148,2.8807,2.9085,2.8129,2.7544,2.7478,2.7676,2.7698,2.7393,2.6552,2.6127,2.5963,2.5365,2.5024,2.5019,2.541,2.5776,2.6211,2.6621,2.6836,2.6908,2.7324,2.7585,2.7643,2.7936,2.7871,2.7565,2.791,2.8105,2.8125,2.8144,2.7988,2.7643,2.765,2.7448,2.7051,2.7051,2.7031,2.7031,2.7031,2.7006,2.7031,2.7031,2.7012,2.7031,2.7012,2.7051,2.7031,2.7448,2.7663,2.7702,2.8408,2.8586,2.8304,2.9075,3.0193,3.1089,3.3399,3.5195,3.6196,3.7245,3.7965,3.8115,3.8492,3.8818,3.8818,3.9271,3.9622,3.9572,3.9647,3.9697,3.9697,3.9697,3.98,4.0083,4.1739,4.3242,4.3693,4.4789,4.6077,4.6997,4.7309,4.7399,4.7399,4.7818,4.8259,4.8558,4.8917,4.9277,4.9583,4.9823,5.0099,5.0249,5.0578,5.096,5.0907,5.0996,5.1116,5.1206,5.1206,5.1116,3.1683,3.1164,3.152,3.1303,3.0823,3.0984,3.1085,3.111,3.1286,3.1406,3.1356,3.0929,3.0859,3.0999,2.9928,2.9571,2.9719,2.8632,2.8092,2.805,2.7634,2.7384,2.727,2.6421,2.5956,2.5933,2.5586,2.5469,2.5547,2.5874,2.6323,2.6758,2.7213,2.7428,2.7467,2.7832,2.8027,2.8073,2.8203,2.8203,2.8112,2.823,2.8301,2.8301,2.8301,2.8223,2.8093,2.8054,2.7949,2.7773,2.7773,2.7773,2.7773,2.7773,2.7773,2.7773,2.7773,2.7773,2.7773,2.7773,2.7891,2.8125,2.8301,2.8523,2.8797,2.9149,2.9168,2.8976,2.9338,3.0422,3.237,3.3704,3.5201,3.7183,3.8191,3.8617,3.8994,3.922,3.9346,3.9396,3.9572,3.9697,3.9697,3.9697,3.9697,3.9697,3.9723,3.9955,4.0718,4.2374,4.3669,4.4581,4.5711,4.6587,4.7252,4.7668,4.7818,4.7967,4.8438,4.8917,4.9374,4.9583,4.9942,5.0301,5.0548,5.0727,5.0787,5.0936,5.1206,5.1206,5.1206,5.1206,5.1206,5.1206,5.1206,3.2998,3.2374,3.2503,3.2109,3.1432,3.1562,3.1612,3.1637,3.1788,3.1859,3.1884,3.1884,3.1859,3.1709,3.0873,3.0537,3.0574,2.9848,2.9481,2.9417,2.8858,2.8632,2.8496,2.7624,2.7306,2.7314,2.6758,2.63,2.6138,2.6523,2.6894,2.7226,2.7643,2.7858,2.7897,2.8164,2.8301,2.8281,2.8301,2.8301,2.8281,2.8301,2.8301,2.8301,2.8301,2.8301,2.8301,2.8301,2.8301,2.8301,2.8301,2.8301,2.8301,2.8301,2.834,2.8476,2.8574,2.8652,2.866,2.8679,2.8769,2.9043,2.9101,2.9219,2.954,2.9715,2.9774,2.9783,3.0218,3.1554,3.2944,3.3772,3.5372,3.8076,3.8815,3.927,3.9647,3.9697,3.9672,3.9697,3.9672,3.9697,3.9697,3.9697,3.9697,3.9697,4.0032,4.0211,4.1244,4.2641,4.4303,4.4886,4.6188,4.7201,4.7339,4.784,4.8229,4.8528,4.8917,4.9673,5.0189,5.0278,5.0488,5.0787,5.1086,5.1176,5.1086,5.1146,5.1206,5.1206,5.1236,5.1325,5.1558,5.1498,5.1594,3.2987,3.2896,3.1908,3.1599,3.1477,3.1943,3.219,3.2215,3.2717,3.2989,3.2939,3.2964,3.3014,3.2914,3.2264,3.2381,3.2832,3.2682,3.2617,3.2571,3.2562,3.2717,3.276,3.1579,3.108,3.0789,2.8857,2.7577,2.6984,2.7363,2.7643,2.7702,2.8054,2.8242,2.8242,2.8262,2.8301,2.8301,2.8301,2.8301,2.832,2.832,2.834,2.8359,2.8301,2.8301,2.832,2.8301,2.832,2.832,2.8359,2.834,2.832,2.832,2.8516,2.8867,2.9285,2.952,2.9481,2.9481,2.952,2.9559,2.9579,2.9598,2.9735,3.0028,3.0176,3.0176,3.1592,3.2566,3.2738,3.4046,3.5566,3.7549,3.8899,3.9569,3.9672,3.9697,3.9697,3.9697,3.9697,3.9697,3.9697,3.9697,3.9697,3.9904,4.0668,4.1169,4.0945,4.3122,4.4419,4.4679,4.5808,4.7339,4.7369,4.7997,4.8349,4.8745,4.9523,5.0189,5.0398,5.0667,5.0966,5.1146,5.1176,5.1206,5.1206,5.1206,5.1236,5.1265,5.1355,5.1475,5.2067,5.2127,5.2247,3.6305,3.5913,3.4199,3.3513,3.3483,3.3005,3.2788,3.2813,3.2989,3.3115,3.3115,3.3115,3.3115,3.309,3.2889,3.2889,3.314,3.3467,3.3442,3.3107,3.2995,3.2783,3.238,3.1505,3.0663,3.0009,2.9156,2.8266,2.7532,2.7624,2.7839,2.8073,2.8223,2.8301,2.8301,2.8301,2.8301,2.8301,2.8301,2.8418,2.8672,2.8691,2.8809,2.909,2.8601,2.8418,2.8691,2.8691,2.8828,2.9129,2.9149,2.9129,2.9129,2.9129,2.9188,2.9336,2.952,2.9598,2.9598,2.9598,2.9735,2.997,2.998,3.0146,3.0371,3.0547,3.0644,3.0809,3.1177,3.1905,3.3176,3.4997,3.7104,3.8612,3.9362,3.9697,3.9697,3.9697,3.9697,3.9697,3.9697,3.9697,3.9697,3.9697,3.9697,3.9749,4.0134,4.0844,4.2059,4.348,4.4535,4.5821,4.7015,4.7959,4.7938,4.8528,4.9067,4.9591,5.0219,5.0667,5.0936,5.0936,5.1176,5.1176,5.1206,5.1265,5.1265,5.1355,5.1385,5.1798,5.1858,5.2097,5.2719,5.2815,5.2959,3.7849,3.7109,3.5782,3.4979,3.4635,3.3932,3.3432,3.3133,3.3115,3.3115,3.3115,3.3115,3.3115,3.3115,3.3115,3.3115,3.314,3.347,3.3542,3.3376,3.3269,3.3126,3.2892,3.2417,3.1826,3.1097,3.0367,2.9547,2.8551,2.8088,2.8054,2.8281,2.8301,2.8359,2.8457,2.8496,2.8555,2.8672,2.8718,2.8867,2.9101,2.9121,2.9285,2.9461,2.9031,2.8828,2.9121,2.9121,2.9258,2.9559,2.9598,2.9598,2.9598,2.9735,2.9794,2.9813,2.995,3.0028,3.0028,3.0028,3.0146,3.0391,3.043,3.0566,3.0888,3.0928,3.0928,3.0986,3.1441,3.2207,3.3845,3.6031,3.7875,3.887,3.9413,3.9697,3.9697,3.9697,3.9697,3.9697,3.9697,3.9697,3.9697,3.9697,3.9697,3.9697,4.0006,4.1144,4.2471,4.3764,4.4535,4.638,4.7488,4.8252,4.8596,4.9164,4.9523,5.0039,5.0548,5.0996,5.1206,5.1206,5.1206,5.1206,5.1236,5.1325,5.1385,5.1475,5.1858,5.2366,5.2576,5.2755,5.3198,5.3528,5.3707,3.7291,3.6507,3.6204,3.5742,3.502,3.48,3.4142,3.3454,3.324,3.3283,3.3326,3.3158,3.319,3.3165,3.3266,3.319,3.3266,3.3341,3.352,3.38,3.3984,3.424,3.4545,3.4508,3.4552,3.4619,3.3101,3.1553,3.0265,2.9282,2.8754,2.8561,2.8666,2.891,2.8988,2.9055,2.9121,2.9403,2.9461,2.954,2.9598,2.9598,2.9637,2.9676,2.9637,2.9637,2.9637,2.9618,2.9637,2.9676,2.9696,2.9618,2.9774,3.0028,3.0215,3.0273,3.0605,3.082,3.0869,3.081,3.0791,3.0849,3.0859,3.0869,3.0908,3.0928,3.0928,3.1083,3.2121,3.3529,3.4847,3.6514,3.7636,3.7716,3.8999,3.9671,3.9697,3.9697,3.9697,3.9697,3.9697,3.9697,3.9697,3.9697,3.9697,3.9852,4.0491,4.1394,4.2181,4.3693,4.5024,4.5953,4.7325,4.8633,4.9224,4.9763,5.0009,5.0338,5.0787,5.1206,5.1206,5.1206,5.1206,5.1206,5.1206,5.1295,5.1798,5.1947,5.2426,5.2875,5.3084,5.3443,5.3887,5.4251,5.4461,3.8694,3.8331,3.7606,3.7118,3.673,3.6081,3.5514,3.5156,3.4526,3.4204,3.4157,3.3792,3.3646,3.3746,3.4022,3.4198,3.4223,3.4198,3.4123,3.4148,3.5075,3.5403,3.5355,3.568,3.5485,3.4583,3.3088,3.2104,3.1786,3.1633,3.1681,3.1567,3.0992,3.0791,3.0751,2.9936,2.9481,2.9579,2.9598,2.9735,2.9961,3.0,3.0185,3.0478,3.0469,3.0497,3.0469,3.0204,3.0185,3.043,3.0517,3.0488,3.0508,3.0605,3.0684,3.0684,3.0801,3.0928,3.0928,3.0928,3.0928,3.0928,3.0928,3.0928,3.0928,3.0928,3.0928,3.1054,3.2236,3.3388,3.4069,3.6081,3.7769,3.887,3.9413,3.9697,3.9697,3.9697,3.9697,3.9697,3.9697,3.9697,3.9697,3.9697,3.9697,3.9723,4.0185,4.0869,4.2593,4.365,4.5229,4.6938,4.8216,4.9134,4.965,5.0189,5.0578,5.0667,5.0966,5.1206,5.1206,5.1206,5.1206,5.1236,5.1236,5.1558,5.2037,5.2516,5.2995,5.3473,5.3832,5.4251,5.473,5.494,5.497,3.9421,3.9319,3.8675,3.8144,3.7757,3.706,3.6546,3.612,3.5363,3.4993,3.4869,3.4426,3.4198,3.4274,3.4552,3.4703,3.4728,3.4904,3.4929,3.4876,3.5529,3.5956,3.5882,3.6431,3.6324,3.5381,3.4242,3.3683,3.3655,3.3543,3.3491,3.3324,3.2378,3.1831,3.1841,3.0605,2.9891,3.0019,3.0106,3.0224,3.0419,3.0449,3.0605,3.084,3.0928,3.0928,3.0888,3.0605,3.0586,3.084,3.0928,3.0928,3.0928,3.0908,3.0928,3.0928,3.0928,3.0928,3.0928,3.0928,3.0928,3.0928,3.0928,3.0928,3.0928,3.0928,3.1054,3.1796,3.253,3.3536,3.4825,3.6248,3.8111,3.9517,3.9671,3.9697,3.9697,3.9697,3.9697,3.9697,3.9697,3.9697,3.9697,3.9697,3.9697,3.9723,4.0134,4.102,4.3033,4.4152,4.6016,4.7709,4.8917,4.9643,5.0076,5.0607,5.1086,5.1116,5.1146,5.1206,5.1206,5.1206,5.1206,5.1355,5.1409,5.2037,5.2516,5.3025,5.3503,5.4012,5.4491,5.476,5.5059,5.5089,5.5119,3.9421,3.9421,3.9373,3.8815,3.806,3.7957,3.7567,3.6595,3.6095,3.599,3.5833,3.5512,3.5091,3.4981,3.5322,3.5358,3.5029,3.5581,3.6033,3.6182,3.6183,3.6158,3.6607,3.706,3.7139,3.6971,3.6328,3.6041,3.5869,3.5116,3.4279,3.4484,3.3409,3.2444,3.2812,3.1329,3.0934,3.1088,3.1072,3.1062,3.0898,3.0888,3.0859,3.0928,3.0928,3.0928,3.0908,3.0869,3.0869,3.0928,3.0928,3.0928,3.0928,3.0928,3.0928,3.0928,3.0928,3.0928,3.0928,3.0928,3.0928,3.0928,3.0928,3.0928,3.0928,3.117,3.171,3.2758,3.3417,3.4604,3.6676,3.7663,3.84,3.9413,3.9697,3.9697,3.9697,3.9697,3.9697,3.9697,3.9697,3.9697,3.9697,3.9697,3.9697,3.9877,4.0592,4.1667,4.3365,4.4809,4.6633,4.8151,4.9545,5.0009,5.0465,5.0757,5.1206,5.1206,5.1206,5.1206,5.1206,5.1206,5.1206,5.1379,5.1768,5.2396,5.2965,5.3414,5.4012,5.464,5.497,5.5149,5.5234,5.5234,5.5234,3.9421,3.9421,3.9421,3.9247,3.9087,3.9484,3.9579,3.9232,3.8822,3.8564,3.8534,3.8112,3.7555,3.7257,3.756,3.7559,3.7128,3.7211,3.7387,3.7513,3.7438,3.7388,3.7563,3.7713,3.7789,3.7715,3.7593,3.7469,3.7493,3.741,3.7453,3.758,3.6285,3.5906,3.5933,3.4494,3.3436,3.2652,3.2501,3.1949,3.1083,3.0966,3.0928,3.0928,3.0928,3.0928,3.0928,3.0928,3.0928,3.0928,3.0928,3.0928,3.0928,3.0928,3.0928,3.0928,3.0928,3.0928,3.0928,3.0928,3.0928,3.0928,3.1025,3.0928,3.0957,3.194,3.2615,3.3501,3.4853,3.6541,3.7506,3.8453,3.9258,3.9594,3.9697,3.9697,3.9697,3.9697,3.9697,3.9697,3.9697,3.9697,3.9697,3.9697,3.9697,3.98,4.0338,4.1377,4.3518,4.4989,4.6526,4.8719,5.0129,5.0458,5.0787,5.1026,5.1176,5.1206,5.1206,5.1206,5.1206,5.1206,5.1206,5.1265,5.1947,5.2606,5.3144,5.3623,5.4401,5.5149,5.5179,5.5234,5.5234,5.5234,5.5234,3.9421,3.9421,3.9421,3.9571,3.984,4.0217,4.0696,4.1075,4.0781,4.0726,4.0797,4.0412,3.9674,3.8939,3.9166,3.8797,3.8063,3.799,3.8115,3.8417,3.8592,3.8442,3.8165,3.8191,3.8366,3.8417,3.8592,3.8718,3.8768,3.9095,3.922,3.8913,3.8071,3.7533,3.7216,3.6054,3.4958,3.4153,3.4007,3.3304,3.1969,3.1825,3.1383,3.1112,3.0928,3.0928,3.0928,3.0928,3.0928,3.0928,3.0928,3.0928,3.0928,3.0928,3.0928,3.0928,3.0928,3.0928,3.0928,3.0928,3.0928,3.1054,3.1354,3.1412,3.1325,3.2264,3.3219,3.4208,3.5727,3.6999,3.8321,3.9258,3.9645,3.9697,3.9697,3.9697,3.9697,3.9697,3.9697,3.9697,3.9697,3.9697,3.9697,3.9697,3.9697,3.9902,4.0619,4.2167,4.4017,4.5163,4.6709,4.9051,5.0488,5.0817,5.0936,5.1116,5.1206,5.1206,5.1206,5.1206,5.1206,5.1236,5.1385,5.1565,5.2187,5.2785,5.3414,5.4012,5.467,5.5174,5.5204,5.5234,5.5234,5.5234,5.5234,3.9421,3.9421,3.9421,3.981,4.0457,4.0606,4.1463,4.2365,4.2277,4.2391,4.2686,4.238,4.1623,4.0375,4.0769,3.9862,3.8783,3.9155,3.9041,3.9322,3.9423,3.912,3.8492,3.8768,3.8969,3.9044,3.9497,3.9572,3.9521,3.9622,3.9672,3.9415,3.84,3.7875,3.7822,3.6622,3.5809,3.5563,3.5535,3.4764,3.3501,3.3021,3.2501,3.2113,3.1911,3.1643,3.1498,3.1441,3.1614,3.1441,3.1112,3.0928,3.0928,3.0928,3.0928,3.0928,3.0928,3.0928,3.0928,3.0928,3.0928,3.1083,3.2035,3.2473,3.1796,3.2729,3.4125,3.5426,3.5645,3.7343,3.8947,3.9697,3.9697,3.9697,3.9697,3.9697,3.9697,3.9697,3.9697,3.9697,3.9697,3.9697,3.9697,3.9697,3.9748,4.0128,4.1081,4.2841,4.4685,4.6292,4.7932,4.9914,5.0787,5.1116,5.1176,5.1206,5.1206,5.1206,5.1206,5.1206,5.1206,5.1295,5.1594,5.1977,5.2486,5.3144,5.3892,5.4491,5.5025,5.5174,5.5204,5.5234,5.5234,5.5234,5.5234,3.9421,3.9421,3.9421,4.0098,4.1164,4.1762,4.269,4.3858,4.4311,4.4472,4.465,4.4567,4.4045,4.3336,4.3183,4.3018,4.2055,4.189,4.1936,4.0912,3.9982,3.9648,3.932,3.9446,3.9496,3.9521,3.9622,3.9697,3.9697,3.9697,3.9697,3.9594,3.9362,3.9207,3.9025,3.8635,3.8111,3.729,3.7026,3.6271,3.4875,3.3873,3.362,3.3979,3.4146,3.3614,3.3077,3.3754,3.4342,3.3838,3.235,3.1286,3.1257,3.1083,3.1054,3.1025,3.0957,3.0928,3.0937,3.1005,3.0957,3.1112,3.1698,3.1738,3.2786,3.3957,3.5431,3.6865,3.8058,3.8687,3.9517,3.9697,3.9697,3.9697,3.9697,3.9697,3.9697,3.9697,3.9697,3.9697,3.9697,3.9697,3.9697,3.9747,3.9976,4.0433,4.1724,4.3468,4.5385,4.7275,4.8793,5.04,5.0936,5.1206,5.1206,5.1206,5.1206,5.1206,5.1206,5.1206,5.1206,5.1325,5.1594,5.2127,5.2719,5.3443,5.4221,5.47,5.5204,5.5204,5.5234,5.5234,5.5234,5.5234,5.5234,3.9888,3.987,4.0217,4.0905,4.1882,4.2571,4.3569,4.4736,4.5463,4.5963,4.6202,4.6232,4.5717,4.4893,4.4838,4.4395,4.3496,4.2834,4.2228,4.1318,4.0338,3.9723,3.9697,3.9697,3.9697,3.9723,3.9697,3.9697,3.9697,3.9697,3.9697,3.9697,3.9697,3.962,3.9697,3.9697,3.9233,3.8713,3.8479,3.782,3.6379,3.5649,3.488,3.5261,3.5288,3.4847,3.432,3.4792,3.5206,3.4902,3.3838,3.2957,3.2758,3.2322,3.1969,3.1862,3.117,3.1383,3.1652,3.1701,3.1669,3.1957,3.286,3.2959,3.3615,3.4808,3.6375,3.7186,3.7994,3.8818,3.9594,3.9697,3.9697,3.9697,3.9697,3.9697,3.9697,3.9697,3.9697,3.9697,3.9697,3.9697,3.9722,3.9873,4.0669,4.1363,4.1628,4.3363,4.6123,4.7893,4.8948,5.0188,5.0851,5.1206,5.1206,5.1206,5.1206,5.1206,5.1206,5.1206,5.1206,5.1355,5.1565,5.2247,5.3019,5.3767,5.4461,5.4935,5.5234,5.5234,5.5234,5.5234,5.5234,5.5234,5.5234,4.0546,4.0606,4.1164,4.1841,4.2571,4.319,4.4207,4.5454,4.6151,4.6689,4.7189,4.7309,4.6578,4.5884,4.5721,4.5018,4.4116,4.3026,4.2665,4.2447,4.1294,4.0819,4.0617,4.0389,4.0185,3.9981,3.9774,3.9723,3.9697,3.9697,3.9697,3.9697,3.9697,3.9697,3.9697,3.9697,3.962,3.9465,3.9439,3.9051,3.7875,3.7423,3.6568,3.5535,3.6217,3.6054,3.5863,3.6054,3.6162,3.5945,3.5945,3.5945,3.5563,3.4376,3.3445,3.3417,3.2493,3.2468,3.2952,3.2888,3.2782,3.3317,3.485,3.5135,3.4287,3.5549,3.7027,3.7534,3.8078,3.8661,3.9542,3.9697,3.9697,3.9697,3.9697,3.9697,3.9697,3.9697,3.9697,3.9697,3.9722,3.9722,3.9973,4.02,4.126,4.219,4.2438,4.3512,4.6307,4.8301,4.9306,5.0204,5.0964,5.1206,5.1206,5.1206,5.1206,5.1206,5.1206,5.1206,5.1206,5.1295,5.1618,5.2576,5.3378,5.4007,5.4576,5.5025,5.5234,5.5234,5.5234,5.5234,5.5234,5.5234,5.5234,4.1254,4.1254,4.1373,4.2073,4.316,4.3848,4.4865,4.6121,4.677,4.7189,4.7279,4.7287,4.7179,4.6931,4.6975,4.677,4.6048,4.4978,4.4442,4.4233,4.3194,4.2544,4.2301,4.1444,4.1169,4.097,4.0313,3.9723,3.9697,3.9697,3.9697,3.9697,3.9697,3.9697,3.9697,3.9697,3.9697,3.9697,3.9697,3.9413,3.9025,3.8163,3.716,3.6081,3.7501,3.7926,3.761,3.8293,3.8973,3.8973,3.8973,3.8868,3.8216,3.6302,3.5189,3.4753,3.4338,3.4019,3.4136,3.4063,3.3793,3.3812,3.4604,3.565,3.5845,3.6782,3.7797,3.8696,3.9006,3.9413,3.9645,3.9697,3.9697,3.9697,3.9697,3.9697,3.9697,3.9697,3.9747,3.9798,3.9798,3.9873,4.0199,4.0655,4.1613,4.2499,4.2959,4.4388,4.6969,4.8513,4.9446,5.0311,5.1105,5.1206,5.1206,5.1206,5.1206,5.1206,5.1206,5.1206,5.1206,5.1206,5.1708,5.2719,5.3378,5.3857,5.4426,5.5055,5.5234,5.5234,5.5234,5.5234,5.5234,5.5234,5.5234,4.1931,4.1961,4.2252,4.2711,4.3429,4.4386,4.5155,4.5873,4.686,4.7309,4.7309,4.7309,4.7309,4.7309,4.7309,4.7309,4.6975,4.601,4.5463,4.5138,4.4163,4.3476,4.3432,4.2252,4.1715,4.1244,4.0364,3.9723,3.9697,3.9697,3.9697,3.9697,3.9697,3.9697,3.9697,3.9697,3.9697,3.9697,3.9697,3.9697,3.9697,3.8868,3.8163,3.8293,3.8712,3.9206,3.9025,3.9155,3.9671,3.9645,3.9671,3.9697,3.9158,3.826,3.6756,3.6067,3.5372,3.5061,3.5034,3.4935,3.4797,3.5277,3.558,3.6012,3.6685,3.7313,3.8229,3.9015,3.9622,3.9697,3.9697,3.9697,3.9697,3.9697,3.9697,3.9697,3.9697,3.9697,3.9823,3.9998,4.0174,4.0325,4.0474,4.1112,4.1989,4.2716,4.3371,4.5287,4.7552,4.8464,4.9284,5.046,5.1206,5.1206,5.1206,5.1206,5.1206,5.1206,5.1206,5.1206,5.1206,5.1206,5.1917,5.2929,5.3438,5.3707,5.4546,5.5234,5.5234,5.5234,5.5234,5.5234,5.5234,5.5234,5.5234,4.259,4.2601,4.31,4.3379,4.3698,4.4766,4.5394,4.5723,4.68,4.7309,4.7309,4.7309,4.7309,4.7309,4.7309,4.7287,4.7222,4.6188,4.5936,4.5734,4.5024,4.4373,4.3952,4.3098,4.2568,4.2593,4.0945,3.9955,3.9723,3.9697,3.9697,3.9697,3.9697,3.9697,3.9697,3.9697,3.9697,3.9697,3.9697,3.9697,3.9697,3.9697,3.9697,3.9697,3.9697,3.9671,3.9543,3.962,3.9697,3.9697,3.9697,3.9647,3.9496,3.9145,3.8237,3.6893,3.5701,3.5674,3.5736,3.5781,3.583,3.6218,3.6998,3.7096,3.714,3.7639,3.8442,3.8894,3.9371,3.9697,3.9697,3.9697,3.9697,3.9697,3.9697,3.9697,3.9697,3.9772,3.9973,4.0199,4.0501,4.0852,4.1128,4.1356,4.2206,4.2995,4.3706,4.5209,4.7223,4.7985,4.896,5.0436,5.1206,5.1206,5.1206,5.1206,5.1206,5.1206,5.1206,5.1206,5.1206,5.1206,5.2067,5.2869,5.3169,5.3558,5.4486,5.5204,5.5234,5.5234,5.5234,5.5234,5.5234,5.5234,5.5234,4.319,4.319,4.326,4.3638,4.4237,4.4975,4.5663,4.6241,4.695,4.7309,4.7309,4.7309,4.7309,4.7309,4.7309,4.7309,4.7222,4.7062,4.6866,4.6726,4.6572,4.644,4.6506,4.5553,4.461,4.4069,4.2325,4.0844,4.0083,3.9852,3.9697,3.9697,3.9697,3.9697,3.9697,3.9697,3.9697,3.9697,3.9697,3.9697,3.9697,3.9697,3.9697,3.9697,3.9697,3.9697,3.9697,3.9697,3.9697,3.9697,3.9672,3.9446,3.9095,3.8969,3.8291,3.7642,3.7295,3.7394,3.6923,3.6675,3.6527,3.675,3.724,3.749,3.7493,3.7967,3.8668,3.8869,3.9346,3.9647,3.9672,3.9697,3.9697,3.9697,3.9697,3.9697,3.9697,3.9948,4.0149,4.0601,4.0951,4.148,4.1909,4.2112,4.2421,4.3216,4.4183,4.5661,4.7094,4.8085,4.901,5.0555,5.1206,5.1206,5.1206,5.1206,5.1206,5.1206,5.1206,5.1206,5.1206,5.1295,5.1917,5.2576,5.2899,5.3528,5.4461,5.4999,5.5119,5.5234,5.5234,5.5234,5.5234,5.5234,5.5234,4.329,4.329,4.329,4.3698,4.4377,4.5035,4.5693,4.636,4.6988,4.7309,4.7309,4.7309,4.7309,4.7309,4.7309,4.7309,4.7309,4.7309,4.7309,4.7309,4.7309,4.7309,4.6931,4.6077,4.544,4.5024,4.3622,4.2032,4.0994,4.0109,3.9697,3.9697,3.9697,3.9697,3.9697,3.9697,3.9697,3.9697,3.9697,3.9697,3.9697,3.9697,3.9697,3.9697,3.9697,3.9697,3.9697,3.9697,3.9697,3.9647,3.9446,3.917,3.8768,3.8341,3.7613,3.7337,3.7037,3.6887,3.6734,3.6758,3.6758,3.6833,3.7085,3.7036,3.7262,3.7914,3.8617,3.8894,3.9095,3.9346,3.9647,3.9697,3.9697,3.9697,3.9697,3.9747,3.9823,4.0124,4.0425,4.0901,4.1403,4.1932,4.2469,4.2785,4.2971,4.3373,4.4455,4.5845,4.7529,4.9112,4.9969,5.0887,5.1206,5.1206,5.1206,5.1206,5.1206,5.1206,5.1206,5.1206,5.1206,5.1468,5.1917,5.2396,5.2839,5.3588,5.4491,5.494,5.5174,5.5234,5.5234,5.5234,5.5234,5.5234,5.5234,4.329,4.329,4.329,4.3788,4.4586,4.5095,4.5783,4.66,4.71,4.7309,4.7309,4.7309,4.7309,4.7309,4.7309,4.7309,4.7309,4.7309,4.7309,4.7309,4.7309,4.7309,4.7062,4.6299,4.5987,4.5824,4.4679,4.3575,4.2568,4.1468,4.0592,3.9774,3.9697,3.9697,3.9697,3.9697,3.9697,3.9697,3.9697,3.9697,3.9697,3.9697,3.9697,3.9697,3.9697,3.9697,3.9672,3.9496,3.9497,3.9396,3.8919,3.8567,3.8266,3.7738,3.7235,3.6959,3.6683,3.6556,3.6505,3.6507,3.6683,3.6909,3.711,3.7235,3.7437,3.7889,3.8341,3.8894,3.9145,3.9396,3.9597,3.9697,3.9697,3.9697,3.9697,3.9772,3.9923,4.03,4.0802,4.1404,4.1882,4.2286,4.2776,4.3309,4.3604,4.3742,4.4752,4.6188,4.8013,4.9999,5.0531,5.1176,5.1206,5.1206,5.1206,5.1206,5.1206,5.1206,5.1206,5.1206,5.1206,5.1295,5.1594,5.2127,5.266,5.3169,5.3803,5.4521,5.5234,5.5234,5.5234,5.5234,5.5234,5.5174,5.5119,4.329,4.329,4.3359,4.4047,4.5185,4.5244,4.6052,4.713,4.7279,4.7309,4.7309,4.7309,4.7309,4.7309,4.7309,4.7309,4.7309,4.7309,4.7309,4.7309,4.7309,4.7309,4.7179,4.7062,4.6997,4.6814,4.5824,4.5229,4.4771,4.3456,4.1789,4.0083,4.016,3.9877,3.9697,3.9697,3.9697,3.9697,3.9697,3.9697,3.9697,3.9697,3.9697,3.9697,3.9697,3.9697,3.9672,3.9271,3.8969,3.8944,3.8366,3.7939,3.7637,3.7261,3.6909,3.6632,3.6607,3.6556,3.6556,3.6505,3.6681,3.7135,3.7436,3.7562,3.7814,3.8391,3.8793,3.8919,3.9245,3.9497,3.9622,3.9697,3.9697,3.9747,3.9823,4.0049,4.0249,4.0601,4.1128,4.1858,4.2311,4.2612,4.318,4.3691,4.418,4.4345,4.6109,4.7554,4.9137,5.0822,5.0893,5.1206,5.1206,5.1206,5.1206,5.1206,5.1206,5.1206,5.1206,5.1206,5.1206,5.1325,5.1415,5.1774,5.2306,5.2695,5.3144,5.3922,5.4606,5.5055,5.5114,5.4755,5.4695,5.4665,5.473,4.5085,4.5061,4.4853,4.497,4.5334,4.5753,4.642,4.7219,4.7309,4.7309,4.7309,4.7309,4.7309,4.7309,4.7309,4.7309,4.7309,4.7309,4.7309,4.7309,4.7309,4.7309,4.7309,4.7309,4.7266,4.7171,4.6682,4.6054,4.5252,4.4909,4.3811,4.2377,4.1344,4.0338,4.0032,3.9749,3.9697,3.9697,3.9697,3.9697,3.9697,3.9697,3.9697,3.9697,3.9697,3.9496,3.9245,3.9019,3.8718,3.8291,3.7789,3.7436,3.716,3.6909,3.6632,3.6482,3.6656,3.6833,3.6808,3.6607,3.6531,3.6607,3.6934,3.7361,3.799,3.8039,3.8567,3.8919,3.9296,3.9421,3.9672,3.9697,3.9722,3.9798,3.9973,4.0249,4.0601,4.0978,4.1482,4.2185,4.2537,4.2838,4.3445,4.4127,4.4562,4.5102,4.7094,4.894,5.0287,5.1206,5.1206,5.1206,5.1206,5.1206,5.1206,5.1206,5.1206,5.1206,5.1206,5.1206,5.1206,5.1206,5.1355,5.1654,5.1917,5.2276,5.2755,5.3414,5.3887,5.4186,5.4132,5.3862,5.3917,5.4097,5.4186,4.6032,4.5855,4.6284,4.6155,4.5798,4.6128,4.6659,4.7219,4.7309,4.7309,4.7309,4.7309,4.7309,4.7309,4.7309,4.7309,4.7309,4.7309,4.7309,4.7309,4.7309,4.7309,4.7309,4.7309,4.7309,4.7309,4.7244,4.6704,4.6144,4.6032,4.5115,4.4069,4.3146,4.2035,4.0516,3.9877,3.9723,3.9697,3.9697,3.9697,3.9697,3.9697,3.9521,3.9471,3.9396,3.912,3.8718,3.8391,3.8115,3.7713,3.7312,3.7009,3.6808,3.6658,3.6455,3.6581,3.6859,3.721,3.716,3.7286,3.7009,3.716,3.7562,3.7914,3.799,3.804,3.8868,3.9396,3.9346,3.927,3.9697,3.9697,3.9697,3.9772,4.0174,4.0474,4.0978,4.1404,4.1934,4.2487,4.2738,4.2995,4.3854,4.4644,4.6135,4.6837,4.8539,4.9897,5.0579,5.1206,5.1206,5.1206,5.1206,5.1206,5.1206,5.1206,5.1206,5.1206,5.1206,5.1206,5.1206,5.1206,5.1206,5.1385,5.1618,5.1858,5.2127,5.2456,5.2845,5.3258,5.3234,5.3264,5.3438,5.3618,5.3498,4.5796,4.5154,4.731,4.7637,4.6829,4.6452,4.6817,4.74,4.7331,4.7309,4.7309,4.7309,4.7309,4.7309,4.7309,4.7309,4.7309,4.7309,4.7309,4.7309,4.7309,4.7309,4.7309,4.7309,4.7309,4.7309,4.7287,4.7222,4.7084,4.6931,4.6255,4.557,4.4743,4.3598,4.1616,4.0313,3.9774,3.9697,3.9697,3.9597,3.9572,3.9521,3.9195,3.8994,3.8868,3.8592,3.8115,3.7763,3.7487,3.7185,3.6808,3.6582,3.6531,3.6557,3.6507,3.6556,3.706,3.7311,3.7336,3.8266,3.8316,3.7889,3.8115,3.8743,3.8919,3.9145,3.9346,3.9622,3.9597,3.9597,3.9697,3.9697,3.9697,3.9948,4.0374,4.0851,4.1379,4.1882,4.2411,4.2688,4.2838,4.3184,4.4098,4.5289,4.7299,4.8763,5.0239,5.0988,5.1159,5.1206,5.1206,5.1206,5.1206,5.1206,5.1206,5.1206,5.1206,5.1206,5.1206,5.1206,5.1206,5.1206,5.1206,5.1206,5.1295,5.1558,5.1439,5.1325,5.1887,5.2456,5.2785,5.2905,5.3079,5.3019,5.2779,4.7868,4.7687,4.8792,4.9011,4.8739,4.8932,4.8777,4.8221,4.7636,4.7309,4.7309,4.7309,4.7309,4.7309,4.7309,4.7309,4.7309,4.7309,4.7309,4.7309,4.7309,4.7309,4.7309,4.7309,4.7309,4.7309,4.7309,4.7309,4.7266,4.7309,4.7201,4.6616,4.5624,4.3999,4.2206,4.0995,4.0668,3.9802,3.9421,3.9145,3.912,3.8818,3.8517,3.8341,3.8291,3.8015,3.7537,3.721,3.7034,3.6783,3.6457,3.6457,3.6532,3.6658,3.6934,3.7135,3.7688,3.8517,3.8768,3.922,3.8919,3.8567,3.8442,3.8894,3.8894,3.9019,3.9321,3.9597,3.9697,3.9697,3.9697,3.9697,3.9823,4.0273,4.075,4.1329,4.1831,4.2411,4.2864,4.2889,4.3014,4.4318,4.5422,4.5951,4.7684,4.9431,5.0799,5.1035,5.1206,5.1206,5.1206,5.1206,5.1206,5.1206,5.1206,5.1206,5.1206,5.1206,5.1206,5.1206,5.1206,5.1206,5.1206,5.1206,5.1206,5.1206,5.1206,5.1236,5.1379,5.1738,5.2067,5.2187,5.2127,5.1977,5.1768,4.8949,4.8984,4.9876,5.0186,5.0134,5.0333,4.9793,4.8738,4.7764,4.7309,4.7309,4.7309,4.7309,4.7309,4.7309,4.7309,4.7309,4.7309,4.7309,4.7309,4.7309,4.7309,4.7309,4.7309,4.7309,4.7309,4.7309,4.7309,4.7309,4.7309,4.7065,4.667,4.6087,4.4498,4.281,4.1668,4.088,3.9978,3.9421,3.8567,3.8492,3.8266,3.7965,3.7789,3.7663,3.7462,3.7085,3.6884,3.6783,3.6532,3.6532,3.6632,3.6808,3.711,3.7436,3.7788,3.8291,3.9095,3.9471,3.9597,3.9245,3.8843,3.8592,3.8768,3.9095,3.9271,3.9421,3.9597,3.9697,3.9848,3.9923,3.9923,4.0249,4.0725,4.1254,4.1833,4.2135,4.2637,4.2939,4.2989,4.3323,4.486,4.6501,4.712,4.7988,4.963,5.1206,5.1206,5.1206,5.1206,5.1206,5.1206,5.1206,5.1206,5.1206,5.1206,5.1206,5.1206,5.1206,5.1206,5.1206,5.1206,5.1206,5.1206,5.1206,5.1206,5.1206,5.1236,5.1349,5.1349,5.1409,5.1385,5.1206,5.1206,5.1206,4.8917,4.8994,5.0523,5.1078,5.0905,5.0681,4.9911,4.882,4.7764,4.7309,4.7309,4.7309,4.7309,4.7309,4.7309,4.7309,4.7309,4.7309,4.7309,4.7309,4.7309,4.7309,4.7309,4.7309,4.7309,4.7309,4.7309,4.7309,4.7309,4.7309,4.701,4.6629,4.6466,4.5303,4.3873,4.2518,4.1579,4.0746,3.9616,3.9071,3.902,3.8256,3.7875,3.7598,3.7303,3.6958,3.6683,3.6582,3.6582,3.6632,3.6884,3.711,3.7362,3.7713,3.7914,3.8241,3.8693,3.9195,3.9572,3.9697,3.9672,3.9396,3.9496,3.9647,3.9622,3.9546,3.9597,3.9697,3.9823,4.0124,4.0299,4.0524,4.0777,4.1254,4.1783,4.211,4.2311,4.2637,4.2914,4.3098,4.3295,4.4535,4.6527,4.7503,4.8464,4.9921,5.1206,5.1206,5.1206,5.1206,5.1206,5.1206,5.1206,5.1206,5.1206,5.1206,5.1206,5.1206,5.1206,5.1206,5.1206,5.1206,5.1206,5.1206,5.1206,5.1206,5.1206,5.1206,5.1206,5.1206,5.1206,5.1206,5.1206,5.1206,5.1206,4.9284,4.9782,5.0782,5.1476,5.1832,5.1574,5.0892,4.9773,4.8136,4.7309,4.7309,4.7309,4.7374,4.7309,4.7309,4.7309,4.7309,4.7309,4.7309,4.7309,4.7309,4.7309,4.7309,4.7309,4.7309,4.7309,4.7309,4.7309,4.7309,4.7309,4.7279,4.707,4.6809,4.6307,4.5464,4.433,4.3151,4.1953,4.0618,4.0158,3.967,3.8964,3.8358,3.7823,3.7143,3.6776,3.6557,3.6808,3.6934,3.706,3.7135,3.7336,3.7814,3.7965,3.8165,3.9145,3.9421,3.9546,3.9672,3.9697,3.9697,3.9697,3.9697,3.9697,3.9697,3.9722,3.9722,3.9848,4.0049,4.0375,4.0725,4.1001,4.1354,4.1858,4.2235,4.2386,4.2562,4.2763,4.3014,4.3156,4.3379,4.4779,4.6707,4.8114,4.9112,5.0484,5.1206,5.1206,5.1206,5.1206,5.1206,5.1206,5.1206,5.1206,5.1206,5.1206,5.1206,5.1206,5.1206,5.1206,5.1206,5.1206,5.1206,5.1206,5.1206,5.1206,5.1206,5.1206,5.1206,5.1206,5.1206,5.1206,5.1206,5.1206,5.1206,4.9864,5.0608,5.1352,5.2063,5.2623,5.2148,5.1506,5.0722,4.9226,4.8314,4.7934,4.7925,4.7658,4.7331,4.7309,4.7309,4.7309,4.7309,4.7309,4.7309,4.7309,4.7309,4.7309,4.7309,4.7309,4.7309,4.7309,4.7309,4.7309,4.7279,4.7249,4.6809,4.6899,4.6741,4.6075,4.5146,4.4683,4.3513,4.2452,4.1741,4.0895,3.9941,3.905,3.8438,3.7565,3.7121,3.6902,3.738,3.756,3.7612,3.7663,3.8014,3.8417,3.8567,3.8793,3.9597,3.9647,3.9647,3.9697,3.9697,3.9697,3.9722,3.9747,3.9848,3.9873,3.9873,3.9948,4.0074,4.035,4.065,4.1051,4.148,4.1957,4.2462,4.2562,4.2663,4.2813,4.2964,4.3098,4.3212,4.4126,4.5449,4.6914,4.8364,4.9606,5.065,5.1206,5.1206,5.1206,5.1206,5.1206,5.1206,5.1206,5.1206,5.1206,5.1206,5.1206,5.1206,5.1206,5.1206,5.1206,5.1206,5.1206,5.1206,5.1206,5.1206,5.1206,5.1206,5.1206,5.1206,5.1206,5.1206,5.1206,5.1206,5.1206,5.0541,5.137,5.2097,5.2807,5.3298,5.2471,5.2065,5.1921,5.1024,4.9989,4.9074,4.882,4.8252,4.77,4.743,4.7309,4.7309,4.7309,4.7309,4.7309,4.7309,4.7309,4.7309,4.7309,4.7309,4.7309,4.7309,4.7309,4.7309,4.7279,4.704,4.639,4.651,4.6501,4.6109,4.5896,4.5682,4.5528,4.4106,4.2957,4.2244,4.1146,3.9964,3.9588,3.8903,3.8274,3.8021,3.8102,3.8336,3.8489,3.8666,3.9069,3.8969,3.9245,3.9546,3.9673,3.9697,3.9697,3.9747,3.9823,3.9848,3.9848,3.9823,4.0173,4.0324,4.0149,4.0174,4.0551,4.0902,4.1254,4.163,4.2034,4.2462,4.2713,4.2813,4.2864,4.2914,4.3073,4.3295,4.3713,4.4914,4.6239,4.7631,4.9088,5.0119,5.0964,5.1206,5.1206,5.1206,5.1206,5.1206,5.1206,5.1206,5.1206,5.1206,5.1206,5.1206,5.1206,5.1206,5.1206,5.1206,5.1206,5.1206,5.1206,5.1206,5.1206,5.1206,5.1206,5.1206,5.1206,5.1206,5.1206,5.1206,5.1206,5.1206,5.0879,5.2097,5.2875,5.3348,5.3467,5.3213,5.311,5.311,5.2887,5.1718,5.0126,4.9256,4.8666,4.8335,4.7658,4.7409,4.7309,4.7309,4.7309,4.7309,4.7309,4.7309,4.7309,4.7309,4.7309,4.7309,4.7309,4.7309,4.7309,4.7279,4.7249,4.7048,4.701,4.677,4.6651,4.6621,4.6728,4.6804,4.615,4.5099,4.4705,4.3616,4.2556,4.2099,4.1498,4.0719,4.0618,4.1039,4.0789,4.0493,4.0301,3.9842,3.902,3.9421,3.9647,3.9697,3.9772,3.9798,3.9948,4.0149,4.03,4.0449,4.0575,4.0876,4.0901,4.0524,4.0576,4.1078,4.1455,4.1833,4.224,4.2592,4.2927,4.3053,4.3101,4.3126,4.3129,4.3381,4.363,4.4617,4.5793,4.7094,4.8464,4.9582,5.0579,5.1058,5.1182,5.1206,5.1206,5.1206,5.1206,5.1206,5.1206,5.1206,5.1206,5.1206,5.1206,5.1206,5.1206,5.1206,5.1206,5.1206,5.1206,5.1206,5.1206,5.1206,5.1206,5.1206,5.1206,5.1206,5.1206,5.1206,5.1206,5.1206,5.1206,5.1251,5.2367,5.3179,5.3501,5.3501,5.3501,5.3501,5.3501,5.3501,5.3071,5.2134,5.0845,4.9734,4.8993,4.8168,4.7619,4.7447,4.7309,4.7309,4.7309,4.7399,4.7309,4.7309,4.7369,4.7309,4.7309,4.7309,4.7309,4.7309,4.7309,4.7309,4.7309,4.7309,4.7309,4.7309,4.7309,4.7309,4.7279,4.7309,4.7048,4.6582,4.5346,4.4253,4.3821,4.3223,4.2605,4.2403,4.274,4.2567,4.189,4.1508,4.0429,3.9677,3.9572,3.9823,3.9998,4.0124,4.0174,4.0453,4.0705,4.093,4.1028,4.1076,4.1225,4.1656,4.1381,4.1381,4.1783,4.1833,4.2162,4.2844,4.3309,4.3831,4.4127,4.4153,4.4126,4.4508,4.4941,4.5262,4.5925,4.7017,4.8088,4.9284,5.0095,5.0941,5.1135,5.1206,5.1206,5.1206,5.1206,5.1206,5.1206,5.1206,5.1206,5.1206,5.1206,5.1206,5.1206,5.1206,5.1206,5.1206,5.1206,5.1206,5.1206,5.1206,5.1206,5.1206,5.1206,5.1206,5.1206,5.1206,5.1206,5.1206,5.1206,5.1206,5.1674,5.2486,5.3213,5.3501,5.3534,5.3619,5.3687,5.3687,5.3788,5.416,5.4393,5.3014,5.1202,4.9867,4.9027,4.8316,4.7912,4.7943,4.7728,4.7698,4.775,4.7878,4.7788,4.7578,4.7489,4.7369,4.7309,4.7309,4.7309,4.7309,4.7309,4.7309,4.7309,4.7309,4.7309,4.7309,4.7309,4.7309,4.7309,4.7309,4.6814,4.6277,4.5572,4.4876,4.4328,4.3761,4.3622,4.3678,4.399,4.3365,4.2792,4.2027,4.1458,4.131,4.1337,4.1647,4.1802,4.1775,4.1663,4.184,4.1674,4.1535,4.1507,4.176,4.2269,4.2564,4.2538,4.2645,4.2671,4.2934,4.3645,4.4374,4.4941,4.5021,4.5021,4.5209,4.5767,4.6318,4.6759,4.7197,4.8139,4.9137,4.9921,5.0698,5.0964,5.1159,5.1206,5.1206,5.1206,5.1206,5.1206,5.1206,5.1206,5.1206,5.1206,5.1206,5.1206,5.1206,5.1206,5.1206,5.1206,5.1206,5.1206,5.1206,5.1206,5.1206,5.1206,5.1206,5.1206,5.1206,5.1206,5.1206,5.1206,5.1206,5.1206,5.2013,5.3264,5.345,5.3501,5.3602,5.4126,5.4363,5.4499,5.4989,5.5395,5.5342,5.5115,5.3812,5.1752,5.083,4.9953,4.8977,4.8789,4.8828,4.8917,4.8648,4.8768,4.8678,4.8229,4.7788,4.7638,4.7519,4.7369,4.7668,4.7549,4.7369,4.7459,4.7399,4.7399,4.7369,4.7399,4.7519,4.7549,4.7549,4.7549,4.7459,4.7108,4.7011,4.6703,4.6637,4.6506,4.6476,4.6535,4.5936,4.5167,4.4403,4.4023,4.3749,4.3635,4.3771,4.3755,4.3886,4.3666,4.3518,4.3572,4.344,4.2741,4.2816,4.3012,4.357,4.414,4.4221,4.4463,4.4516,4.4543,4.5155,4.6056,4.663,4.5899,4.5581,4.6161,4.6759,4.7248,4.7707,4.8314,4.901,4.9873,5.065,5.1082,5.1082,5.1206,5.1206,5.1206,5.1206,5.1206,5.1206,5.1206,5.1206,5.1206,5.1206,5.1206,5.1206,5.1206,5.1206,5.1206,5.1206,5.1206,5.1206,5.1206,5.1206,5.1206,5.1206,5.1206,5.1206,5.1206,5.1206,5.1206,5.1206,5.1206,5.1206]}]]